     2              OBSERVATION DATA    GPS                 RINEX VERSION / TYPE
teqc 2002Apr3 20040909 19:21:48UTC                          PGM / RUN BY / DATE
                                                            COMMENT
L2: 1 -> 1; 150 -> 5; 250 -> 9                              COMMENT
L2: 1 -> 1; 150 -> 5; 250 -> 9                              COMMENT
L2: 1 -> 1; 150 -> 5; 250 -> 9                              COMMENT
L2: 1 -> 1; 150 -> 5; 250 -> 9                              COMMENT
L2: 1 -> 1; 150 -> 5; 250 -> 9                              COMMENT
Original Marker Name: HIGH                                  COMMENT
Campaign Name: SBVC December 2003                           COMMENT
4-Character Station Name: HIGH                              COMMENT
6-Character Antenna Code: DMRCHT                            COMMENT
Vertical Measurement Point: BCR                             COMMENT
Vertical Offset to Rinex Ref. Point: 0.0348                 COMMENT
Radial Measurement Point: ECF                               COMMENT
Radial Offset to Rinex Ref. Point: 0.1897                   COMMENT
Antenna Height from Field Measurement: 1.3980 m             COMMENT
Additional Antenna Identification Info.:                    COMMENT
Turborogue and Ashtech Choke Ring                           COMMENT
Original XYZ: -2413433.3600 -4702234.6300 3559080.6900      COMMENT
New XYZ position is based on association with SCEC monument COMMENT
E1D0S5P0+0011. Position of that monument is believed to be  COMMENT
valid to within 1 m horizontally; vertical accuracy         COMMENT
should be no worse than 3-times this value.                 COMMENT
                                                            COMMENT
Revised Rinex header created by UCSD GPS archive for        COMMENT
GSAC on 09-Nov-2004 (2004:314) 22:43:54 GMT                 COMMENT
For assistance contact dagnew@ucsd.edu                      COMMENT
or anderson@python.ucsd.edu                                 COMMENT
                                                            COMMENT
HIGHLANDS                                                   MARKER NAME
___ CAL STATE SAN BERNARDINO                                OBSERVER / AGENCY
1224 ASHTECH Z-X ZB00                                       REC # / TYPE / VERS
1401 DORNE-MARGOL. TYPE T                                   ANT # / TYPE
 -2413428.0000 -4702229.0000  3559075.0000                  APPROX POSITION XYZ
        1.3503        0.0000        0.0000                  ANTENNA: DELTA H/E/N
     1     1     0                                          WAVELENGTH FACT L1/2
     7    C1    L1    L2    P1    P2    S1    S2            # / TYPES OF OBSERV
     0                                                      INTERVAL
  2003    12    18    16    43    0.000000                  TIME OF FIRST OBS
  2003    12    19     0    58    0.000000                  TIME OF LAST OBS
                                                            END OF HEADER
 03 12 18 16 43  0.0000000  0  7G 1G 3G28G27G 8G10G13
  23232107.2904     251683.90953    183977.06052  23232108.1304   23232105.3954
        48.0004         42.0004
  23763643.8044     179171.17853    128876.21052  23763645.0934   23763642.8734
        47.0004         40.0004
  22313711.2064    -224074.48853   -164429.59452  22313712.8034   22313707.0494
        54.0004         46.0004
  20669023.8764    4653278.19954   3626186.54752  20669025.3634   20669019.6784
        57.0004         50.0004
  21308732.2434    -187524.47453   -140704.55252  21308732.3274   21308726.4684
        56.0004         48.0004
  23816052.4414    4675477.61153   3643161.15952  23816054.0604   23816049.4484
        47.0004         41.0004
  21060801.1924     148267.18954    108960.16552  21060803.2304   21060796.9564
        57.0004         50.0004
 03 12 18 16 43 30.0000000  0  7G 1G 3G28G27G 8G10G13
  23251059.3164     351274.92243    261580.36542  23251061.2614   23251056.8924
        49.0004         42.0004
  23777785.5344     253483.45543    186781.78442  23777786.2214   23777780.6424
        47.0004         40.0004
  22300928.5064    -291248.41543   -216772.89142  22300929.9124   22300924.2074
        54.0004         46.0004
  20666659.8784    4640855.12244   3616506.20942  20666661.3074   20666655.7254
        57.0004         50.0004
  21298824.0954    -239592.63643   -181277.14642  21298824.1224   21298818.6014
        56.0004         48.0004
  23815232.5204    4671167.61243   3639802.70642  23815233.5194   23815229.6504
        47.0004         41.0004
  21073171.1484     213272.33244    159613.48242  21073173.5584   21073167.1294
        57.0004         50.0004
 03 12 18 16 44  0.0000000  0  7G 1G 3G28G27G 8G10G13
  23270054.4184     451095.28343    339362.38142  23270057.2054   23270051.7894
        49.0004         42.0004
  23792004.3384     328200.12443    245002.48442  23792006.4694   23792002.4114
        48.0004         40.0004
  22288201.3984    -358130.29043   -268888.62042  22288202.9374   22288197.2214
        54.0004         46.0004
  20664327.8174    4628598.86444   3606955.85942  20664329.1634   20664323.5044
        57.0004         50.0004
  21288941.1004    -291527.95343   -221746.22842  21288941.1724   21288935.8304
        56.0004         48.0004
  23814513.4364    4667387.84043   3636857.40342  23814512.9944   23814511.0434
        47.0004         41.0004
  21085626.9524     278726.95244    210617.03342  21085629.2854   21085622.5604
        57.0004         50.0004
 03 12 18 16 44 30.0000000  0  7G 1G 3G28G27G 8G10G13
  23289094.0954     551149.58443    417326.68442  23289096.6774   23289091.9714
        48.0004         42.0004
  23806300.5604     403325.37943    303541.57142  23806301.0464   23806298.1794
        47.0004         40.0004
  22275530.9954    -424713.13943   -320771.34542  22275533.0124   22275526.4544
        54.0004         46.0004
  20662028.6094    4616517.14244   3597541.51542  20662030.1124   20662024.7224
        57.0004         50.0004
  21279084.6834    -343323.04643   -262106.04942  21279084.6384   21279079.2804
        56.0004         48.0004
  23813896.1984    4664143.98943   3634329.72442  23813897.0374   23813893.7874
        48.0004         41.0004
  21098169.1514     344636.60844    261975.17342  21098171.3814   21098164.7624
        57.0004         50.0004
 03 12 18 16 45  0.0000000  0  7G 1G 3G28G27G 8G10G13
  23308177.3004     651432.59243    495469.18742  23308180.6004   23308175.3974
        49.0004         42.0004
  23820671.9284     478853.64243    362394.70642  23820672.2994   23820669.3634
        46.0004         40.0004
  22262917.3124    -490999.93043   -372423.38142  22262918.4264   22262912.9194
        54.0004         46.0004
  20659762.2974    4604607.56444   3588261.31042  20659763.4944   20659758.2884
        57.0004         50.0004
  21269254.8014    -394980.47243   -302358.60042  21269254.9384   21269249.4584
        56.0004         48.0004
  23813380.0304    4661432.28943   3632216.68242  23813380.4384   23813376.4634
        47.0004         41.0004
  21110796.9484     410996.52244    313684.16742  21110799.3534   21110792.9314
        57.0004         50.0004
 03 12 18 16 45 30.0000000  0  7G 1G 3G28G27G 8G10G13
  23327304.3504     751945.05343    573790.50642  23327305.8654   23327303.6114
        48.0004         41.0004
  23835122.7564     554785.36943    421562.25542  23835120.9494   23835119.9154
        46.0004         39.0004
  22250360.2584    -556987.22643   -423842.04242  22250361.7704   22250355.7624
        54.0004         46.0004
  20657529.5814    4592873.78544   3579118.08942  20657530.8424   20657525.1684
        57.0004         50.0004
  21259451.5594    -446496.78343   -342501.18342  21259451.5704   21259446.4104
        56.0004         49.0004
  23812965.7124    4659254.88243   3630519.98442  23812966.9894   23812963.2064
        47.0004         41.0004
  21123510.5794     477807.74244    365744.82142  21123513.2294   21123506.6284
        57.0004         50.0004
 03 12 18 16 46  0.0000000  0  7G 1G 3G28G27G 8G10G13
  23346473.2194     852678.15243    652283.74442  23346474.2224   23346471.8124
        48.0004         41.0004
  23849648.1094     631111.25843    481036.86642  23849649.4144   23849644.3144
        48.0004         40.0004
  22237858.9794    -622681.64543   -475032.49142  22237861.0494   22237854.0624
        54.0004         46.0004
  20655328.8534    4581309.99444   3570107.32242  20655330.4084   20655324.9554
        57.0004         50.0004
  21249673.8124    -497878.35743   -382538.77742  21249674.0024   21249668.6344
        56.0004         48.0004
  23812651.4494    4657604.53743   3629233.98442  23812652.9574   23812649.2034
        48.0004         41.0004
  21136308.8584     545062.24344    418150.87842  21136311.1924   21136304.8394
        57.0004         50.0004
 03 12 18 16 46 30.0000000  0  7G 1G 3G28G27G 8G10G13
  23365685.0544     953636.29143    730952.32642  23365686.1334   23365683.2204
        48.0004         41.0004
  23864245.2254     707835.66843    540821.97942  23864250.4184   23864239.8214
        47.0004         39.0004
  22225414.5934    -688076.11543   -525989.20942  22225416.2294   22225410.4734
        54.0004         46.0004
  20653162.3254    4569923.49844   3561234.71042  20653163.5504   20653158.0914
        57.0004         50.0004
  21239923.8774    -549117.72443   -422465.55742  21239923.7784   21239918.4204
        56.0004         49.0004
  23812439.0784    4656486.84143   3628363.02542  23812440.6084   23812436.5194
        48.0004         41.0004
  21149192.1814     612764.85644    470906.12542  21149194.3624   21149188.5034
        57.0004         50.0004
 03 12 18 16 47  0.0000000  0  7G 1G 3G28G27G 8G10G13
  23384939.0274    1054815.79343    809793.41242  23384941.7314   23384939.3544
        48.0004         41.0004
  23878921.2054     784954.15943    600914.36842  23878921.4744   23878922.4484
        46.0004         39.0004
  22213027.3324    -753172.22843   -576713.44742  22213029.7524   22213022.4544
        54.0004         46.0004
  20651029.1344    4558713.32444   3552499.49342  20651030.4664   20651024.8274
        57.0004         50.0004
  21230199.6344    -600216.13143   -462282.49242  21230200.2474   21230194.4644
        56.0004         49.0004
  23812326.5704    4655899.44343   3627905.29342  23812327.8134   23812325.0974
        47.0004         41.0004
  21162160.4274     680912.58344    524008.21642  21162162.7434   21162156.6184
        57.0004         49.0004
 03 12 18 16 47 30.0000000  0  7G 1G 3G28G27G 8G10G13
  23404233.9444    1156213.87343    888804.82342  23404234.7804   23404231.9734
        48.0004         41.0004
  23893673.7004     862463.79143    661311.38242  23893674.0734   23893666.2274
        47.0004         39.0004
  22200696.9404    -817970.38943   -627205.51542  22200698.2884   22200691.8564
        54.0004         47.0004
  20648929.5234    4547679.86544   3543901.98142  20648931.0224   20648925.3174
        57.0004         50.0004
  21220502.9754    -651173.66343   -501989.66342  21220503.1984   21220497.7594
        56.0004         49.0004
  23812316.2574    4655840.84843   3627859.61542  23812317.4274   23812311.6244
        48.0004         41.0004
  21175212.7594     749503.10244    577455.34442  21175215.1974   21175208.8714
        57.0004         49.0004
 03 12 18 16 48  0.0000000  0  7G 1G 3G28G27G 8G10G13
  23423571.0424    1257826.05743    967983.04942  23423570.8474   23423568.3254
        48.0004         41.0004
  23908495.8084     940359.96743    722009.64542  23908496.2414   23908488.2604
        47.0004         39.0004
  22188422.1024    -882472.64843   -677467.00842  22188423.4604   22188417.5314
        54.0004         47.0004
  20646863.2854    4536821.60344   3535440.98642  20646864.7984   20646859.2364
        57.0004         50.0004
  21210832.4684    -701992.07743   -541588.42442  21210832.4804   21210826.7804
        56.0004         49.0004
  23812404.8864    4656307.56743   3628223.28342  23812405.7134   23812402.3004
        48.0004         41.0004
  21188348.4674     818532.52144    631244.46442  21188351.0404   21188344.8684
        57.0004         49.0004
 03 12 18 16 48 30.0000000  0  7G 1G 3G28G27G 8G10G13
  23442948.6604    1359656.19343   1047331.12042  23442949.0244   23442947.5674
        48.0004         41.0004
  23923390.9254    1018646.02743    783011.71642  23923391.7344   23923389.3774
        45.0004         39.0004
  22176205.0994    -946672.62143   -727492.95842  22176206.8584   22176201.3474
        54.0004         47.0004
  20644831.4294    4526145.33744   3527121.80942  20644832.8714   20644827.4324
        57.0004         50.0004
  21201189.8754    -752664.45043   -581073.39642  21201190.0294   21201184.4524
        56.0004         49.0004
  23812594.8674    4657305.17443   3629000.60042  23812594.8464   23812591.7494
        47.0004         41.0004
  21201568.9394     888005.25244    685379.01842  21201571.2724   21201565.0554
        57.0004         49.0004
 03 12 18 16 49  0.0000000  0  7G 1G 3G28G27G 8G10G13
  23462366.5824    1461699.63343   1126845.39642  23462367.6374   23462365.0204
        48.0004         41.0004
  23938363.9024    1097316.94943    844313.69042  23938365.2534   23938361.8724
        48.0004         39.0004
  22164045.7954   -1010572.54843   -777285.10242  22164047.8424   22164041.5854
        54.0004         47.0004
  20642834.2174    4515649.38444   3518943.13242  20642836.0714   20642830.2904
        57.0004         50.0004
  21191574.5694    -803192.92743   -620446.24742  21191574.4254   21191569.4224
        56.0004         49.0004
  23812885.0994    4658830.22843   3630188.92542  23812885.7474   23812883.1604
        48.0004         41.0004
  21214872.8414     957917.01944    739855.67642  21214875.2634   21214868.6014
        57.0004         49.0004
 03 12 18 16 49 30.0000000  0  7G 1G 3G28G27G 8G10G13
  23481824.7674    1563951.63443   1206522.18742  23481826.0104   23481821.4184
        48.0004         41.0004
  23953405.3854    1176367.66743    905911.58142  23953407.7534   23953403.1304
        46.0004         39.0004
  22151942.9174   -1074174.95243   -826845.40642  22151944.7014   22151938.1594
        54.0004         47.0004
  20640871.0244    4505332.17044   3510903.73742  20640872.5504   20640866.8004
        57.0004         50.0004
  21181986.4114    -853579.57843   -659708.57542  21181986.6024   21181981.0764
        56.0004         49.0004
  23813274.1804    4660879.14343   3631785.45542  23813275.7674   23813272.8284
        47.0004         41.0004
  21228259.3404    1028263.62944    794671.16442  21228261.3434   21228255.3614
        57.0004         49.0004
 03 12 18 16 50  0.0000000  0  7G 1G 3G28G27G 8G10G13
  23501322.1964    1666413.84043   1286362.76842  23501323.4534   23501321.6004
        47.0004         41.0004
  23968518.5604    1255799.79843    967806.66842  23968524.8714   23968516.2724
        45.0004         39.0004
  22139896.7364   -1137475.52543   -876170.52342  22139898.4484   22139892.2674
        54.0004         47.0004
  20638942.6394    4495198.31544   3503007.21742  20638944.1984   20638938.5244
        57.0004         50.0004
  21172425.9964    -903819.53143   -698856.59442  21172426.2314   21172420.8254
        56.0004         49.0004
  23813764.3784    4663454.75443   3633792.40142  23813766.0554   23813762.3944
        48.0004         41.0004
  21241728.8484    1099047.38744    849827.29642  21241731.4304   21241725.0834
        57.0004         49.0004
 03 12 18 16 50 30.0000000  0  7G 1G 3G28G27G 8G10G13
  23520860.5964    1769084.92043   1366366.10342  23520861.7984   23520858.1944
        47.0004         41.0004
  23983708.6814    1335611.22443   1029997.35342  23983710.1034   23983707.8884
        47.0004         39.0004
  22127908.7874   -1200473.31243   -925259.69842  22127910.5744   22127904.2724
        54.0004         47.0004
  20637049.5544    4485249.50244   3495254.88242  20637051.0404   20637045.2614
        57.0004         50.0004
  21162894.0304    -953911.66243   -737889.42442  21162894.0214   21162888.5144
        56.0004         49.0004
  23814355.9084    4666557.51043   3636210.09542  23814357.6394   23814351.6844
        48.0004         41.0004
  21255281.7774    1170267.67944    905323.57542  21255284.2344   21255277.6234
        57.0004         49.0004
 03 12 18 16 51  0.0000000  0  7G 1G 3G28G27G 8G10G13
  23540436.6324    1871958.12343   1446526.93142  23540439.1674   23540435.5644
        47.0004         41.0004
  23998968.1324    1415795.17443   1092478.25642  23998969.5444   23998964.2774
        47.0004         39.0004
  22115977.5964   -1263172.72743   -974116.37242  22115979.9014   22115972.6564
        54.0004         47.0004
  20635190.7644    4475482.05644   3487643.87542  20635192.3904   20635186.7334
        57.0004         50.0004
  21153388.9904   -1003859.59543   -776809.89442  21153389.3954   21153383.8874
        56.0004         49.0004
  23815046.0394    4670181.62643   3639034.06042  23815046.2994   23815043.5704
        48.0004         41.0004
  21268916.5824    1241917.91244    961154.88142  21268918.9824   21268912.4514
        57.0004         49.0004
 03 12 18 16 51 30.0000000  0  8G 1G 3G31G28G27G 8G10G13
  23560050.8544    1975031.72043   1526843.90342  23560051.9754   23560049.5064
        46.0004         41.0004
  24014294.8074    1496349.25943   1155247.63842  24014294.4354   24014292.1864
        45.0004         39.0004
  21292625.235
        55.000
  22104103.1184   -1325573.40743  -1022740.26242  22104104.8704   22104098.6004
        54.0004         47.0004
  20633366.7474    4465897.14844   3480175.10442  20633368.3194   20633362.6084
        57.0004         50.0004
  21143912.1094   -1053662.31143   -815617.20442  21143912.2114   21143906.6634
        56.0004         49.0004
  23815834.1344    4674326.14243   3642263.52942  23815835.1074   23815830.5614
        48.0004         41.0004
  21282632.7164    1313996.85044   1017320.24242  21282635.2034   21282628.5354
        57.0004         49.0004
 03 12 18 16 52  0.0000000  0  8G 1G 3G31G28G27G 8G10G13
  23579703.5004    2078307.42443   1607318.36442  23579706.3124   23579702.0734
        47.0004         41.0004
  24029696.8484    1577275.13143   1218306.65442  24029697.7184   24029693.4284
        47.0004         40.0004
  21295540.820
        55.000
  22092286.3014   -1387671.07043  -1071128.04342  22092287.7404   22092281.6054
        54.0004         47.0004
  20631578.5434    4456499.53944   3472852.27442  20631580.1174   20631574.4694
        57.0004         50.0004
  21134463.2394   -1103315.51643   -854308.02342  21134463.3694   21134457.9144
        56.0004         49.0004
  23816722.2884    4678993.77743   3645900.62642  23816722.0284   23816719.6694
        48.0004         41.0004
  21296430.6824    1386506.52744   1073821.24542  21296432.7154   21296426.7304
        57.0004         49.0004
 03 12 18 16 52 30.0000000  0  8G 1G 3G31G28G27G 8G10G13
  23599395.0504    2181783.24843   1687948.77042  23599396.5884   23599392.7684
        47.0004         41.0004
  24045164.0924    1658570.16943   1281653.38142  24045164.5904   24045164.8164
        44.0004         39.0004
  21299603.044
        55.000
  22080527.0614   -1449465.53043  -1119279.55842  22080528.7674   22080523.1094
        54.0004         47.0004
  20629826.1674    4447290.63544   3465676.49242  20629827.6514   20629821.9474
        57.0004         50.0004
  21125043.3464   -1152818.21243   -892881.55942  21125043.3984   21125037.7744
        56.0004         49.0004
  23817709.6604    4684183.90843   3649944.85342  23817712.4234   23817708.4234
        48.0004         41.0004
  21310310.5574    1459445.48443   1130656.74342  21310312.7754   21310307.1174
        56.0004         49.0004
 03 12 18 16 53  0.0000000  0  8G 1G 3G31G28G27G 8G10G13
  23619122.8444    2285454.57743   1768731.52742  23619124.8034   23619120.8034
        47.0004         41.0004
  24060703.9674    1740229.46843   1345283.88142  24060705.4764   24060703.3114
        45.0004         39.0004
  21303200.214
        55.000
  22068825.3614   -1510958.97043  -1167196.51342  22068827.4904   22068821.0084
        55.0004         47.0004
  20628109.3164    4438268.49344   3458646.23342  20628110.8954   20628105.2804
        57.0004         50.0004
  21115651.4164   -1202172.22043   -931339.23442  21115651.7524   21115646.1034
        56.0004         49.0004
  23818796.6344    4689893.16943   3654393.62042  23818797.6064   23818793.0484
        48.0004         41.0004
  21324271.6704    1532809.55444   1187823.49642  21324273.7624   21324267.4594
        57.0004         49.0004
 03 12 18 16 53 30.0000000  0  6G 1G28G27G 8G10G13
  23638886.9334    2389319.86943   1849665.41042  23638890.0824   23638887.3364
        47.0004         41.0004
  22057180.7564   -1572150.61743  -1214878.29742  22057182.6974   22057176.6504
        55.0004         47.0004
  20626428.3824    4429434.67944   3451762.72442  20626429.8914   20626424.1794
        57.0004         50.0004
  21106288.0514   -1251376.22043   -969680.01842  21106288.4474   21106282.7794
        56.0004         49.0004
  23819980.6854    4696121.16243   3659246.55742  23819983.0214   23819977.2114
        48.0004         41.0004
  21338312.9014    1606597.61644   1245320.65442  21338315.2724   21338309.3014
        57.0004         49.0004
 03 12 18 16 54  0.0000000  0  6G 1G28G27G 8G10G13
  23658689.7254    2493379.17043   1930750.47942  23658691.9714   23658688.9014
        47.0004         41.0004
  22045594.6414   -1633038.04443  -1262323.02642  22045596.1354   22045589.9284
        55.0004         47.0004
  20624783.8394    4420792.58244   3445028.60842  20624785.4594   20624779.4904
        57.0004         50.0004
  21096954.2114   -1300427.10043  -1007901.48642  21096954.6404   21096948.8424
        56.0004         49.0004
  23821266.2624    4702869.02343   3664504.61142  23821266.3554   23821261.8734
        48.0004         41.0004
  21352435.1484    1680810.24444   1303148.64642  21352437.4574   21352431.5044
        57.0004         49.0004
 03 12 18 16 54 30.0000000  0  6G 1G28G27G 8G10G13
  23678526.9734    2597627.12043   2011982.54342  23678528.7484   23678526.1754
        46.0004         41.0004
  22034065.3814   -1693624.18643  -1309532.99442  22034067.4814   22034060.7194
        55.0004         47.0004
  20623175.0844    4412339.82144   3438442.02642  20623176.4924   20623171.0974
        57.0004         50.0004
  21087648.7774   -1349327.45243  -1046005.66342  21087649.1034   21087643.0764
        56.0004         49.0004
  23822648.3564    4710131.99643   3670164.05342  23822648.2124   23822644.8024
        48.0004         41.0004
  21366637.2914    1755442.38443   1361303.51842  21366639.5464   21366633.4824
        56.0004         49.0004
 03 12 18 16 55  0.0000000  0  6G 1G28G27G 8G10G13
  23698400.7594    2702063.03643   2093361.07942  23698402.8964   23698400.7644
        47.0004         40.0004
  22022593.6064   -1753907.34943  -1356506.86842  22022595.7744   22022589.1144
        55.0004         47.0004
  20621603.2384    4404078.78044   3432004.83442  20621604.8954   20621599.2604
        57.0004         50.0004
  21078372.4444   -1398075.00943  -1083990.78042  21078372.3184   21078367.2614
        56.0004         49.0004
  23824128.5344    4717911.01743   3676225.59642  23824129.3604   23824125.6894
        48.0004         41.0004
  21380918.9014    1830493.77243   1419785.07242  21380921.3454   21380915.3294
        56.0004         49.0004
 03 12 18 16 55 30.0000000  0  6G 1G28G27G 8G10G13
  23718310.7084    2806687.90043   2174886.84542  23718311.4524   23718307.6104
        46.0004         40.0004
  22011180.3664   -1813884.60143  -1403242.37642  22011182.4934   22011176.1094
        55.0004         47.0004
  20620068.6904    4396013.49744   3425720.18142  20620070.0154   20620064.4474
        57.0004         50.0004
  21069125.9904   -1446665.94343  -1121853.86342  21069125.8194   21069120.7994
        56.0004         49.0004
  23825706.4744    4726207.95743   3682690.71742  23825707.3284   23825703.8814
        48.0004         41.0004
  21395281.0054    1905965.54744   1478594.19042  21395283.4654   21395277.2174
        57.0004         49.0004
 03 12 18 16 56  0.0000000  0  6G 1G28G27G 8G10G13
  23738254.9374    2911495.49643   2256555.00642  23738255.7234   23738254.9894
        47.0004         40.0004
  21999824.8364   -1873559.66143  -1449742.40942  21999826.3694   21999820.7074
        55.0004         47.0004
  20618570.5454    4388141.08144   3419585.81942  20618572.2104   20618566.2964
        57.0004         50.0004
  21059908.5654   -1495103.48943  -1159597.41142  21059908.7034   21059903.1644
        56.0004         49.0004
  23827383.5464    4735017.64343   3689555.37942  23827383.4954   23827380.9084
        47.0004         41.0004
  21409721.7314    1981852.16643   1537726.55642  21409724.1054   21409717.6704
        56.0004         49.0004
 03 12 18 16 56 30.0000000  0  6G 1G28G27G 8G10G13
  23758233.6314    3016483.79643   2338363.95442  23758234.9164   23758231.2734
        47.0004         40.0004
  21988526.6954   -1932932.09043  -1496006.62742  21988528.4764   21988522.1634
        55.0004         47.0004
  20617109.5184    4380462.58244   3413602.55642  20617110.8154   20617105.3234
        57.0004         50.0004
  21050720.5244   -1543386.58543  -1197220.61442  21050720.8484   21050715.4574
        56.0004         49.0004
  23829156.8334    4744338.94443   3696818.71442  23829157.8704   23829154.2144
        47.0004         41.0004
  21424241.1824    2058152.05644   1597180.95242  21424243.3554   21424237.5844
        57.0004         49.0004
 03 12 18 16 57  0.0000000  0  6G 1G28G27G 8G10G13
  23778247.1374    3121654.00743   2420314.67342  23778250.5744   23778245.0844
        47.0004         40.0004
  21977286.6874   -1991998.58543  -1542032.45742  21977288.3324   21977282.2374
        55.0004         47.0004
  20615685.8584    4372982.25744   3407773.71742  20615687.3414   20615681.9454
        57.0004         50.0004
  21041562.6244   -1591511.21543  -1234720.33642  21041562.8574   21041557.3554
        56.0004         49.0004
  23831028.8314    4754174.10443   3704482.44242  23831030.2664   23831026.3844
        47.0004         41.0004
  21438839.4124    2134866.48743   1656958.37042  21438841.7384   21438835.9794
        56.0004         49.0004
 03 12 18 16 57 30.0000000  0  6G 1G28G27G 8G10G13
  23798293.7554    3226999.82243   2502402.20842  23798296.5484   23798292.7344
        47.0004         40.0004
  21966104.1214   -2050763.10943  -1587822.98242  21966105.9484   21966099.5864
        55.0004         47.0004
  20614299.5724    4365697.04944   3402096.91742  20614301.2904   20614295.6554
        57.0004         50.0004
  21032434.7324   -1639480.59043  -1272099.07542  21032434.8164   21032429.3994
        56.0004         49.0004
  23832997.0084    4764517.86243   3712542.49642  23832998.7254   23832993.8774
        47.0004         41.0004
  21453515.6384    2211989.65843   1717054.28042  21453517.6624   21453511.5334
        56.0004         49.0004
 03 12 18 16 58  0.0000000  0  6G 1G28G27G 8G10G13
  23818374.3924    3332524.07843   2584628.79442  23818376.6114   23818372.3124
        47.0004         40.0004
  21954980.1124   -2109220.26243  -1633374.00042  21954981.7324   21954975.2634
        55.0004         47.0004
  20612951.6734    4358613.00244   3396576.86242  20612953.2024   20612947.4584
        57.0004         50.0004
  21023336.7784   -1687288.89743  -1309352.31642  21023337.0804   21023331.7854
        56.0004         49.0004
  23835062.8364    4775374.06243   3721001.85542  23835065.3794   23835059.7714
        47.0004         41.0004
  21468270.0064    2289524.88143   1777471.27242  21468272.3934   21468266.4784
        56.0004         48.0004
 03 12 18 16 58 30.0000000  0  6G 1G28G27G 8G10G13
  23838488.0294    3438219.80043   2666988.97942  23838491.1414   23838487.9104
        47.0004         40.0004
  21943913.3704   -2167374.88643  -1678689.28342  21943915.1474   21943909.0414
        55.0004         48.0004
  20611641.1304    4351726.26544   3391210.55942  20611642.5784   20611637.0944
        57.0004         50.0004
  21014269.0754   -1734940.16344  -1346483.17742  21014269.3324   21014263.7354
        57.0004         49.0004
  23837224.5524    4786736.46543   3729855.65242  23837226.5514   23837223.0224
        48.0004         41.0004
  21483101.7364    2367465.46243   1838204.13842  21483104.0334   21483098.4034
        56.0004         49.0004
 03 12 18 16 59  0.0000000  0  6G 1G28G27G 8G10G13
  23858634.4984    3544089.00743   2749484.35342  23858633.4914   23858631.3064
        47.0004         40.0004
  21932905.3264   -2225222.67843  -1723765.47642  21932907.1874   21932900.8824
        55.0004         48.0004
  20610369.0364    4345042.11244   3386002.11642  20610370.7804   20610364.7584
        57.0004         50.0004
  21005232.3404   -1782429.26443  -1383487.67742  21005232.7724   21005226.8684
        56.0004         49.0004
  23839483.8594    4798608.28343   3739106.38742  23839485.1784   23839482.2234
        48.0004         41.0004
  21498010.7224    2445813.62243   1899254.59142  21498012.8954   21498007.1804
        56.0004         48.0004
 03 12 18 16 59 30.0000000  0  6G 1G28G27G 8G10G13
  23878812.3414    3650125.50743   2832110.06742  23878813.8334   23878811.9004
        47.0004         40.0004
  21921955.2784   -2282767.46443  -1768605.56442  21921956.7994   21921950.8784
        55.0004         48.0004
  20609135.2874    4338557.65544   3380949.27942  20609136.4764   20609131.3154
        57.0004         50.0004
  20996225.5694   -1829759.32443  -1420368.25042  20996225.5674   20996220.2124
        56.0004         49.0004
  23841839.1004    4810983.92643   3748749.71442  23841838.7264   23841836.9614
        47.0004         41.0004
  21512996.5244    2524563.43743   1960618.02342  21512998.9814   21512992.9144
        56.0004         48.0004
 03 12 18 17  0  0.0000000  0  6G 1G28G27G 8G10G13
  23899021.9564    3756330.94343   2914867.43042  23899023.6834   23899019.1164
        47.0004         39.0004
  21911062.9074   -2340005.39243  -1813206.54442  21911064.6254   21911058.5274
        55.0004         48.0004
  20607940.0664    4332277.63544   3376055.74242  20607941.9374   20607936.1174
        57.0004         50.0004
  20987250.3224   -1876925.54143  -1457121.15442  20987250.3384   20987244.7214
        56.0004         49.0004
  23844291.3254    4823866.17143   3758787.79442  23844292.2734   23844287.9894
        48.0004         41.0004
  21528058.8904    2603717.27543   2022296.28742  21528060.9804   21528055.3964
        56.0004         48.0004
 03 12 18 17  0 30.0000000  0  6G 1G28G27G 8G10G13
  23919264.3834    3862700.68143   2997752.80542  23919265.3484   23919263.0424
        47.0004         40.0004
  21900228.9904   -2396938.80243  -1857570.24242  21900230.9104   21900224.1424
        55.0004         48.0004
  20606783.8364    4326200.58944   3371320.36742  20606785.4224   20606779.4264
        57.0004         50.0004
  20978305.6024   -1923929.77843  -1493747.84142  20978306.0784   20978299.7224
        56.0004         49.0004
  23846837.6904    4837251.27843   3769217.72842  23846838.7534   23846834.9754
        47.0004         41.0004
  21543197.5094    2683270.62843   2084285.86042  21543199.5644   21543193.9424
        56.0004         48.0004
 03 12 18 17  1  0.0000000  0  6G 1G28G27G 8G10G13
  23939536.7914    3969232.67943   3080764.62542  23939539.1974   23939535.3644
        46.0004         40.0004
  21889452.8664   -2453567.70843  -1901696.66242  21889454.5584   21889448.3224
        55.0004         48.0004
  20605666.3864    4320327.56844   3366743.97042  20605667.8634   20605662.1014
        57.0004         50.0004
  20969392.3524   -1970771.13044  -1530247.60142  20969392.2174   20969387.0324
        57.0004         49.0004
  23849480.5564    4851137.82543   3780038.39542  23849481.7794   23849477.1194
        47.0004         41.0004
  21558411.5564    2763221.42443   2146585.12942  21558414.0944   21558408.3924
        56.0004         48.0004
 03 12 18 17  1 30.0000000  0  6G 1G28G27G 8G10G13
  23959839.4994    4075924.90543   3163901.29042  23959841.0274   23959836.9674
        46.0004         39.0004
  21878734.7034   -2509891.75643  -1945585.52542  21878736.4954   21878729.6804
        55.0004         48.0004
  20604587.2954    4314659.67543   3362327.41942  20604589.2014   20604583.6914
        56.0004         50.0004
  20960509.7204   -2017448.56243  -1566619.62942  20960509.9684   20960504.4544
        56.0004         49.0004
  23852217.2064    4865524.39143   3791248.68342  23852219.1424   23852216.1304
        46.0004         41.0004
  21573701.2124    2843568.13943   2209192.92042  21573703.2464   21573697.5644
        56.0004         48.0004
 03 12 18 17  2  0.0000000  0  6G 1G28G27G 8G10G13
  23980172.8524    4182777.49343   3247162.91842  23980174.9084   23980172.0424
        45.0004         39.0004
  21868074.9694   -2565908.54943  -1989234.97342  21868076.6384   21868070.2884
        55.0004         48.0004
  20603548.6324    4309200.39444   3358073.41942  20603550.1604   20603544.6634
        57.0004         50.0004
  20951659.2144   -2063958.61044  -1602861.22742  20951658.9964   20951653.7584
        57.0004         49.0004
  23855051.0304    4880412.05943   3802849.43942  23855051.4664   23855049.1254
        46.0004         41.0004
  21589066.1924    2924311.08043   2272109.46442  21589068.2354   21589063.0184
        56.0004         48.0004
 03 12 18 17  2 30.0000000  0  6G 1G28G27G 8G10G13
  24000535.5744    4289786.17243   3330546.16642  24000538.2274   24000534.2264
        45.0004         40.0004
  21857473.4894   -2621619.95143  -2032646.45242  21857475.3644   21857469.5164
        55.0004         48.0004
  20602549.6084    4303948.68444   3353981.16242  20602550.7214   20602545.4564
        57.0004         50.0004
  20942839.8854   -2110302.72144  -1638973.52642  20942840.3874   20942834.7134
        57.0004         49.0004
  23857978.2064    4895797.35843   3814837.96342  23857978.2644   23857975.1514
        47.0004         41.0004
  21604505.6034    3005446.16243   2335331.56742  21604507.9454   21604501.8164
        56.0004         48.0004
 03 12 18 17  3  0.0000000  0  5G28G27G 8G10G13
  21846930.5824   -2677023.98743  -2075818.42442  21846932.2634   21846925.9834
        55.0004         48.0004
  20601590.0824    4298907.87244   3350053.24342  20601591.5694   20601586.0864
        57.0004         50.0004
  20934053.3664   -2156477.59744  -1674953.95142  20934053.6494   20934047.7754
        57.0004         49.0004
  23861001.5844    4911681.04343   3827214.84442  23861003.0424   23860998.2274
        47.0004         41.0004
  21620020.0934    3086973.92943   2398859.65242  21620022.4034   21620016.1224
        56.0004         48.0004
 03 12 18 17  3 30.0000000  0  5G28G27G 8G10G13
  21836445.3174   -2732124.43943  -2118753.83942  21836446.8554   21836440.6684
        55.0004         48.0004
  20600670.5654    4294074.98544   3346287.34142  20600672.0004   20600666.6264
        57.0004         50.0004
  20925298.1274   -2202486.34244  -1710804.92242  20925298.2044   20925292.8164
        57.0004         49.0004
  23864116.8754    4928057.85243   3839975.98442  23864118.3144   23864113.2244
        46.0004         41.0004
  21635607.7524    3168888.06843   2462688.80442  21635609.9924   21635604.0094
        56.0004         48.0004
 03 12 18 17  4  0.0000000  0  5G28G27G 8G10G13
  21826018.2224   -2786918.57543  -2161450.56142  21826019.9354   21826013.6474
        55.0004         48.0004
  20599791.1284    4289454.03644   3342686.58942  20599792.5514   20599787.2604
        57.0004         50.0004
  20916575.2794   -2248325.28844  -1746523.58142  20916575.2944   20916570.0634
        57.0004         49.0004
  23867328.1174    4944929.24743   3853122.48742  23867329.3044   23867326.7094
        46.0004         41.0004
  21651269.1874    3251189.70843   2526819.89542  21651271.2854   21651265.9274
        56.0004         48.0004
 03 12 18 17  4 30.0000000  0  5G28G27G 8G10G13
  21815649.7334   -2841405.39243  -2203907.81442  21815651.5374   21815645.1844
        55.0004         48.0004
  20598952.4854    4285046.54144   3339252.16642  20598953.7394   20598948.4364
        57.0004         50.0004
  20907885.1434   -2293992.65744  -1782108.54642  20907885.3464   20907879.5104
        57.0004         49.0004
  23870632.4354    4962294.43643   3866653.79142  23870633.4544   23870631.1174
        46.0004         40.0004
  21667004.2044    3333877.54243   2591251.92242  21667006.3374   21667000.3104
        56.0004         48.0004
 03 12 18 17  5  0.0000000  0  5G28G27G 8G10G13
  21805340.2534   -2895582.07843  -2246123.41042  21805342.1824   21805335.9454
        55.0004         48.0004
  20598155.1554    4280856.74844   3335987.37742  20598156.5704   20598151.1304
        57.0004         50.0004
  20899228.4784   -2339484.67944  -1817556.87842  20899228.6124   20899222.7664
        57.0004         50.0004
  23874030.9344    4980154.80843   3880570.94542  23874032.0824   23874028.7784
        46.0004         40.0004
  21682813.0574    3416952.61543   2655985.69542  21682815.5744   21682809.5984
        55.0004         48.0004
 03 12 18 17  5 30.0000000  0  5G28G27G 8G10G13
  21795088.7944   -2949453.66943  -2288101.26942  21795090.0824   21795084.2184
        55.0004         48.0004
  20597398.6364    4276880.60344   3332889.06442  20597400.2574   20597394.7894
        57.0004         50.0004
  20890604.2034   -2384805.16844  -1852871.54642  20890604.2254   20890599.1194
        57.0004         50.0004
  23877523.2254    4998503.88243   3894868.90642  23877524.7524   23877520.0414
        46.0004         40.0004
  21698693.7884    3500407.98843   2721015.81142  21698696.0124   21698690.0604
        55.0004         48.0004
 03 12 18 17  6  0.0000000  0  5G28G27G 8G10G13
  21784894.8864   -3003023.10343  -2329843.67542  21784896.9294   21784890.3074
        55.0004         48.0004
  20596682.0624    4273115.87244   3329955.49142  20596683.4714   20596678.2944
        57.0004         50.0004
  20882012.0494   -2429956.67044  -1888054.53542  20882012.0694   20882007.0074
        57.0004         50.0004
  23881106.4604    5017336.88043   3909543.94642  23881107.7844   23881105.2804
        46.0004         40.0004
  21714646.4394    3584238.22843   2786338.03342  21714648.4994   21714642.8194
        55.0004         48.0004
 03 12 18 17  6 30.0000000  0  6G31G28G27G 8G10G13
  21445143.240
        54.000
  21774759.4544   -3056285.49043  -2371346.82942  21774761.6114   21774754.9574
        56.0004         48.0004
  20596007.2474    4269568.89144   3327191.59142  20596008.7264   20596003.2824
        57.0004         50.0004
  20873453.1624   -2474932.85644  -1923100.91442  20873453.3724   20873448.0614
        57.0004         50.0004
  23884783.5704    5036657.33743   3924598.81642  23884784.2964   23884779.2834
        46.0004         40.0004
  21730670.8114    3668446.33643   2851954.70342  21730672.8544   21730667.1374
        56.0004         48.0004
 03 12 18 17  7  0.0000000  0  6G31G28G27G 8G10G13
  21452031.686
        55.000
  21764680.4484   -3109250.44043  -2412618.20842  21764682.1864   21764675.9924
        55.0004         48.0004
  20595371.8424    4266231.10144   3324590.69742  20595373.6674   20595367.9104
        57.0004         50.0004
  20864926.2264   -2519742.47244  -1958017.50242  20864926.2224   20864921.0704
        57.0004         50.0004
  23888550.0374    5056454.09843   3940024.83242  23888551.9864   23888548.7244
        46.0004         40.0004
  21746764.9144    3753021.24443   2917857.19642  21746767.3304   21746761.6044
        56.0004         48.0004
 03 12 18 17  7 30.0000000  0  6G31G28G27G 8G10G13
  21459037.927
        54.000
  21754661.6704   -3161900.87243  -2453644.51342  21754663.2844   21754657.1834
        56.0004         48.0004
  20594780.2784    4263121.01044   3322167.22942  20594781.6034   20594776.0874
        57.0004         50.0004
  20856434.7224   -2564367.23544  -1992790.04942  20856434.5974   20856429.2044
        57.0004         50.0004
  23892410.6454    5076742.87043   3955834.23142  23892412.3424   23892409.8254
        45.0004         40.0004
  21762931.4904    3837977.75343   2984057.04442  21762934.0004   21762928.0494
        55.0004         47.0004
 03 12 18 17  8  0.0000000  0  6G31G28G27G 8G10G13
  21466160.717
        54.000
  21744700.5804   -3214244.15643  -2494431.48742  21744702.6004   21744696.5884
        55.0004         48.0004
  20594230.5814    4260232.19044   3319916.17842  20594232.2034   20594226.3404
        57.0004         50.0004
  20847976.8604   -2608813.48544  -2027423.49542  20847976.9024   20847971.4244
        57.0004         50.0004
  23896363.9714    5097514.70743   3972020.05842  23896364.7034   23896362.0594
        45.0004         40.0004
  21779168.9604    3923306.51643   3050546.94742  21779171.4044   21779165.5074
        55.0004         47.0004
 03 12 18 17  8 30.0000000  0  6G31G28G27G 8G10G13
  21473395.864
        54.000
  21734798.2184   -3266282.44943  -2534980.80342  21734800.6074   21734793.8184
        56.0004         48.0004
  20593722.6964    4257563.39944   3317836.58042  20593724.2424   20593718.4624
        57.0004         50.0004
  20839552.4924   -2653082.63444  -2061918.94142  20839552.8004   20839546.9324
        57.0004         50.0004
  23900408.4344    5118765.51643   3988579.09142  23900408.9004   23900405.3484
        45.0004         40.0004
  21795476.4994    4009003.26443   3117323.58942  21795479.3184   21795473.2134
        55.0004         47.0004
 03 12 18 17  9  0.0000000  0  6G31G28G27G 8G10G13
  21480747.228
        55.000
  21724954.4914   -3318012.00543  -2575289.54742  21724955.7714   21724949.9634
        56.0004         48.0004
  20593257.7514    4255119.63044   3315932.32542  20593259.3324   20593253.7124
        57.0004         50.0004
  20831163.0174   -2697169.93944  -2096272.69042  20831163.3454   20831157.6054
        57.0004         50.0004
  23904543.6194    5140497.40243   4005512.99342  23904545.8864   23904542.1824
        46.0004         40.0004
  21811854.5024    4095069.57643   3184388.20842  21811856.8304   21811850.9044
        55.0004         47.0004
 03 12 18 17  9 30.0000000  0  5G28G27G 8G10G13
  21715168.4464   -3369438.92943  -2615362.47542  21715170.3634   21715163.8724
        56.0004         48.0004
  20592834.4424    4252895.79644   3314199.44742  20592836.2624   20592830.8724
        57.0004         50.0004
  20822807.2804   -2741080.16944  -2130488.46242  20822807.1644   20822802.0054
        57.0004         50.0004
  23908769.6044    5162702.76043   4022815.83542  23908769.7404   23908766.5554
        46.0004         40.0004
  21828301.5514    4181497.26643   3251734.41442  21828303.4274   21828298.3524
        55.0004         47.0004
 03 12 18 17 10  0.0000000  0  5G28G27G 8G10G13
  21705440.8464   -3420556.80343  -2655194.58242  21705442.6484   21705436.3144
        56.0004         48.0004
  20592454.5724    4250899.55644   3312643.91142  20592456.1824   20592450.9024
        57.0004         50.0004
  20814486.2924   -2784806.01844  -2164560.55842  20814486.7494   20814481.4234
        57.0004         50.0004
  23913084.8294    5185386.27843   4040491.25642  23913086.5144   23913083.5614
        45.0004         40.0004
  21844817.4334    4268291.00943   3319365.85642  21844820.4704   21844814.4164
        55.0004         47.0004
 03 12 18 17 10 30.0000000  0  5G28G27G 8G10G13
  21695771.2434   -3471371.22743  -2694790.23342  21695772.9364   21695766.8564
        56.0004         48.0004
  20592117.2064    4249126.60944   3311262.37042  20592119.0144   20592113.2294
        57.0004         50.0004
  20806199.9344   -2828351.89644  -2198492.42342  20806200.0144   20806194.6684
        57.0004         50.0004
  23917491.9694    5208541.04043   4058533.88642  23917492.2284   23917488.5214
        46.0004         40.0004
  21861402.1554    4355443.25543   3387276.65542  21861404.7524   21861398.8404
        55.0004         47.0004
 03 12 18 17 11  0.0000000  0  5G28G27G 8G10G13
  21686160.0944   -3521878.28843  -2734146.38242  21686161.8594   21686155.6254
        56.0004         48.0004
  20591823.3884    4247581.90244   3310058.68042  20591825.0984   20591819.3924
        57.0004         50.0004
  20797948.7284   -2871712.83244  -2232280.17142  20797949.0484   20797943.3254
        57.0004         50.0004
  23921987.8744    5232169.40143   4076945.55142  23921989.5684   23921985.9114
        45.0004         40.0004
  21878055.1354    4442955.52143   3455467.96942  21878057.6734   21878052.0424
        55.0004         47.0004
 03 12 18 17 11 30.0000000  0  5G28G27G 8G10G13
  21676607.3104   -3572078.93543  -2773263.76642  21676608.8664   21676602.3764
        56.0004         48.0004
  20591573.1414    4246265.84844   3309033.15742  20591574.8324   20591568.9774
        57.0004         50.0004
  20789732.7944   -2914888.57744  -2265923.61542  20789732.7314   20789727.4624
        57.0004         50.0004
  23926574.4074    5256268.53143   4095724.05842  23926573.9784   23926570.7754
        46.0004         40.0004
  21894776.2674    4530825.18443   3523937.79142  21894778.7164   21894772.7804
        55.0004         47.0004
 03 12 18 17 12  0.0000000  0  5G28G27G 8G10G13
  21667112.3694   -3621974.32643  -2812143.28742  21667114.0094   21667107.7564
        56.0004         49.0004
  20591365.9754    4245178.26944   3308185.66842  20591367.6554   20591362.2004
        57.0004         50.0004
  20781551.9124   -2957879.13844  -2299422.76442  20781552.2014   20781546.6324
        57.0004         50.0004
  23931249.4224    5280835.47043   4114867.07842  23931251.3284   23931247.1144
        47.0004         40.0004
  21911564.7564    4619048.70643   3592683.33942  21911566.3554   21911561.0004
        55.0004         47.0004
 03 12 18 17 12 30.0000000  0  5G28G27G 8G10G13
  21657673.9554   -3671572.83043  -2850791.46842  21657676.1224   21657669.7464
        56.0004         49.0004
  20591201.2324    4244312.15944   3307510.75642  20591202.6014   20591197.3794
        57.0004         50.0004
  20773404.6664   -3000691.85944  -2332783.33242  20773404.8744   20773399.3614
        57.0004         50.0004
  23936012.0544    5305860.15943   4134366.80042  23936013.7334   23936008.7524
        47.0004         40.0004
  21928418.5554    4707615.74943   3661696.56442  21928420.8774   21928415.0064
        55.0004         47.0004
 03 12 18 17 13  0.0000000  0  5G28G27G 8G10G13
  21648295.7844   -3720856.76743  -2889194.52642  21648297.7054   21648290.9234
        56.0004         49.0004
  20591082.4534    4243686.31744   3307023.06542  20591083.6974   20591078.1774
        57.0004         50.0004
  20765295.3984   -3043307.83444  -2365990.59742  20765295.4904   20765290.1484
        57.0004         50.0004
  23940864.2404    5331358.78143   4154235.81442  23940864.0714   23940861.5894
        47.0004         40.0004
  21945340.6684    4796542.17043   3730989.82542  21945343.2874   21945337.3614
        55.0004         47.0004
 03 12 18 17 13 30.0000000  0  5G28G27G 8G10G13
  21638975.8394   -3769833.58143  -2927358.27042  21638977.3244   21638971.4154
        56.0004         49.0004
  20591007.7704    4243294.68644   3306717.87342  20591009.0944   20591003.5224
        57.0004         50.0004
  20757222.0314   -3085733.30244  -2399049.41142  20757222.0234   20757216.5154
        57.0004         50.0004
  23945804.6314    5357322.11443   4174466.94742  23945805.4934   23945801.8724
        47.0004         40.0004
  21962329.2444    4885818.45343   3800555.69542  21962332.3654   21962326.4084
        55.0004         47.0004
 03 12 18 17 14  0.0000000  0  5G28G27G 8G10G13
  21629713.5984   -3818506.40643  -2965285.13642  21629715.3244   21629709.2674
        56.0004         49.0004
  20590977.5264    4243135.18244   3306593.56242  20590978.8174   20590973.4464
        57.0004         50.0004
  20749184.7644   -3127970.16444  -2431961.26242  20749184.9934   20749179.1514
        57.0004         50.0004
  23950832.6034    5383745.43443   4195056.53342  23950833.1494   23950830.0814
        46.0004         40.0004
  21979383.7814    4975439.09243   3870389.90042  21979386.5354   21979380.4164
        55.0004         47.0004
 03 12 18 17 14 30.0000000  0  5G28G27G 8G10G13
  21620509.5624   -3866873.61543  -3002973.86442  21620511.6794   21620505.0804
        56.0004         49.0004
  20590991.5914    4243210.70344   3306652.37942  20590993.2254   20590987.4994
        57.0004         50.0004
  20741183.7024   -3170015.46444  -2464723.84642  20741183.6574   20741178.2804
        57.0004         50.0004
  23955948.3834    5410628.69743   4216004.49142  23955950.0734   23955945.9364
        47.0004         40.0004
  21996503.4044    5065404.02943   3940492.39042  21996506.2144   21996499.8684
        55.0004         47.0004
 03 12 18 17 15  0.0000000  0  5G28G27G 8G10G13
  21611365.7854   -3914924.88343  -3040416.40242  21611367.2274   21611361.3214
        56.0004         49.0004
  20591052.9724    4243533.23444   3306903.67642  20591054.4694   20591049.2244
        57.0004         50.0004
  20733221.4714   -3211857.63044  -2497328.14042  20733221.5444   20733215.8804
        57.0004         50.0004
  23961153.5424    5437980.55343   4237317.60042  23961155.4354   23961150.7674
        47.0004         40.0004
  22013690.7594    5155721.91243   4010869.90642  22013693.3524   22013687.4554
        55.0004         47.0004
 03 12 18 17 15 30.0000000  0  5G28G27G 8G10G13
  21602275.0394   -3962697.47343  -3077641.79142  21602276.7034   21602270.4654
        56.0004         49.0004
  20591154.7754    4244066.38244   3307319.08642  20591156.1084   20591150.5834
        57.0004         50.0004
  20725291.1984   -3253532.91644  -2529802.40342  20725291.0274   20725285.2704
        57.0004         50.0004
  23966440.8114    5465761.75443   4258965.23442  23966441.7944   23966436.5124
        47.0004         40.0004
  22030937.0714    5246352.71643   4081491.25342  22030939.4024   22030933.4484
        54.0004         46.0004
 03 12 18 17 16  0.0000000  0  5G28G27G 8G10G13
  21593245.1824   -4010149.78043  -3114617.60942  21593246.7404   21593240.7324
        56.0004         49.0004
  20591304.3754    4244853.13144   3307932.11542  20591305.9194   20591300.3464
        57.0004         50.0004
  20717400.2774   -3294998.33944  -2562113.13142  20717400.7104   20717394.6814
        57.0004         50.0004
  23971816.7954    5494012.25743   4280978.59142  23971816.5434   23971813.8824
        48.0004         40.0004
  22048250.6494    5337336.21143   4152387.42242  22048252.8334   22048247.0504
        54.0004         46.0004
 03 12 18 17 16 30.0000000  0  5G28G27G 8G10G13
  21584273.5864   -4057295.45643  -3151354.49642  21584275.5474   21584268.9744
        56.0004         49.0004
  20591500.1474    4245881.25844   3308733.22442  20591501.5564   20591496.3774
        57.0004         50.0004
  20709547.3154   -3336266.14344  -2594269.87642  20709547.5124   20709541.9704
        57.0004         50.0004
  23977278.1334    5522716.69843   4303345.64842  23977277.1744   23977274.7634
        47.0004         40.0004
  22065628.4194    5428656.86543   4223546.31942  22065631.1474   22065625.5374
        54.0004         46.0004
 03 12 18 17 17  0.0000000  0  5G28G27G 8G10G13
  21575359.9194   -4104136.51843  -3187854.02142  21575361.4014   21575355.3794
        56.0004         49.0004
  20591741.6784    4247149.77444   3309721.64942  20591742.9464   20591737.6354
        57.0004         50.0004
  20701731.7064   -3377337.29544  -2626273.38542  20701731.7234   20701726.4844
        57.0004         50.0004
  23982826.1184    5551871.14543   4326063.36042  23982828.1624   23982824.1974
        47.0004         40.0004
  22083069.8064    5520310.59743   4294964.75542  22083071.4294   22083066.0154
        54.0004         46.0004
 03 12 18 17 17 30.0000000  0  5G28G27G 8G10G13
  21566504.4834   -4150672.56243  -3224115.87042  21566506.4604   21566500.0534
        56.0004         49.0004
  20592029.2064    4248660.61244   3310898.90442  20592030.8254   20592025.0524
        57.0004         50.0004
  20693954.0464   -3418209.89544  -2658122.18242  20693954.2374   20693948.4724
        57.0004         50.0004
  23988460.7134    5581474.36443   4349130.76842  23988461.9684   23988457.4524
        47.0004         40.0004
  22100573.7804    5612295.51243   4366641.25242  22100576.4584   22100570.0304
        54.0004         46.0004
 03 12 18 17 18  0.0000000  0  5G28G27G 8G10G13
  21557706.8844   -4196904.00543  -3260140.36942  21557709.0344   21557702.5364
        56.0004         49.0004
  20592362.7154    4250414.49544   3312265.54142  20592364.4274   20592359.0624
        57.0004         50.0004
  20686213.9964   -3458883.11844  -2689815.61642  20686214.4264   20686208.7044
        57.0004         50.0004
  23994177.3254    5611524.14043   4372546.15342  23994178.2534   23994175.4844
        46.0004         40.0004
  22118140.7514    5704609.51543   4438574.19042  22118143.1844   22118137.1904
        54.0004         46.0004
 03 12 18 17 18 30.0000000  0  5G28G27G 8G10G13
  21548966.9144   -4242833.77043  -3295929.79842  21548968.4864   21548962.3584
        56.0004         49.0004
  20592742.7164    4252410.22844   3313820.63242  20592744.0214   20592738.7954
        57.0004         50.0004
  20678511.8884   -3499358.29444  -2721354.72942  20678512.2814   20678506.6294
        57.0004         50.0004
  23999981.0164    5642016.13443   4396306.09342  23999979.2374   23999976.9724
        47.0004         40.0004
  22135769.2474    5797247.73243   4510759.75342  22135770.9064   22135765.6074
        54.0004         46.0004
 03 12 18 17 19  0.0000000  0  5G28G27G 8G10G13
  21540285.0694   -4288457.75643  -3331480.95642  21540286.8944   21540280.4594
        56.0004         49.0004
  20593169.3554    4254652.86144   3315568.11242  20593170.8694   20593165.3844
        57.0004         50.0004
  20670848.3484   -3539630.31044  -2752735.53442  20670848.6914   20670843.0584
        57.0004         50.0004
  24005866.9704    5672952.20043   4420412.08542  24005868.2364   24005865.2614
        46.0004         40.0004
  22153459.6334    5890211.60043   4583199.07542  22153462.1444   22153456.6264
        54.0004         46.0004
 03 12 18 17 19 30.0000000  0  5G28G27G 8G10G13
  21531660.7854   -4333778.88244  -3366796.12142  21531662.3564   21531655.4714
        57.0004         49.0004
  20593643.0504    4257141.02944   3317506.91942  20593644.6174   20593639.0374
        57.0004         50.0004
  20663223.5114   -3579700.66944  -2783959.20742  20663223.4704   20663217.8644
        57.0004         50.0004
  24011837.0554    5704327.78043   4444860.55742  24011839.3644   24011836.5264
        45.0004         40.0004
  22171211.0724    5983496.72143   4655888.71842  22171212.8204   22171207.6504
        54.0004         46.0004
 03 12 18 17 20  0.0000000  0  5G28G27G 8G10G13
  21523093.7434   -4378796.61043  -3401874.87242  21523095.6324   21523089.2324
        56.0004         49.0004
  20594163.4694    4259876.56444   3319638.48342  20594165.0004   20594159.5094
        57.0004         50.0004
  20655637.0354   -3619567.33944  -2815024.16042  20655637.1194   20655631.5344
        57.0004         50.0004
  24017891.0184    5736141.42643   4469650.38142  24017893.5214   24017889.9344
        45.0004         40.0004
  22189023.6804    6077101.51143   4728827.45442  22189025.8874   22189020.9564
        54.0004         46.0004
 03 12 18 17 20 30.0000000  0  6G29G28G27G 8G10G13
  24340321.4734   -6365658.08153  -4901853.47952  24340323.8984   24340318.4954
        47.0004         40.0004
  21514585.0384   -4423511.35543  -3436717.52742  21514586.6424   21514580.2964
        56.0004         49.0004
  20594731.4074    4262860.37544   3321963.50842  20594732.5764   20594727.3324
        57.0004         50.0004
  20648089.6794   -3659229.31344  -2845929.60542  20648089.5964   20648084.0744
        57.0004         50.0004
  24024028.8054    5768391.03443   4494779.90042  24024029.8304   24024026.0604
        46.0004         40.0004
  22206896.2434    6171023.18143   4802013.12042  22206898.8644   22206893.1714
        54.0004         46.0004
 03 12 18 17 21  0.0000000  0  6G29G28G27G 8G10G13
  24321945.4694   -6462218.19243  -4977095.11242  24321947.6514   24321945.5834
        47.0004         41.0004
  21506133.7784   -4467923.26143  -3471324.20742  21506135.3854   21506129.4984
        56.0004         49.0004
  20595346.4004    4266093.69644   3324482.95642  20595348.3304   20595342.9454
        57.0004         50.0004
  20640581.3254   -3698685.38144  -2876674.60742  20640581.4904   20640576.2834
        57.0004         50.0004
  24030247.9564    5801074.49343   4520247.50642  24030249.0634   24030246.2644
        46.0004         40.0004
  22224829.1674    6265259.80243   4875444.20142  22224831.5004   22224825.9614
        54.0004         46.0004
 03 12 18 17 21 30.0000000  0  6G29G28G27G 8G10G13
  24303605.5634   -6558600.23343  -5052198.00342  24303607.8224   24303603.8304
        47.0004         41.0004
  21497740.1444   -4512032.19143  -3505694.80642  21497741.8904   21497735.6854
        56.0004         49.0004
  20596009.5734    4269577.96444   3327197.94642  20596011.1464   20596005.9834
        57.0004         50.0004
  20633112.5214   -3737934.24244  -2907258.14642  20633112.7224   20633107.1274
        57.0004         50.0004
  24036548.7204    5834190.07443   4546051.80342  24036550.7654   24036547.3664
        45.0004         40.0004
  22242821.4274    6359809.42343   4949119.17042  22242823.3664   22242818.0914
        54.0004         46.0004
 03 12 18 17 22  0.0000000  0  6G29G28G27G 8G10G13
  24285299.3164   -6654801.44143  -5127159.98842  24285300.4004   24285295.7364
        47.0004         40.0004
  21489404.1054   -4555838.34543  -3539829.46942  21489405.8354   21489399.7684
        56.0004         49.0004
  20596720.6894    4273314.40744   3330109.43842  20596722.2194   20596716.8544
        57.0004         50.0004
  20625683.4714   -3776974.36244  -2937679.02742  20625683.4474   20625678.2874
        57.0004         50.0004
  24042933.8334    5867735.86543   4572191.32742  24042935.2094   24042930.9274
        46.0004         40.0004
  22260872.8324    6454669.73143   5023036.24442  22260875.4294   22260869.2774
        53.0004         46.0004
 03 12 18 17 22 30.0000000  0  6G29G28G27G 8G10G13
  24267027.1074   -6750818.35443  -5201978.32042  24267029.4444   24267024.2524
        46.0004         40.0004
  21481125.6274   -4599340.95243  -3573727.59942  21481127.4624   21481121.2234
        56.0004         49.0004
  20597480.1194    4277305.21744   3333219.13442  20597481.7834   20597476.3674
        57.0004         50.0004
  20618294.3514   -3815803.59344  -2967935.58442  20618294.6284   20618289.0384
        57.0004         50.0004
  24049398.3274    5901710.76843   4598665.23942  24049400.0264   24049396.0674
        45.0004         40.0004
  22278983.1164    6549839.30343   5097194.29442  22278985.6164   22278980.4824
        53.0004         46.0004
 03 12 18 17 23  0.0000000  0  7G31G29G28G27G 8G10G13
  21731657.6074    -801422.20453   -629584.40052  21731659.4214   21731653.3914
        54.0004         46.0004
  24248791.8084   -6846650.66743  -5276652.88342  24248792.9394   24248787.6914
        46.0004         40.0004
  21472904.7454   -4642542.60543  -3607391.22342  21472906.4664   21472900.3374
        56.0004         49.0004
  20598287.5994    4281549.17144   3336526.09042  20598289.3134   20598283.6774
        57.0004         50.0004
  20610945.3554   -3854423.02044  -2998028.65542  20610945.3884   20610940.3224
        57.0004         50.0004
  24055944.8794    5936110.41943   4625470.12142  24055945.6474   24055941.9614
        45.0004         40.0004
  22297151.1164    6645313.72643   5171589.90042  22297153.9734   22297148.1244
        53.0004         45.0004
 03 12 18 17 23 30.0000000  0  7G31G29G28G27G 8G10G13
  21742181.5984    -746111.74043   -586485.37742  21742184.6634   21742178.8434
        54.0004         46.0004
  24230591.4144   -6942295.34943  -5351181.19842  24230593.3564   24230586.8564
        46.0004         40.0004
  21464741.0624   -4685442.89343  -3640820.01442  21464742.8314   21464736.4404
        56.0004         49.0004
  20599143.9694    4286048.06744   3340031.69742  20599145.2194   20599139.8964
        57.0004         50.0004
  20603636.6294   -3892830.75044  -3027956.76742  20603636.9464   20603631.6064
        57.0004         50.0004
  24062570.4734    5970933.36843   4652604.84842  24062572.1504   24062570.1414
        46.0004         40.0004
  22315377.0524    6741091.50043   5246221.88242  22315379.9084   22315374.0034
        53.0004         45.0004
 03 12 18 17 24  0.0000000  0  7G31G29G28G27G 8G10G13
  21752811.6664    -690253.71443   -542959.68142  21752813.9524   21752808.5164
        54.0004         46.0004
  24212426.1904   -7037749.69343  -5425561.17442  24212428.4474   24212422.6794
        46.0004         40.0004
  21456634.7094   -4728042.14343  -3674014.23442  21456636.3574   21456630.1784
        56.0004         49.0004
  20600048.7064    4290803.06344   3343736.86742  20600050.1994   20600044.9484
        57.0004         50.0004
  20596368.5794   -3931025.82744  -3057719.17842  20596368.6384   20596363.1504
        57.0004         50.0004
  24069277.6414    6006177.12943   4680067.47642  24069278.8454   24069276.1634
        46.0004         40.0004
  22333660.4344    6837170.01543   5321088.20042  22333663.2054   22333657.8704
        53.0004         45.0004
 03 12 18 17 24 30.0000000  0  8G31G29G28G27G 8G10G 7G13
  21763545.1824    -633849.27943   -499008.21442  21763547.1004   21763541.3984
        53.0004         46.0004
  24194298.3374   -7133010.79843  -5499790.61742  24194300.4614   24194296.0094
        46.0004         39.0004
  21448585.7374   -4770340.06944  -3706973.65742  21448587.3344   21448581.2644
        57.0004         49.0004
  20601002.9274    4295816.05844   3347643.07242  20601004.2174   20600998.9244
        57.0004         50.0004
  20589141.1514   -3969005.93944  -3087314.08142  20589141.3034   20589135.7604
        57.0004         50.0004
  24076063.8924    6041840.40243   4707856.98742  24076065.1354   24076063.3104
        46.0004         40.0004
  23874707.5944   -7179919.62053  -5353163.56152  23874710.1974   23874706.6084
        46.0004         39.0004
  22352000.2354    6933547.63843   5396187.59142  22352002.4944   22351997.7074
        53.0004         45.0004
 03 12 18 17 25  0.0000000  0  8G31G29G28G27G 8G10G 7G13
  21774383.5774    -576899.62343   -454631.89542  21774384.4424   21774379.6184
        54.0004         46.0004
  24176208.1134   -7228075.01743  -5573866.63242  24176210.3774   24176207.6264
        46.0004         39.0004
  21440594.1874   -4812335.92943  -3739697.70642  21440595.9954   21440589.6804
        56.0004         49.0004
  20602006.2134    4301089.08044   3351751.89642  20602007.8354   20602002.3374
        57.0004         50.0004
  20581954.7254   -4006769.36744  -3116740.14142  20581955.0414   20581949.9764
        57.0004         50.0004
  24082931.5074    6077921.81743   4735972.33242  24082931.8444   24082928.9824
        46.0004         40.0004
  23854858.1364   -7284226.41943  -5434441.41042  23854858.9794   23854858.2004
        46.0004         39.0004
  22370396.9384    7030222.87143   5471518.89242  22370399.9534   22370394.9234
        53.0004         45.0004
 03 12 18 17 25 30.0000000  0  8G31G29G28G27G 8G10G 7G13
  21785321.2924    -519408.98443   -409834.05042  21785323.9414   21785318.9924
        53.0004         46.0004
  24158156.0634   -7322942.05343  -5647789.00042  24158157.5064   24158152.2604
        45.0004         39.0004
  21432659.7214   -4854032.32543  -3772188.39842  21432661.3384   21432654.9814
        56.0004         49.0004
  20603058.7324    4306620.88044   3356062.36742  20603060.2724   20603054.8864
        57.0004         50.0004
  20574810.1154   -4044316.96044  -3145998.01642  20574809.9964   20574804.5144
        57.0004         50.0004
  24089876.1404    6114417.06243   4764410.15442  24089876.5964   24089874.5364
        46.0004         40.0004
  23835023.4954   -7388458.02143  -5515660.67142  23835025.9634   23835022.3824
        46.0004         39.0004
  22388849.5324    7127191.25143   5547078.62242  22388851.4634   22388846.8434
        53.0004         45.0004
 03 12 18 17 26  0.0000000  0  8G31G29G28G27G 8G10G 7G13
  21796364.9674    -461377.53743   -364614.77942  21796367.1944   21796362.6224
        53.0004         46.0004
  24140140.8094   -7417607.64143  -5721554.36242  24140142.5594   24140135.0964
        45.0004         38.0004
  21424782.6294   -4895427.42444  -3804444.31942  21424784.2064   21424777.7134
        57.0004         49.0004
  20604161.3804    4312414.53444   3360576.87842  20604163.0084   20604157.7944
        57.0004         50.0004
  20567706.4364   -4081645.42444  -3175085.13842  20567706.8744   20567701.0354
        57.0004         50.0004
  24096899.6514    6151325.57643   4793169.99442  24096901.0714   24096897.2184
        47.0004         41.0004
  23815203.7664   -7492610.00743  -5596817.88642  23815205.1384   23815203.7634
        46.0004         39.0004
  22407358.1234    7224452.45743   5622866.52442  22407359.9934   22407354.2804
        53.0004         45.0004
 03 12 18 17 26 30.0000000  0  8G31G29G28G27G 8G10G 7G13
  21807511.7324    -402807.01543   -318975.46542  21807513.6304   21807507.4964
        53.0004         46.0004
  24122167.0354   -7512068.83243  -5795160.47442  24122169.3634   24122163.2154
        45.0004         38.0004
  21416962.5134   -4936521.37943  -3836465.58642  21416964.1104   21416957.9564
        56.0004         49.0004
  20605314.0014    4318471.75844   3365296.77042  20605315.6434   20605310.2514
        57.0004         50.0004
  20560645.0384   -4118753.35644  -3204000.42442  20560645.5214   20560639.8454
        57.0004         50.0004
  24104001.4204    6188645.56543   4822250.47342  24104003.4274   24103998.4824
        47.0004         41.0004
  23795399.4604   -7596679.63643  -5677910.92542  23795401.9384   23795398.9644
        46.0004         39.0004
  22425921.3444    7322004.20043   5698880.82142  22425922.8784   22425918.5744
        53.0004         45.0004
 03 12 18 17 27  0.0000000  0  8G31G29G28G27G 8G10G 7G13
  21818758.7304    -343704.92443   -272921.92542  21818759.7744   21818754.7474
        53.0004         46.0004
  24104229.0504   -7606328.20143  -5868609.34842  24104230.6344   24104226.0624
        44.0004         39.0004
  21409198.5474   -4977319.98843  -3868256.71242  21409200.5344   21409194.2514
        56.0004         49.0004
  20606515.9714    4324788.11844   3370218.58242  20606517.6724   20606511.8874
        57.0004         50.0004
  20553625.0184   -4155644.79344  -3232747.01142  20553624.9674   20553619.8184
        57.0004         50.0004
  24111179.5364    6226369.72143   4851645.89842  24111180.9884   24111176.7434
        47.0004         41.0004
  23775610.8234   -7700669.76243  -5758942.01642  23775612.2704   23775610.4454
        46.0004         40.0004
  22444538.8504    7419838.88043   5775115.58142  22444541.0914   22444535.8484
        53.0004         45.0004
 03 12 18 17 27 30.0000000  0  8G31G29G28G27G 8G10G 7G13
  21830106.6884    -284065.36543   -226449.60642  21830109.6234   21830103.4224
        53.0004         46.0004
  24086332.3544   -7700375.43043  -5941892.89842  24086335.0064   24086329.4044
        46.0004         39.0004
  21401492.7744   -5017815.49944  -3899811.65842  21401494.4894   21401488.1604
        57.0004         49.0004
  20607768.9334    4331372.76944   3375349.45742  20607770.5874   20607765.1494
        57.0004         50.0004
  20546647.4594   -4192310.51744  -3261317.71942  20546648.0404   20546642.4354
        57.0004         50.0004
  24118435.9784    6264503.71343   4881360.65342  24118438.3944   24118434.7134
        46.0004         40.0004
  23755839.4834   -7804569.99643  -5839903.08642  23755839.8464   23755837.7134
        46.0004         39.0004
  22463211.2944    7517962.18343   5851575.23742  22463213.8734   22463207.9454
        53.0004         45.0004
 03 12 18 17 28  0.0000000  0  8G31G29G28G27G 8G10G 7G13
  21841556.2674    -223897.48043   -179565.58442  21841558.0114   21841553.5604
        53.0004         46.0004
  24068476.9084   -7794214.83843  -6015014.52242  24068479.4194   24068472.2014
        45.0004         39.0004
  21393842.9894   -5058014.98644  -3931135.93342  21393844.9354   21393838.6124
        57.0004         49.0004
  20609072.1364    4338219.90544   3380684.86742  20609073.5304   20609068.2274
        57.0004         50.0004
  20539712.1544   -4228756.22144  -3289716.98442  20539712.6534   20539707.2104
        57.0004         50.0004
  24125768.8874    6303038.13043   4911387.43942  24125769.5484   24125767.2674
        47.0004         40.0004
  23736084.3274   -7908384.83343  -5920797.61742  23736086.9574   23736082.1844
        46.0004         39.0004
  22481936.4834    7616364.83043   5928252.55342  22481939.2224   22481933.4904
        53.0004         45.0004
 03 12 18 17 28 30.0000000  0  8G31G29G28G27G 8G10G 7G13
  21853108.4104    -163199.01743   -132268.11842  21853108.8194   21853103.8494
        53.0004         46.0004
  24050660.0344   -7887839.56643  -6087968.82542  24050662.2244   24050656.5514
        46.0004         39.0004
  21386250.3164   -5097914.51743  -3962226.47442  21386251.8004   21386246.0074
        56.0004         49.0004
  20610425.9684    4345335.01644   3386229.08542  20610427.4604   20610422.1504
        57.0004         50.0004
  20532819.8164   -4264976.25444  -3317940.40542  20532820.0794   20532814.6594
        57.0004         50.0004
  24133178.7894    6341974.86943   4941727.72942  24133179.0574   24133175.4874
        46.0004         40.0004
  23716345.8684   -8012107.59843  -6001620.42142  23716347.8304   23716345.0274
        46.0004         39.0004
  22500715.5024    7715048.93943   6005149.20142  22500718.2434   22500712.5904
        53.0004         45.0004
 03 12 18 17 29  0.0000000  0  8G31G29G28G27G 8G10G 7G13
  21864757.4404    -101972.83143    -84559.46342  21864759.7344   21864755.0924
        53.0004         46.0004
  24032884.3694   -7981247.74943  -6160754.40942  24032887.3074   24032882.0144
        47.0004         40.0004
  21378714.3844   -5137515.27443  -3993084.20642  21378716.1754   21378709.8594
        56.0004         49.0004
  20611831.1274    4352718.67744   3391982.56442  20611832.6984   20611827.5604
        57.0004         50.0004
  20525970.4314   -4300970.03444  -3345987.51642  20525970.7474   20525965.4384
        57.0004         50.0004
  24140664.2134    6381311.23243   4972379.40342  24140665.1364   24140661.7374
        46.0004         40.0004
  23696626.2784   -8115736.44943  -6082370.05142  23696626.7974   23696625.2864
        46.0004         39.0004
  22519547.4934    7814011.14543   6082262.55642  22519549.9924   22519545.1064
        52.0004         45.0004
 03 12 18 17 29 30.0000000  0  8G31G29G28G27G 8G10G 7G13
  21876509.4814     -40222.97743    -36442.73942  21876510.6524   21876505.4104
        53.0004         46.0004
  24015149.7154   -8074438.73843  -6233370.74142  24015151.8154   24015146.1234
        47.0004         40.0004
  21371235.2314   -5176819.33644  -4023710.74942  21371237.1744   21371230.8194
        57.0004         49.0004
  20613287.2704    4360370.18544   3397944.75342  20613288.6824   20613283.3754
        57.0004         50.0004
  20519163.8724   -4336738.13944  -3373858.78342  20519164.3354   20519158.8404
        57.0004         50.0004
  24148225.7674    6421042.91543   5003339.11942  24148225.8004   24148221.8454
        47.0004         40.0004
  23676924.2194   -8219270.77843  -6163046.03542  23676924.9904   23676923.1484
        46.0004         40.0004
  22538431.5614    7913247.37443   6159589.43942  22538434.2584   22538428.4914
        52.0004         45.0004
 03 12 18 17 30  0.0000000  0  8G31G29G28G27G 8G10G 7G13
  21888359.0814      22049.16043     12080.96042  21888360.5134   21888355.5544
        53.0004         45.0004
  23997459.1514   -8167409.06143  -6305815.13342  23997462.1654   23997456.5624
        48.0004         41.0004
  21363812.4834   -5215826.19344  -4054105.69742  21363814.4844   21363807.9324
        57.0004         49.0004
  20614794.3884    4368291.36444   3404117.07542  20614796.2154   20614790.3844
        57.0004         50.0004
  20512400.8964   -4372278.34844  -3401552.46642  20512401.0404   20512395.8364
        57.0004         50.0004
  24155861.4064    6461168.59343   5034605.84642  24155861.3754   24155857.7794
        47.0004         40.0004
  23657240.9414   -8322707.40243  -6243645.89342  23657241.7564   23657239.9294
        47.0004         40.0004
  22557367.4184    8012755.83843   6237128.45342  22557369.8234   22557365.0204
        53.0004         45.0004
 03 12 18 17 30 30.0000000  0  8G31G29G28G27G 8G10G 7G13
  21900308.3224      84844.60443     61012.42242  21900309.9464   21900305.9724
        53.0004         46.0004
  23979809.9904   -8260152.87543  -6378083.03942  23979810.1764   23979807.6864
        47.0004         41.0004
  21356446.8074   -5254532.96044  -4084266.81542  21356448.6784   21356442.4374
        57.0004         49.0004
  20616353.9904    4376486.68844   3410503.01942  20616355.3804   20616350.3814
        57.0004         50.0004
  20505682.1844   -4407586.22544  -3429065.11342  20505682.3754   20505677.1264
        57.0004         50.0004
  24163571.4804    6501689.17343   5066180.29842  24163571.3294   24163568.9824
        46.0004         40.0004
  23637577.0044   -8426040.59543  -6324165.16842  23637579.0844   23637575.7634
        47.0004         41.0004
  22576355.2744    8112537.42043   6314880.28542  22576357.3524   22576352.6434
        52.0004         44.0004
 03 12 18 17 31  0.0000000  0  8G31G29G28G27G 8G10G 7G13
  21912354.3784     148147.45743    110339.25842  21912356.2764   21912351.0844
        53.0004         45.0004
  23962202.0174   -8352681.47043  -6450183.23042  23962204.8224   23962200.1724
        47.0004         41.0004
  21349135.7404   -5292953.74644  -4114205.09842  21349137.2744   21349130.9854
        57.0004         49.0004
  20617963.4234    4384943.50744   3417092.72442  20617965.1174   20617959.5964
        57.0004         50.0004
  20499004.9424   -4442674.31844  -3456406.49942  20499005.3314   20498999.9684
        57.0004         50.0004
  24171353.9604    6542588.50743   5098049.88342  24171356.2404   24171351.5474
        46.0004         40.0004
  23617930.9044   -8529281.62443  -6404612.62542  23617932.9574   23617928.3444
        47.0004         40.0004
  22595392.1304    8212576.43343   6392832.71042  22595394.2734   22595389.2034
        52.0004         44.0004
 03 12 18 17 31 30.0000000  0  8G31G29G28G27G 8G10G 7G13
  21924501.9494     211977.48143    160076.89242  21924502.9854   21924498.7124
        53.0004         45.0004
  23944640.5574   -8444970.00643  -6522096.36542  23944642.4044   23944638.1654
        48.0004         41.0004
  21341882.9864   -5331066.74044  -4143903.53142  21341884.6074   21341878.5864
        57.0004         49.0004
  20619626.8074    4393685.08244   3423904.31442  20619628.4364   20619623.0174
        57.0004         50.0004
  20492374.3314   -4477519.00044  -3483558.21842  20492374.5924   20492369.3404
        57.0004         50.0004
  24179213.4064    6583886.31343   5130229.95142  24179214.5144   24179209.4764
        46.0004         40.0004
  23598306.7434   -8632405.95043  -6484969.14942  23598308.9914   23598305.1104
        47.0004         40.0004
  22614481.3674    8312892.29043   6471000.86042  22614483.4394   22614478.9544
        52.0004         44.0004
 03 12 18 17 32  0.0000000  0  8G31G29G28G27G 8G10G 7G13
  21936743.5194     276316.49743    210211.12942  21936747.1414   21936742.4274
        53.0004         45.0004
  23927122.2174   -8537032.07043  -6593833.02742  23927126.0094   23927119.6094
        47.0004         41.0004
  21334685.5194   -5368888.67843  -4173375.17042  21334687.0674   21334680.9624
        56.0004         49.0004
  20621341.6104    4402696.56244   3430926.22542  20621342.7914   20621337.9644
        57.0004         50.0004
  20485787.1214   -4512135.04944  -3510531.78042  20485787.4264   20485782.0074
        57.0004         50.0004
  24187144.0964    6625564.11143   5162706.10542  24187146.4014   24187142.3354
        46.0004         39.0004
  23578702.0144   -8735427.12043  -6565245.30442  23578703.1944   23578702.7824
        47.0004         40.0004
  22633620.2264    8413466.28343   6549370.15042  22633623.8464   22633617.5384
        52.0004         44.0004
 03 12 18 17 32 30.0000000  0  8G31G29G28G27G 8G10G 7G13
  21949085.4994     341170.59743    260746.74142  21949088.4464   21949082.4404
        52.0004         45.0004
  23909648.8014   -8628856.71443  -6665384.68242  23909651.2444   23909644.8014
        48.0004         41.0004
  21327545.4064   -5406411.37144  -4202613.63242  21327547.4094   21327541.0624
        57.0004         49.0004
  20623109.5514    4411987.43744   3438165.83842  20623111.3614   20623105.7924
        57.0004         50.0004
  20479245.3704   -4546512.82944  -3537319.67542  20479245.5124   20479240.3244
        57.0004         50.0004
  24195148.9664    6667628.21343   5195483.30942  24195149.9454   24195145.7804
        46.0004         40.0004
  23559119.6284   -8838334.40343  -6645432.71342  23559120.3794   23559118.9144
        47.0004         41.0004
  22652808.6414    8514304.41843   6627945.26842  22652810.7954   22652806.8974
        52.0004         44.0004
 03 12 18 17 33  0.0000000  0  8G31G29G28G27G 8G10G 7G13
  21961523.9694     406530.36143    311676.38742  21961524.2404   21961520.0444
        52.0004         45.0004
  23892219.5124   -8720448.42443  -6736754.83342  23892221.0374   23892216.6474
        48.0004         41.0004
  21320460.5524   -5443642.27244  -4231624.72442  21320462.3744   21320456.3314
        57.0004         49.0004
  20624929.6874    4421551.71044   3445618.49342  20624931.3064   20624925.9714
        57.0004         50.0004
  20472747.6524   -4580658.21144  -3563926.48142  20472747.9014   20472742.5264
        57.0004         50.0004
  24203225.1614    6710068.97443   5228553.97642  24203226.4724   24203222.4784
        46.0004         40.0004
  23539557.9804   -8941132.28943  -6725534.89042  23539558.6114   23539557.3354
        47.0004         41.0004
  22672046.8384    8615397.70543   6706719.20742  22672049.3534   22672044.5584
        52.0004         44.0004
 03 12 18 17 33 30.0000000  0  8G31G29G28G27G 8G10G 7G13
  21974057.4004     472398.39343    363002.05942  21974059.6364   21974054.2874
        52.0004         45.0004
  23874836.7804   -8811799.74143  -6807937.68442  23874837.4694   23874832.4324
        47.0004         41.0004
  21313432.2864   -5480576.59644  -4260404.71642  21313434.0924   21313427.6984
        57.0004         50.0004
  20626803.0444    4431395.53744   3453288.98442  20626804.7514   20626799.5934
        57.0004         50.0004
  20466295.4814   -4614564.65844  -3590347.10842  20466295.7894   20466290.5844
        57.0004         50.0004
  24211373.0044    6752888.74343   5261919.99742  24211374.4924   24211371.4614
        46.0004         40.0004
  23520018.2684   -9043813.51743  -6805546.15342  23520019.7314   23520016.9354
        47.0004         41.0004
  22691333.1564    8716748.44143   6785693.75342  22691335.5544   22691329.9284
        52.0004         44.0004
 03 12 18 17 34  0.0000000  0  8G31G29G28G27G 8G10G 7G13
  21986687.4284     538768.90443    414719.29642  21986689.6494   21986684.1394
        52.0004         45.0004
  23857496.9564   -8902911.37043  -6878933.73642  23857499.8194   23857495.2254
        47.0004         41.0004
  21306459.6774   -5517218.33544  -4288956.72642  21306461.5234   21306455.0324
        57.0004         50.0004
  20628728.8154    4441516.53844   3461175.45142  20628730.3224   20628725.2754
        57.0004         50.0004
  20459888.3364   -4648234.52344  -3616583.38442  20459888.5254   20459883.2944
        57.0004         50.0004
  24219592.6464    6796081.71443   5295576.82142  24219594.8094   24219590.4644
        46.0004         40.0004
  23500500.3884   -9146379.03943  -6885467.25742  23500502.1814   23500499.4114
        47.0004         41.0004
  22710667.0204    8818350.57543   6864864.19642  22710669.2944   22710665.1904
        52.0004         44.0004
 03 12 18 17 34 30.0000000  0  8G31G29G28G27G 8G10G 7G13
  21999413.0754     605643.79843    466829.54342  21999416.4424   21999410.2234
        52.0004         45.0004
  23840204.7194   -8993776.83143  -6949737.97342  23840208.5974   23840203.2774
        47.0004         41.0004
  21299543.2214   -5553563.89844  -4317277.94842  21299544.8794   21299538.7644
        57.0004         50.0004
  20630708.6444    4451919.93444   3469281.96342  20630710.3864   20630704.9024
        57.0004         50.0004
  20453527.2964   -4681662.19844  -3642630.94342  20453527.6884   20453522.2334
        57.0004         50.0004
  24227883.7684    6839649.64643   5329525.81542  24227885.7194   24227880.2814
        47.0004         40.0004
  23481006.2694   -9248822.41643  -6965293.19442  23481006.9354   23481005.9074
        46.0004         41.0004
  22730049.5784    8920205.76443   6944231.82342  22730051.9874   22730047.2894
        51.0004         44.0004
 03 12 18 17 35  0.0000000  0  8G31G29G28G27G 8G10G 7G13
  22012235.6014     673018.28443    519329.10242  22012236.8154   22012231.0964
        53.0004         45.0004
  23822962.1254   -9084395.70243  -7020350.06842  23822964.8484   23822959.1094
        47.0004         41.0004
  21292682.6384   -5589615.94844  -4345370.46642  21292684.1904   21292678.1034
        57.0004         50.0004
  20632741.7464    4462604.55144   3477607.60942  20632743.5664   20632738.2734
        57.0004         50.0004
  20447211.9724   -4714848.69944  -3668490.57142  20447212.2144   20447207.0694
        57.0004         51.0004
  24236244.8124    6883587.81443   5363763.31542  24236246.3724   24236243.1814
        46.0004         40.0004
  23461535.3164   -9351143.41243  -7045023.77842  23461536.3164   23461533.7294
        47.0004         41.0004
  22749479.2514    9022309.33843   7023793.00242  22749481.8244   22749476.8704
        51.0004         44.0004
 03 12 18 17 35 30.0000000  0  8G31G29G28G27G 8G10G 7G13
  22025148.7744     740888.30343    572214.76342  22025152.5214   22025146.7734
        52.0004         45.0004
  23805764.9854   -9174767.10743  -7090769.34242  23805767.7574   23805762.2754
        47.0004         41.0004
  21285877.6984   -5625376.76744  -4373236.04042  21285879.2874   21285873.0594
        57.0004         50.0004
  20634828.5924    4473569.78844   3486151.91942  20634830.0414   20634824.9234
        57.0004         50.0004
  20440942.9074   -4747794.63844  -3694162.74942  20440942.9364   20440937.9314
        57.0004         51.0004
  24244675.7504    6927892.03043   5398286.04342  24244676.7924   24244672.5654
        46.0004         40.0004
  23442087.8884   -9453341.40943  -7124658.52542  23442089.4274   23442088.0134
        48.0004         41.0004
  22768955.7174    9124657.02843   7103544.39542  22768958.2244   22768953.0944
        52.0004         44.0004
 03 12 18 17 36  0.0000000  0  8G31G29G28G27G 8G10G 7G13
  22038160.6014     809255.51143    625487.87442  22038161.5054   22038156.4364
        52.0004         45.0004
  23788615.6664   -9264884.57643  -7160990.71942  23788618.0594   23788612.7104
        47.0004         41.0004
  21279128.7004   -5660842.74644  -4400871.87542  21279130.4614   21279124.3264
        57.0004         50.0004
  20636969.6664    4484820.72044   3494918.84842  20636971.1064   20636965.8974
        57.0004         50.0004
  20434720.3204   -4780494.24044  -3719642.97342  20434720.5774   20434715.4644
        57.0004         51.0004
  24253177.2524    6972563.72843   5433095.11642  24253177.8484   24253171.7304
        47.0004         40.0004
  23422664.6904   -9555409.78843  -7204192.29142  23422665.7944   23422664.1094
        48.0004         41.0004
  22788478.1764    9227250.46243   7183487.28442  22788480.6124   22788476.1814
        51.0004         44.0004
 03 12 18 17 36 30.0000000  0  8G31G29G28G27G 8G10G 7G13
  22051261.5794     878111.17843    679141.58342  22051264.6514   22051259.4344
        52.0004         45.0004
  23771515.1044   -9354751.83643  -7231017.14342  23771518.4884   23771512.4094
        47.0004         41.0004
  21272434.6204   -5696020.71044  -4428283.29042  21272436.1134   21272430.0034
        57.0004         50.0004
  20639164.0024    4496352.14644   3503904.34742  20639165.2714   20639160.3634
        57.0004         50.0004
  20428543.5824   -4812952.84044  -3744935.40042  20428543.8944   20428538.5734
        57.0004         51.0004
  24261745.3014    7017594.01243   5468183.61942  24261748.1734   24261742.1574
        47.0004         40.0004
  23403265.8264   -9657352.64943  -7283628.23642  23403265.9354   23403265.0444
        48.0004         41.0004
  22808046.4564    9330081.01143   7263614.93242  22808049.0334   22808044.4474
        52.0004         44.0004
 03 12 18 17 37  0.0000000  0  8G31G29G28G27G 8G10G 7G13
  22064460.5704     947460.70043    733180.11542  22064460.5844   22064456.5484
        53.0004         45.0004
  23754463.2004   -9444358.39243  -7300840.42242  23754465.7014   23754460.5214
        47.0004         41.0004
  21265796.9554   -5730903.01744  -4455464.31942  21265798.3744   21265792.1954
        57.0004         50.0004
  20641413.5064    4508173.01244   3513115.38542  20641415.1784   20641409.6524
        57.0004         50.0004
  20422414.6244   -4845161.11344  -3770032.76642  20422414.5944   20422409.5124
        57.0004         51.0004
  24270382.6794    7062988.25943   5503555.72142  24270385.4304   24270381.2894
        46.0004         40.0004
  23383892.3774   -9759159.57743  -7362958.25542  23383894.1274   23383890.1784
        48.0004         41.0004
  22827660.4654    9433153.86943   7343931.39342  22827663.7004   22827658.4634
        51.0004         44.0004
 03 12 18 17 37 30.0000000  0  8G31G29G28G27G 8G10G 7G13
  22077748.9044    1017295.03543    787596.43742  22077750.4694   22077745.4994
        53.0004         45.0004
  23737461.0694   -9533708.37843  -7370463.77642  23737463.2784   23737458.4794
        48.0004         41.0004
  21259213.7494   -5765496.89944  -4482420.60042  21259215.8144   21259209.3774
        57.0004         50.0004
  20643716.5384    4520277.89943   3522547.73742  20643718.5154   20643713.1164
        56.0004         50.0004
  20416332.2464   -4877124.27744  -3794939.13842  20416332.3344   20416326.9354
        57.0004         51.0004
  24279088.8334    7108737.38943   5539204.36242  24279090.1024   24279087.5134
        46.0004         40.0004
  23364544.2164   -9860834.83543  -7442185.66542  23364544.7534   23364542.9874
        48.0004         41.0004
  22847318.5634    9536459.68543   7424429.37542  22847320.8884   22847316.2724
        51.0004         43.0004
 03 12 18 17 38  0.0000000  0  8G31G29G28G27G 8G10G 7G13
  22091130.8604    1087615.31543    842391.41542  22091132.7644   22091127.1274
        53.0004         45.0004
  23720508.3534   -9622795.57943  -7439882.37042  23720509.6454   23720506.0974
        47.0004         41.0004
  21252686.3074   -5799799.12244  -4509149.61642  21252687.8564   21252681.5104
        57.0004         50.0004
  20646075.4784    4532671.32244   3532204.91842  20646076.7074   20646071.3744
        57.0004         50.0004
  20410297.5354   -4908837.56044  -3819650.79642  20410297.8004   20410292.3294
        57.0004         51.0004
  24287862.4734    7154842.64943   5575130.49542  24287864.9154   24287860.6694
        46.0004         39.0004
  23345222.0584   -9962372.32243  -7521305.72342  23345222.0684   23345220.6134
        48.0004         41.0004
  22867022.1474    9640000.02643   7505110.11042  22867025.7654   22867019.0264
        51.0004         43.0004
 03 12 18 17 38 30.0000000  0  8G31G29G28G27G 8G10G 7G13
  22104601.7764    1158418.14743    897562.38942  22104605.6204   22104600.7404
        51.0004         45.0004
  23703606.6744   -9711618.59543  -7509095.12742  23703609.0714   23703601.2594
        48.0004         41.0004
  21246214.0294   -5833811.43744  -4535652.72842  21246215.3924   21246209.3344
        57.0004         50.0004
  20648488.7424    4545353.45844   3542087.07242  20648490.0344   20648484.7344
        57.0004         50.0004
  20404310.0614   -4940300.58644  -3844167.44842  20404310.2334   20404305.0514
        58.0004         51.0004
  24296704.1654    7201300.25443   5611331.17942  24296704.6114   24296699.3444
        46.0004         39.0004
  23325926.6214  -10063770.72243  -7600317.43542  23325928.8414   23325924.9834
        48.0004         41.0004
  22886769.3324    9743771.12243   7585970.65142  22886771.0434   22886766.0204
        51.0004         43.0004
 03 12 18 17 39  0.0000000  0  8G31G29G28G27G 8G10G 7G13
  22118169.3574    1229700.90543    953107.35842  22118169.6564   22118164.8494
        52.0004         45.0004
  23686754.5024   -9800174.69643  -7578099.87342  23686755.9004   23686750.7944
        48.0004         41.0004
  21239796.6814   -5867534.14644  -4561930.16942  21239798.4394   21239792.2944
        57.0004         50.0004
  20650956.9824    4558325.38744   3552195.04042  20650958.9204   20650953.5184
        57.0004         50.0004
  20398370.9084   -4971511.87644  -3868487.93842  20398371.0924   20398365.8434
        57.0004         51.0004
  24305610.9234    7248107.55043   5647804.36542  24305612.5474   24305608.0874
        46.0004         39.0004
  23306658.4164  -10165027.76743  -7679218.99442  23306660.1724   23306655.8084
        48.0004         41.0004
  22906559.6854    9847770.50643   7667009.07342  22906561.0844   22906557.3354
        51.0004         43.0004
 03 12 18 17 39 30.0000000  0  7G31G29G28G27G 8G 7G13
  22131823.2594    1301459.88143   1009023.38142  22131824.3734   22131820.8764
        52.0004         44.0004
  23669954.1484   -9888462.67543  -7646895.68242  23669955.7064   23669951.4624
        48.0004         41.0004
  21233434.2824   -5900969.26244  -4587983.51242  21233435.9184   21233429.8364
        57.0004         50.0004
  20653480.7274    4571586.73944   3562528.53342  20653482.1544   20653476.9184
        57.0004         50.0004
  20392479.4424   -5002471.65944  -3892612.45142  20392479.6164   20392474.3454
        57.0004         51.0004
  23287416.3814  -10266142.24143  -7758009.45142  23287417.0784   23287413.6214
        47.0004         41.0004
  22926393.0314    9951994.45943   7748222.48342  22926394.0314   22926389.6944
        51.0004         43.0004
 03 12 18 17 40  0.0000000  0  7G31G29G28G27G 8G 7G13
  22145569.6974    1373694.89143   1065310.33942  22145571.0294   22145565.8364
        52.0004         44.0004
  23653205.3354   -9976477.65443  -7715478.76742  23653206.1414   23653201.2914
        49.0004         42.0004
  21227126.8964   -5934114.76044  -4613811.18242  21227128.6884   21227122.3604
        57.0004         50.0004
  20656060.1044    4585140.91343   3573090.19842  20656061.6634   20656056.3964
        56.0004         50.0004
  20386636.4504   -5033176.02244  -3916537.93642  20386636.7384   20386631.3314
        57.0004         51.0004
  23268202.5864  -10367109.43843  -7836685.13742  23268204.6864   23268202.6044
        48.0004         41.0004
  22946268.8294   10056442.48043   7829610.49042  22946272.2004   22946265.7874
        51.0004         43.0004
 03 12 18 17 40 30.0000000  0  7G31G29G28G27G 8G 7G13
  22159404.5284    1446402.22943   1121965.34542  22159407.6254   22159402.6064
        52.0004         44.0004
  23636508.3334  -10064218.32243  -7783848.08942  23636509.4604   23636505.1694
        48.0004         42.0004
  21220874.2574   -5966972.06244  -4639414.28842  21220875.9594   21220870.0004
        57.0004         50.0004
  20658695.0644    4598987.94244   3583880.06142  20658696.5004   20658691.3674
        57.0004         50.0004
  20380842.4234   -5063624.94944  -3940264.37942  20380842.6944   20380837.2184
        58.0004         51.0004
  23249017.8224  -10467928.11843  -7915245.09242  23249017.9694   23249017.3024
        48.0004         42.0004
  22966186.9764   10161111.15443   7911170.43142  22966188.2604   22966184.2244
        51.0004         43.0004
 03 12 18 17 41  0.0000000  0  7G31G29G28G27G 8G 7G13
  22173330.4784    1519580.33343   1178987.19042  22173332.7104   22173327.4804
        52.0004         44.0004
  23619864.8804  -10151681.07143  -7852000.88042  23619865.0914   23619862.1984
        48.0004         41.0004
  21214676.7524   -5999541.19844  -4664792.84042  21214678.4444   21214671.9704
        57.0004         50.0004
  20661385.8634    4613129.76343   3594899.62942  20661387.5324   20661382.2744
        56.0004         50.0004
  20375097.1764   -5093815.90344  -3963789.80142  20375097.4224   20375091.9784
        57.0004         51.0004
  23229861.8374  -10568594.83843  -7993686.66142  23229862.1174   23229860.8594
        48.0004         42.0004
  22986145.9944   10265999.08343   7992901.21542  22986149.9104   22986143.2934
        51.0004         43.0004
 03 12 18 17 41 30.0000000  0  7G31G29G28G27G 8G 7G13
  22187343.6664    1593223.31343   1236371.28242  22187346.6744   22187340.4204
        51.0004         44.0004
  23603273.4564  -10238866.57643  -7919937.63042  23603276.5314   23603270.9694
        49.0004         41.0004
  21208533.1174   -6031826.02344  -4689949.85342  21208534.8544   21208528.5474
        57.0004         50.0004
  20664132.6974    4627564.11043   3606147.14842  20664134.4554   20664129.3984
        56.0004         50.0004
  20369400.6584   -5123751.13844  -3987115.96342  20369400.9374   20369395.6404
        58.0004         51.0004
  23210734.1844  -10669110.58543  -8072010.58242  23210735.4504   23210733.7594
        48.0004         42.0004
  23006146.3704   10371100.17543   8074798.09942  23006148.4654   23006144.1704
        51.0004         43.0004
 03 12 18 17 42  0.0000000  0  7G31G29G28G27G 8G 7G13
  22201446.8484    1667333.64543   1294119.52742  22201450.0354   22201444.3284
        51.0004         45.0004
  23586737.0454  -10325767.47443  -7987652.59942  23586738.1964   23586733.2704
        49.0004         41.0004
  21202444.4324   -6063821.63044  -4714881.50542  21202446.5064   21202440.0834
        57.0004         50.0004
  20666936.6404    4642297.08043   3617627.35242  20666938.1474   20666933.0764
        56.0004         50.0004
  20363754.0874   -5153424.01344  -4010237.68842  20363754.2584   20363748.9544
        58.0004         51.0004
  23191636.4554  -10769467.91443  -8150211.04342  23191639.4194   23191635.3264
        48.0004         42.0004
  23026187.4724   10476416.66343   8156862.82742  23026189.6594   23026184.7754
        50.0004         43.0004
 03 12 18 17 42 30.0000000  0  7G31G29G28G27G 8G 7G13
  22215638.5584    1741908.06943   1352229.41542  22215639.2584   22215634.6574
        52.0004         44.0004
  23570253.8934  -10412381.93043  -8055144.37042  23570256.7914   23570251.4274
        48.0004         42.0004
  21196410.8914   -6095529.38644  -4739588.85842  21196412.5974   21196406.3794
        57.0004         50.0004
  20669796.8134    4657329.00043   3629340.51042  20669798.6404   20669793.5154
        56.0004         50.0004
  20358157.6964   -5182834.12044  -4033154.66242  20358157.8544   20358152.3814
        58.0004         51.0004
  23172569.6754  -10869665.21643  -8228286.81642  23172570.9344   23172568.5574
        48.0004         42.0004
  23046269.0714   10581945.65443   8239093.14242  23046272.6094   23046266.2154
        51.0004         43.0004
 03 12 18 17 43  0.0000000  0  7G31G29G28G27G 8G 7G13
  22229915.5484    1816937.56343   1410693.90342  22229917.7374   22229913.3594
        51.0004         44.0004
  23553826.3574  -10498713.68243  -8122415.85942  23553829.7064   23553823.8014
        48.0004         42.0004
  21190430.5114   -6126956.11044  -4764077.22442  21190432.3234   21190425.8564
        57.0004         50.0004
  20672713.5924    4672654.41244   3641282.35942  20672714.8294   20672709.8724
        57.0004         50.0004
  20352610.0104   -5211986.27444  -4055870.63042  20352610.3584   20352605.3614
        57.0004         51.0004
  23153532.1744  -10969706.53843  -8306241.04542  23153534.2734   23153530.9864
        49.0004         43.0004
  23066389.6644   10687678.68743   8321482.45042  23066391.3444   23066387.2984
        51.0004         43.0004
 03 12 18 17 43 30.0000000  0  7G31G29G28G27G 8G 7G13
  22244280.5564    1892426.37043   1469516.27942  22244282.1314   22244278.0494
        51.0004         44.0004
  23537453.8334  -10584753.42543  -8189459.79942  23537455.3274   23537453.4604
        48.0004         42.0004
  21184504.8424   -6158095.75844  -4788341.89942  21184506.5504   21184500.2934
        57.0004         50.0004
  20675687.1154    4688281.25343   3653459.08942  20675688.6394   20675683.2764
        56.0004         50.0004
  20347113.0034   -5240872.61244  -4078379.47442  20347113.4704   20347108.1004
        57.0004         51.0004
  23134526.2764  -11069582.60943  -8384066.50942  23134528.6964   23134525.7754
        49.0004         43.0004
  23086549.0244   10793619.37543   8404033.57542  23086552.7294   23086546.2164
        50.0004         43.0004
 03 12 18 17 44  0.0000000  0  7G31G29G28G27G 8G 7G13
  22258733.1744    1968370.36243   1528693.36342  22258733.9884   22258729.9244
        51.0004         44.0004
  23521135.7464  -10670500.16343  -8256275.40842  23521137.7574   23521132.9474
        48.0004         42.0004
  21178633.3404   -6188950.31344  -4812384.41942  21178634.9544   21178629.0354
        57.0004         50.0004
  20678718.2484    4704208.93544   3665870.24342  20678719.4924   20678714.4144
        57.0004         50.0004
  20341666.9104   -5269492.85744  -4100680.97342  20341667.1674   20341661.8844
        58.0004         51.0004
  23115552.6354  -11169292.65643  -8461762.60642  23115553.1924   23115552.4114
        49.0004         43.0004
  23106747.5174   10899763.54543   8486743.23742  23106749.7774   23106745.2674
        50.0004         43.0004
 03 12 18 17 44 30.0000000  0  7G31G29G28G27G 8G 7G13
  22273270.2094    2044764.96443   1588221.56442  22273272.2214   22273267.9354
        51.0004         44.0004
  23504874.9164  -10755953.15043  -8322862.14142  23504877.5814   23504872.6974
        48.0004         42.0004
  21172815.7534   -6219522.02144  -4836206.53442  21172817.5724   21172811.2534
        57.0004         50.0004
  20681806.0644    4720436.52844   3678515.09142  20681807.7454   20681802.3994
        57.0004         50.0004
  20336271.2914   -5297847.87644  -4122775.80642  20336271.4644   20336266.1294
        57.0004         51.0004
  23096610.1184  -11268836.20743  -8539328.96742  23096612.5544   23096606.3584
        49.0004         42.0004
  23126984.0274   11006107.19843   8569608.35342  23126986.9014   23126982.4604
        50.0004         43.0004
 03 12 18 17 45  0.0000000  0  7G31G29G28G27G 8G 7G13
  22287893.2714    2121609.47543   1648100.34242  22287895.5714   22287890.5734
        51.0004         44.0004
  23488670.4474  -10841108.01143  -8389216.56542  23488671.8024   23488668.3994
        48.0004         42.0004
  21167052.1214   -6249809.94444  -4859807.52242  21167054.0634   21167047.7404
        57.0004         50.0004
  20684951.9214    4736967.15643   3691396.06842  20684953.4694   20684948.4194
        56.0004         50.0004
  20330926.3324   -5325934.34744  -4144661.37842  20330926.6914   20330921.7884
        57.0004         51.0004
  23077700.0824  -11368208.88343  -8616762.17542  23077701.8634   23077698.1864
        49.0004         42.0004
  23147258.4594   11112649.28943   8652628.09342  23147261.4354   23147257.2094
        50.0004         42.0004
 03 12 18 17 45 30.0000000  0  7G31G29G28G27G 8G 7G13
  22302602.2254    2198901.61943   1708327.94442  22302603.0424   22302598.4964
        52.0004         44.0004
  23472523.4724  -10925962.08643  -8455336.59942  23472524.9684   23472522.3934
        49.0004         42.0004
  21161342.5264   -6279814.28244  -4883187.52942  21161344.2644   21161338.2244
        57.0004         50.0004
  20688155.2054    4753802.11343   3704514.17742  20688156.9834   20688151.5474
        56.0004         50.0004
  20325633.2974   -5353750.53244  -4166336.34142  20325633.5324   20325628.2074
        57.0004         51.0004
  23058822.9314  -11467408.12243  -8694060.24342  23058825.3304   23058821.1964
        49.0004         42.0004
  23167570.5284   11219387.67843   8735800.79642  23167572.9174   23167568.2464
        50.0004         42.0004
 03 12 18 17 46  0.0000000  0  7G31G29G28G27G 8G 7G13
  22317393.7634    2276637.95143   1768901.64442  22317397.0204   22317391.7884
        52.0004         44.0004
  23456433.7164  -11010513.31943  -8521220.65842  23456435.6694   23456431.7564
        48.0004         42.0004
  21155686.4504   -6309536.29344  -4906347.54342  21155688.3404   21155682.4434
        57.0004         50.0004
  20691416.8374    4770941.45743   3717869.48142  20691418.4274   20691413.2044
        56.0004         50.0004
  20320391.6064   -5381295.92844  -4187800.29642  20320391.8104   20320386.5084
        57.0004         51.0004
  23039979.1104  -11566432.26443  -8771221.88442  23039980.0864   23039976.3714
        49.0004         42.0004
  23187918.8834   11326319.17943   8819123.96342  23187922.3534   23187916.8154
        50.0004         42.0004
 03 12 18 17 46 30.0000000  0  7G31G29G28G27G 8G 7G13
  22332272.1864    2354812.18843   1829816.59242  22332271.4214   22332267.5714
        53.0004         44.0004
  23440401.7584  -11094762.92843  -8586869.68942  23440403.7244   23440400.9874
        49.0004         42.0004
  21150083.5714   -6338980.32344  -4929290.95142  21150085.2154   21150079.3464
        57.0004         50.0004
  20694735.8834    4788382.64743   3731459.98542  20694737.4624   20694732.6514
        56.0004         50.0004
  20315201.1604   -5408572.72944  -4209054.95942  20315201.1214   20315195.9074
        57.0004         51.0004
  23021168.6584  -11665282.58743  -8848248.06142  23021170.1744   23021166.3204
        49.0004         42.0004
  23208302.9644   11433437.39743   8902592.64042  23208306.0584   23208299.1024
        51.0004         42.0004
 03 12 18 17 47  0.0000000  0  7G31G29G28G27G 8G 7G13
  22347229.5744    2433427.77543   1891075.43942  22347232.0084   22347226.4814
        50.0004         44.0004
  23424428.8924  -11178702.39943  -8652277.05442  23424429.8454   23424425.6784
        48.0004         42.0004
  21144534.3784   -6368140.99944  -4952013.56142  21144536.1034   21144530.2834
        57.0004         50.0004
  20698113.5714    4806132.70543   3745291.16642  20698115.3854   20698110.2204
        56.0004         50.0004
  20310062.8694   -5435573.34944  -4230094.41542  20310063.0114   20310057.8664
        58.0004         51.0004
  23002392.2404  -11763950.78543  -8925132.30142  23002394.3694   23002391.1184
        49.0004         42.0004
  23228723.0364   11540746.01943   8986209.67442  23228725.1194   23228720.6624
        50.0004         42.0004
 03 12 18 17 47 30.0000000  0  7G31G29G28G27G 8G 7G13
  22362273.3194    2512477.47443   1952672.54942  22362274.8084   22362270.4544
        51.0004         44.0004
  23408513.5644  -11262333.51243  -8717444.12742  23408516.0274   23408511.3064
        48.0004         42.0004
  21139038.4494   -6397023.12344  -4974519.12242  21139040.2104   21139034.0464
        57.0004         50.0004
  20701549.8164    4824188.22344   3759360.36542  20701551.1024   20701546.2374
        57.0004         50.0004
  20304976.7724   -5462301.07844  -4250921.23342  20304976.9304   20304971.8194
        58.0004         51.0004
  22983650.5284  -11862438.84143  -9001876.19442  22983653.1364   22983648.2204
        49.0004         42.0004
  23249178.0734   11648237.83243   9069969.44042  23249180.4064   23249176.1804
        50.0004         42.0004
 03 12 18 17 48  0.0000000  0  7G31G29G28G27G 8G 7G13
  22377396.8394    2591955.07843   2014603.07242  22377399.9464   22377395.4084
        51.0004         44.0004
  23392657.9284  -11345657.40543  -8782371.82342  23392660.6724   23392655.2124
        49.0004         42.0004
  21133594.3964   -6425630.78344  -4996810.81042  21133596.1994   21133590.3154
        57.0004         50.0004
  20705043.1414    4842546.70143   3773665.64642  20705044.9864   20705039.5644
        56.0004         50.0004
  20299942.5284   -5488757.94144  -4271536.99042  20299942.5344   20299937.5044
        58.0004         51.0004
  22964942.9984  -11960747.86743  -9078480.57942  22964944.3474   22964942.4644
        50.0004         42.0004
  23269666.7794   11755906.97843   9153867.38942  23269671.2774   23269664.5854
        50.0004         42.0004
 03 12 18 17 48 30.0000000  0  7G31G29G28G27G 8G 7G13
  22392605.9494    2671871.18543   2076875.31042  22392606.1784   22392602.9414
        51.0004         44.0004
  23376863.8154  -11428658.31943  -8847047.85742  23376864.4164   23376860.4514
        49.0004         42.0004
  21128205.3624   -6453951.48144  -5018878.89642  21128207.1504   21128200.8794
        57.0004         50.0004
  20708596.7884    4861222.18943   3788217.94942  20708598.5694   20708593.5154
        56.0004         50.0004
  20294962.2124   -5514929.40144  -4291930.35042  20294962.3074   20294957.1734
        58.0004         51.0004
  22946272.2554  -12058862.50943  -9154933.51342  22946273.7434   22946270.2814
        50.0004         43.0004
  23290191.4184   11863763.95843   9237911.70842  23290193.4224   23290188.9484
        49.0004         42.0004
 03 12 18 17 49  0.0000000  0  7G31G29G28G27G 8G 7G13
  22407891.8404    2752212.53643   2139478.89342  22407894.5784   22407891.2004
        50.0004         44.0004
  23361129.1764  -11511344.28343  -8911478.46342  23361130.5474   23361126.2844
        49.0004         43.0004
  21122868.5514   -6481996.42844  -5040732.10542  21122870.5184   21122864.2294
        57.0004         50.0004
  20712209.2114    4880205.06343   3803009.76942  20712210.4744   20712205.7874
        56.0004         50.0004
  20290034.4584   -5540824.66244  -4312108.49042  20290034.7004   20290029.4184
        58.0004         51.0004
  22927637.3134  -12156790.92543  -9231241.32042  22927637.7894   22927636.5374
        49.0004         43.0004
  23310749.2474   11971795.45843   9322092.00642  23310752.1234   23310746.6734
        50.0004         42.0004
 03 12 18 17 49 30.0000000  0  7G31G29G28G27G 8G 7G13
  22423264.5134    2832982.46443   2202416.41742  22423266.0614   22423260.4684
        52.0004         44.0004
  23345455.9564  -11593706.84643  -8975657.06442  23345458.8314   23345454.7744
        49.0004         43.0004
  21117585.4454   -6509760.00544  -5062366.06542  21117587.2004   21117580.9534
        57.0004         50.0004
  20715881.1524    4899502.45843   3818046.66742  20715882.8504   20715877.8344
        56.0004         50.0004
  20285160.4304   -5566436.32744  -4332065.65042  20285161.0234   20285155.8274
        58.0004         51.0004
  22909039.0674  -12254524.64543  -9307397.41242  22909040.2924   22909037.8514
        50.0004         43.0004
  23331341.3004   12080005.32843   9406411.31242  23331343.4864   23331338.9714
        50.0004         42.0004
 03 12 18 17 50  0.0000000  0  7G31G29G28G27G 8G 7G13
  22438714.0574    2914172.95043   2265681.67842  22438716.0554   22438711.0634
        51.0004         44.0004
  23329843.9554  -11675748.54343  -9039585.65042  23329846.7804   23329842.2164
        49.0004         43.0004
  21112354.4004   -6537248.17044  -5083785.42642  21112355.9794   21112349.7544
        57.0004         50.0004
  20719612.5774    4919110.03643   3833325.25742  20719614.4164   20719609.0184
        56.0004         50.0004
  20280340.1784   -5591768.20444  -4351804.79642  20280340.2394   20280335.3694
        58.0004         51.0004
  22890477.5204  -12352066.67843  -9383404.14742  22890478.0794   22890475.9064
        50.0004         43.0004
  23351965.2294   12188385.31743   9490863.17142  23351967.4754   23351963.2354
        49.0004         42.0004
 03 12 18 17 50 30.0000000  0  7G31G29G28G27G 8G 7G13
  22454242.9954    2995782.86743   2329273.74242  22454245.4584   22454241.3094
        51.0004         44.0004
  23314293.9484  -11757465.55443  -9103261.23742  23314296.4134   23314290.4654
        49.0004         43.0004
  21107176.4084   -6564460.04844  -5104989.49442  21107178.0724   21107172.0304
        57.0004         50.0004
  20723403.4764    4939030.34943   3848847.54642  20723404.6624   20723400.0674
        56.0004         50.0004
  20275573.3384   -5616817.18444  -4371323.50142  20275573.6204   20275568.6344
        58.0004         51.0004
  22871953.0404  -12449413.04843  -9459258.42942  22871954.5804   22871950.8304
        50.0004         43.0004
  23372621.6904   12296934.93543   9575447.19842  23372623.1004   23372618.7094
        50.0004         42.0004
 03 12 18 17 51  0.0000000  0  7G31G29G28G27G 8G 7G13
  22469852.6154    3077809.60643   2393190.62342  22469854.6164   22469849.3484
        51.0004         44.0004
  23298805.7554  -11838855.03443  -9166681.59742  23298806.7084   23298802.0364
        50.0004         43.0004
  21102050.4654   -6591395.96344  -5125978.52242  21102052.4214   21102046.0564
        57.0004         50.0004
  20727253.6224    4959264.56043   3864614.42942  20727255.5954   20727250.4104
        56.0004         50.0004
  20270860.9194   -5641581.99444  -4390620.77442  20270861.1294   20270855.8944
        57.0004         51.0004
  22853466.5024  -12546561.35443  -9534958.37342  22853468.7624   22853464.8414
        50.0004         43.0004
  23393309.7784   12405651.33843   9660161.18842  23393313.0984   23393307.9054
        49.0004         42.0004
 03 12 18 17 51 30.0000000  0  7G31G29G28G27G 8G 7G13
  22485539.5384    3160251.90943   2457431.28742  22485543.7064   22485538.9774
        50.0004         44.0004
  23283380.7154  -11919913.10343  -9229843.72842  23283382.7714   23283377.7714
        50.0004         43.0004
  21096977.3934   -6618055.20244  -5146751.95742  21096979.2364   21096972.9534
        57.0004         50.0004
  20731164.2884    4979814.83043   3880627.59442  20731166.0214   20731160.9234
        56.0004         50.0004
  20266202.9204   -5666059.71944  -4409694.34542  20266203.1294   20266198.0224
        58.0004         51.0004
  22835018.0714  -12643507.85543  -9610501.07342  22835019.0424   22835016.8634
        50.0004         43.0004
  23414029.5364   12514533.29543   9745004.18142  23414031.1924   23414028.0154
        49.0004         42.0004
 03 12 18 17 52  0.0000000  0  7G31G29G28G27G 8G 7G13
  22501307.6544    3243104.91543   2521992.02442  22501308.6424   22501305.2264
        50.0004         43.0004
  23268019.1314  -12000639.29443  -9292747.25442  23268020.1314   23268015.9364
        50.0004         43.0004
  21091956.4194   -6644440.41144  -5167311.86542  21091958.1534   21091952.1354
        57.0004         50.0004
  20735135.1814    5000680.15343   3896886.25642  20735136.2684   20735131.6174
        56.0004         50.0004
  20261599.6654   -5690250.95744  -4428544.67342  20261599.8614   20261594.5944
        57.0004         51.0004
  22816608.2834  -12740252.16443  -9685886.21742  22816609.2924   22816606.2664
        50.0004         43.0004
  23434779.2964   12623576.42643   9829972.78242  23434782.4494   23434776.5244
        49.0004         42.0004
 03 12 18 17 52 30.0000000  0  7G31G29G28G27G 8G 7G13
  22517151.6904    3326367.94943   2586872.23942  22517153.0994   22517149.6104
        51.0004         43.0004
  23252722.0364  -12081029.15343  -9355388.70042  23252724.8524   23252717.8864
        50.0004         42.0004
  21086988.0664   -6670549.98744  -5187656.99142  21086989.7324   21086983.6234
        57.0004         50.0004
  20739166.4354    5021863.74343   3913392.92042  20739167.7904   20739162.6474
        56.0004         50.0004
  20257051.3174   -5714152.37644  -4447169.17142  20257051.6974   20257046.1794
        58.0004         51.0004
  22798237.7134  -12836790.06143  -9761110.53142  22798239.0824   22798235.4114
        50.0004         44.0004
  23455560.4794   12732780.16643   9915066.52342  23455562.8864   23455557.7154
        49.0004         42.0004
 03 12 18 17 53  0.0000000  0  7G31G29G28G27G 8G 7G13
  22533072.7304    3410035.05943   2652067.31142  22533074.6384   22533070.3764
        50.0004         43.0004
  23237488.4514  -12161083.38943  -9417768.62942  23237491.5344   23237484.5264
        50.0004         43.0004
  21082071.1874   -6696388.12344  -5207790.60242  21082072.8574   21082066.7494
        57.0004         50.0004
  20743257.5964    5043363.01143   3930145.56642  20743258.9774   20743253.8574
        56.0004         50.0004
  20252557.8514   -5737765.33144  -4465568.89342  20252558.2644   20252552.8884
        58.0004         51.0004
  22779906.3094  -12933122.28943  -9836174.59442  22779908.8214   22779904.1494
        50.0004         43.0004
  23476370.4364   12842138.78343  10000280.92942  23476373.3514   23476367.5364
        49.0004         41.0004
 03 12 18 17 53 30.0000000  0  7G31G29G28G27G 8G 7G13
  22549072.1034    3494107.89743   2717578.54742  22549073.1474   22549068.5664
        50.0004         43.0004
  23222319.1204  -12240795.05543  -9479881.61042  23222321.0044   23222316.4924
        49.0004         43.0004
  21077206.7174   -6721951.03344  -5227709.74842  21077208.4934   21077202.3364
        57.0004         50.0004
  20747409.5814    5065183.26343   3947148.32542  20747411.0874   20747406.1014
        56.0004         50.0004
  20248120.3134   -5761084.81344  -4483739.93542  20248120.7134   20248115.3174
        58.0004         51.0004
  22761614.8484  -13029242.31343  -9911073.29642  22761617.3744   22761614.0544
        50.0004         43.0004
  23497210.5644   12951653.97643  10085617.36942  23497211.8004   23497208.6124
        49.0004         41.0004
 03 12 18 17 54  0.0000000  0  7G31G29G28G27G 8G 7G13
  22565147.2314    3578579.28243   2783400.34742  22565147.3044   22565143.6224
        50.0004         43.0004
  23207215.6524  -12320166.05043  -9541729.13342  23207216.9734   23207213.1204
        49.0004         43.0004
  21072393.6384   -6747243.49444  -5247418.15342  21072395.4214   21072389.3234
        57.0004         50.0004
  20751622.7114    5087321.30743   3964398.71942  20751623.9734   20751619.2044
        56.0004         50.0004
  20243738.1174   -5784113.29144  -4501684.22042  20243738.3904   20243733.2004
        58.0004         51.0004
  22743364.1684  -13125152.06143  -9985808.16342  22743365.1894   22743361.4234
        50.0004         43.0004
  23518079.0964   13061318.86543  10171070.43142  23518082.3204   23518078.1214
        48.0004         41.0004
 03 12 18 17 54 30.0000000  0  8G31G29G28G27G 8G11G 7G13
  22581295.7554    3663449.02843   2849532.52442  22581298.9474   22581295.7754
        50.0004         44.0004
  23192177.0014  -12399191.47443  -9603307.38942  23192178.6164   23192174.7674
        49.0004         43.0004
  21067632.3514   -6772263.68744  -5266914.41142  21067634.2054   21067628.2004
        57.0004         50.0004
  20755896.4724    5109780.26843   3981899.16942  20755897.7904   20755892.5994
        56.0004         50.0004
  20239412.1994   -5806846.83444  -4519398.68742  20239412.4604   20239407.3654
        58.0004         51.0004
  24093539.8944   -7899165.64953  -6144271.17352  24093543.2204   24093537.6384
        46.0004         39.0004
  22725153.6884  -13220846.74943 -10060375.45242  22725156.0074   22725153.3604
        50.0004         44.0004
  23538976.3114   13171133.19743  10256639.95742  23538980.1264   23538975.7784
        48.0004         41.0004
 03 12 18 17 55  0.0000000  0  8G31G29G28G27G 8G11G 7G13
  22597521.7734    3748714.04643   2915972.71942  22597523.9364   22597519.9074
        51.0004         44.0004
  23177204.9484  -12477868.82843  -9664614.42042  23177207.1914   23177204.1484
        49.0004         43.0004
  21062922.8904   -6797012.58044  -5286199.26842  21062924.4954   21062918.6254
        57.0004         50.0004
  20760231.2784    5132560.93943   3999650.30642  20760232.9134   20760227.9384
        56.0004         50.0004
  20235142.4274   -5829284.36844  -4536882.49542  20235142.5934   20235137.5714
        58.0004         51.0004
  24083621.9164   -7951277.50643  -6184877.70642  24083624.2574   24083621.3524
        46.0004         39.0004
  22706985.5534  -13316324.33343 -10134773.56942  22706987.3904   22706983.1634
        50.0004         44.0004
  23559901.1774   13281094.15843  10342323.73742  23559903.4814   23559898.8224
        48.0004         40.0004
 03 12 18 17 55 30.0000000  0  8G31G29G28G27G 8G11G 7G13
  22613823.656
        51.000
  23162300.4184  -12556194.95343  -9725647.75542  23162302.4574   23162297.5594
        50.0004         43.0004
  21058265.0734   -6821489.71844  -5305272.36442  21058266.6364   21058260.6834
        57.0004         50.0004
  20764628.0414    5155665.32343   4017653.68342  20764629.6274   20764624.6614
        56.0004         50.0004
  20230929.5144   -5851423.45544  -4554133.75042  20230929.7734   20230924.5694
        58.0004         51.0004
  24073753.3684   -8003141.32843  -6225290.97642  24073754.8404   24073750.3534
        45.0004         39.0004
  22688858.8094  -13411581.47543 -10208999.90842  22688860.7674   22688856.3664
        51.0004         44.0004
  23580853.8914   13391200.36443  10428120.70442  23580859.0264   23580849.2584
        48.0004         41.0004
 03 12 18 17 56  0.0000000  0  8G31G29G28G27G 8G11G 7G13
  22630197.2254    -848205.33353   -701882.63652  22630196.7354   22630193.3314
        51.0004         43.0004
  23147461.9274  -12634170.44943  -9786407.88642  23147464.1144   23147460.4814
        50.0004         43.0004
  21053658.2574   -6845699.08344  -5324136.80842  21053659.9544   21053653.9284
        57.0004         50.0004
  20769085.4734    5179091.05143   4035907.45442  20769087.3084   20769082.4314
        56.0004         50.0004
  20226773.0724   -5873265.96644  -4571153.90142  20226773.2134   20226768.1094
        58.0004         51.0004
  24063930.2264   -8054757.33043  -6265511.13942  24063933.3144   24063928.9654
        44.0004         39.0004
  22670773.6084  -13506619.14443 -10283055.23842  22670776.0144   22670771.7144
        51.0004         44.0004
  23601832.8484   13501445.98943  10514026.29842  23601835.6824   23601830.2864
        48.0004         40.0004
 03 12 18 17 56 30.0000000  0  8G31G29G28G27G 8G11G 7G13
  22646644.9864    -761772.51243   -634532.45742  22646645.7324   22646642.0344
        50.0004         43.0004
  23132691.9654  -12711790.77343  -9846891.25842  23132693.6324   23132689.6504
        50.0004         43.0004
  21049102.4414   -6869639.38744  -5342791.59842  21049104.0874   21049098.1434
        57.0004         50.0004
  20773605.4024    5202840.91843   4054413.80742  20773606.7524   20773602.1684
        56.0004         50.0004
  20222673.5344   -5894808.62144  -4587940.39742  20222673.7824   20222668.6274
        58.0004         51.0004
  24054157.8544   -8106121.15643  -6305534.80142  24054160.2914   24054156.9924
        46.0004         39.0004
  22652730.8824  -13601433.02643 -10356936.19042  22652731.9304   22652728.7584
        51.0004         44.0004
  23622838.7384   13611830.31743  10600039.97742  23622840.0234   23622835.8544
        48.0004         41.0004
 03 12 18 17 57  0.0000000  0  8G31G29G28G27G 8G11G 7G13
  22663164.4134    -674955.32343   -566882.77942  22663166.3734   22663163.1654
        50.0004         43.0004
  23117988.8814  -12789053.21843  -9907095.76542  23117990.2714   23117986.6334
        49.0004         43.0004
  21044598.0634   -6893310.60744  -5361236.71042  21044599.7884   21044593.6434
        57.0004         50.0004
  20778186.7264    5226916.42543   4073173.90342  20778188.5074   20778183.4044
        56.0004         50.0004
  20218631.7484   -5916049.14844  -4604491.46442  20218631.8014   20218626.6664
        58.0004         51.0004
  24044430.0864   -8157229.76543  -6345359.59142  24044432.0664   24044430.7754
        44.0004         39.0004
  22634731.6704  -13696020.33043 -10430640.59442  22634733.3114   22634729.2724
        51.0004         44.0004
  23643869.8874   13722351.21843  10686160.07742  23643871.7574   23643866.9044
        48.0004         40.0004
 03 12 18 17 57 30.0000000  0  8G31G29G28G27G 8G11G 7G13
  22679759.3784    -587757.79843   -498936.71342  22679762.4764   22679754.8964
        51.0004         43.0004
  23103355.0544  -12865956.52043  -9967020.41342  23103357.0524   23103352.0174
        50.0004         43.0004
  21040144.6474   -6916714.89944  -5379473.82642  21040145.9454   21040139.9244
        57.0004         50.0004
  20782829.9424    5251317.01143   4092187.30742  20782831.8094   20782826.6074
        56.0004         50.0004
  20214647.1964   -5936987.85944  -4620807.35142  20214647.2694   20214642.2354
        58.0004         51.0004
  24034753.6294   -8208081.51543  -6384984.21942  24034755.7684   24034752.3014
        45.0004         39.0004
  22616775.3224  -13790380.16343 -10504167.73642  22616778.1204   22616773.3134
        51.0004         44.0004
  23664926.6184   13833005.02843  10772383.74342  23664930.2524   23664923.4244
        48.0004         40.0004
 03 12 18 17 58  0.0000000  0  8G31G29G28G27G 8G11G 7G13
  22696421.4554    -500182.49943   -430696.30242  22696423.5494   22696419.0474
        49.0004         43.0004
  23088789.5894  -12942497.90543 -10026663.04442  23088791.4994   23088786.3754
        50.0004         43.0004
  21035741.5684   -6939852.55344  -5397503.17642  21035743.3604   21035737.2634
        57.0004         50.0004
  20787535.4564    5276043.84543   4111454.93942  20787536.7134   20787532.0974
        56.0004         50.0004
  20210720.5294   -5957622.92244  -4636886.62442  20210720.8464   20210715.2894
        58.0004         51.0004
  24025126.8904   -8258673.34443  -6424406.33142  24025129.2404   24025125.9554
        45.0004         39.0004
  22598863.0234  -13884509.89743 -10577515.58042  22598864.8314   22598860.8264
        51.0004         44.0004
  23686008.2554   13943789.14743  10858708.94042  23686011.2864   23686006.3094
        48.0004         40.0004
 03 12 18 17 58 30.0000000  0  8G31G29G28G27G 8G11G 7G13
  22713161.5664    -412231.25943   -362162.93742  22713162.1184   22713158.3254
        51.0004         43.0004
  23074293.6594  -13018674.20143 -10086021.19842  23074296.2534   23074291.2834
        50.0004         43.0004
  21031389.3014   -6962723.18544  -5415324.45442  21031391.1124   21031384.8564
        57.0004         50.0004
  20792303.1534    5301098.78143   4130978.23742  20792304.5504   20792299.6904
        56.0004         50.0004
  20206852.0364   -5977951.79644  -4652727.30442  20206852.3854   20206847.1274
        58.0004         51.0004
  24015551.0664   -8309001.60143  -6463623.07042  24015552.5794   24015547.6044
        46.0004         39.0004
  22580995.1454  -13978406.27943 -10650681.59642  22580997.6364   22580993.2314
        51.0004         44.0004
  23707114.6024   14054702.15043  10945134.57242  23707116.4324   23707113.4624
        48.0004         40.0004
 03 12 18 17 59  0.0000000  0  8G31G29G28G27G 8G11G 7G13
  22729967.1354    -323907.30443   -293339.14042  22729968.2474   22729964.3014
        50.0004         43.0004
  23059867.5314  -13094482.90743 -10145092.89942  23059868.8134   23059864.8494
        50.0004         44.0004
  21027087.8744   -6985328.02044  -5432938.62242  21027089.3084   21027083.1884
        57.0004         50.0004
  20797133.3394    5326482.27243   4150757.55542  20797135.2224   20797130.2714
        56.0004         50.0004
  20203042.1734   -5997973.52744  -4668328.65142  20203042.0914   20203037.2114
        58.0004         51.0004
  24006023.5914   -8359064.32343  -6502632.86542  24006024.0624   24006019.6454
        46.0004         39.0004
  22563172.0044  -14072067.50843 -10723664.37642  22563173.9894   22563169.6864
        51.0004         44.0004
  23728244.5064   14165741.08643  11031658.32942  23728245.2024   23728244.6414
        48.0004         41.0004
 03 12 18 17 59 30.0000000  0  8G31G29G28G27G 8G11G 7G13
  22746843.9634    -235213.86043   -224227.46042  22746847.5734   22746843.5384
        50.0004         43.0004
  23045511.7644  -13169922.43143 -10203876.94542  23045514.5184   23045508.6304
        50.0004         43.0004
  21022836.8124   -7007668.23244  -5450346.58542  21022838.3404   21022832.1134
        57.0004         50.0004
  20802026.7024    5352194.62443   4170793.12842  20802027.8344   20802023.2434
        56.0004         50.0004
  20199290.4624   -6017687.47344  -4683690.16642  20199290.6544   20199285.7934
        57.0004         51.0004
  23996546.8824   -8408859.13843  -6541433.96542  23996549.3624   23996545.5754
        46.0004         39.0004
  22545394.0464  -14165491.79143 -10796462.52842  22545395.9014   22545392.0354
        51.0004         44.0004
  23749397.6934   14276902.92843  11118277.85642  23749401.7504   23749398.3604
        47.0004         40.0004
 03 12 18 18  0  0.0000000  0  8G31G29G28G27G 8G11G 7G13
  22763793.8414    -146155.47743   -154831.36542  22763794.1204   22763791.7814
        50.0004         43.0004
  23031226.2134  -13244991.98143 -10262372.68542  23031228.8084   23031224.2974
        50.0004         43.0004
  21018635.3034   -7029745.93644  -5467550.00442  21018637.1634   21018630.9004
        57.0004         50.0004
  20806981.7134    5378235.09843   4191084.37042  20806983.2224   20806978.3834
        56.0004         49.0004
  20195597.6384   -6037093.37644  -4698811.64742  20195597.8644   20195592.7584
        58.0004         51.0004
  23987123.7214   -8458385.14343  -6580025.56042  23987125.5454   23987120.5784
        47.0004         39.0004
  22527661.3564  -14258678.58943 -10869075.61842  22527662.1354   22527659.3504
        51.0004         44.0004
  23770574.2244   14388183.28243  11204989.74042  23770576.0004   23770573.1844
        48.0004         40.0004
 03 12 18 18  0 30.0000000  0  8G31G29G28G27G 8G11G 7G13
  22780809.3844     -56729.25943    -85148.68742  22780810.8534   22780808.9484
        50.0004         43.0004
  23017013.7034  -13319683.31243 -10320573.71842  23017015.6074   23017009.9944
        50.0004         44.0004
  21014485.0684   -7051556.10944  -5484544.95742  21014486.8724   21014480.6344
        57.0004         50.0004
  20812001.0424    5404610.13643   4211636.31142  20812002.1574   20811997.5124
        56.0004         49.0004
  20191964.8284   -6056184.45544  -4713687.81342  20191965.0734   20191959.9034
        58.0004         51.0004
  23977749.8304   -8507634.12243  -6618401.30142  23977753.2674   23977750.9124
        47.0004         39.0004
  22509974.8284  -14351619.98943 -10941497.49242  22509976.7184   22509973.5194
        51.0004         44.0004
  23791773.2514   14499585.34243  11291796.45542  23791775.8434   23791770.8794
        48.0004         40.0004
 03 12 18 18  1  0.0000000  0  8G31G29G28G27G 8G11G 7G13
  22797895.3314      33055.21743    -15186.83642  22797896.7554   22797894.1254
        49.0004         43.0004
  23002871.2824  -13394000.95343 -10378483.56742  23002874.3054   23002868.7944
        50.0004         44.0004
  21010384.2524   -7073106.28644  -5501337.31142  21010385.7914   21010379.5214
        57.0004         50.0004
  20817082.4624    5431314.00043   4232444.50142  20817083.7554   20817079.0984
        56.0004         49.0004
  20188390.7554   -6074966.26644  -4728322.98442  20188391.1324   20188385.6964
        58.0004         51.0004
  23968431.4684   -8556609.94243  -6656564.21242  23968434.0534   23968430.0914
        48.0004         39.0004
  22492335.0744  -14444320.20543 -11013731.42842  22492335.7314   22492332.9044
        52.0004         44.0004
  23812993.4764   14611099.82243  11378690.77742  23812995.7234   23812993.4534
        48.0004         40.0004
 03 12 18 18  1 30.0000000  0  9G26G31G29G28G27G 8G11G 7G13
  23833643.0974   -4289742.53653  -3082958.53152  23833646.8044   23833642.1504
        48.0004         41.0004
  22815048.0734     123196.54443     55053.07142  22815049.7694   22815046.1604
        49.0004         43.0004
  22988800.4924  -13467940.76843 -10436098.99342  22988803.4094   22988797.8104
        50.0004         44.0004
  21006333.1124   -7094395.65144  -5517926.43342  21006334.6814   21006328.3464
        57.0004         50.0004
  20822226.9554    5458348.89843   4253510.61742  20822228.7004   20822223.6864
        56.0004         49.0004
  20184876.0634   -6093435.47844  -4742714.57342  20184876.5144   20184871.0794
        58.0004         51.0004
  23959164.0154   -8605308.59543  -6694511.15042  23959166.6704   23959163.3374
        48.0004         39.0004
  22474741.0444  -14536775.87143 -11085774.81242  22474743.2354   22474739.3454
        51.0004         44.0004
  23834235.6334   14722725.62643  11465671.82342  23834237.7474   23834232.9504
        47.0004         40.0004
 03 12 18 18  2  0.0000000  0  9G26G31G29G28G27G 8G11G 7G13
  23816780.0584   -4378353.47343  -3152006.00042  23816783.4104   23816779.7614
        48.0004         41.0004
  22832268.9604     213695.65743    125571.77842  22832270.3514   22832267.1854
        48.0004         42.0004
  22974803.4754  -13541496.84543 -10493415.41142  22974805.3154   22974801.5684
        50.0004         44.0004
  21002331.8714   -7115421.10844  -5534309.91142  21002333.5304   21002327.3194
        57.0004         50.0004
  20827435.7104    5485719.29043   4274838.16942  20827437.1634   20827431.9694
        56.0004         49.0004
  20181422.1674   -6111587.08044  -4756858.67242  20181422.4144   20181417.1734
        58.0004         51.0004
  23949951.2244   -8653723.82243  -6732237.26742  23949955.8184   23949948.7934
        48.0004         39.0004
  22457195.0604  -14628980.83243 -11157622.83642  22457196.5924   22457193.2074
        52.0004         45.0004
  23855498.5824   14834463.77943  11552740.42042  23855500.3694   23855496.8374
        47.0004         40.0004
 03 12 18 18  2 30.0000000  0  9G26G31G29G28G27G 8G11G 7G13
  23799976.6334   -4466650.06343  -3220808.51442  23799979.2864   23799976.2184
        48.0004         41.0004
  22849559.1014     304547.84343    196365.60342  22849560.4464   22849556.2864
        49.0004         42.0004
  22960879.9084  -13614668.50543 -10550432.28342  22960882.7454   22960876.1494
        50.0004         44.0004
  20998380.7154   -7136185.32544  -5550489.82642  20998382.5114   20998376.1334
        57.0004         50.0004
  20832707.2504    5513424.05543   4296426.26142  20832709.0994   20832704.6074
        56.0004         49.0004
  20178028.4164   -6129421.56744  -4770755.67442  20178028.5414   20178023.4934
        58.0004         51.0004
  23940791.5444   -8701854.86943  -6769741.94342  23940795.7514   23940789.6994
        47.0004         39.0004
  22439696.9714  -14720934.82743 -11229275.30842  22439698.6724   22439695.2834
        52.0004         45.0004
  23876781.9094   14946309.77843  11639893.06142  23876784.2424   23876781.3154
        46.0004         40.0004
 03 12 18 18  3  0.0000000  0  9G26G31G29G28G27G 8G11G 7G13
  23783235.5884   -4554630.64643  -3289364.82442  23783237.4384   23783233.2254
        47.0004         41.0004
  22866912.7514     395749.06443    267431.40742  22866914.4824   22866910.9044
        48.0004         42.0004
  22947029.0854  -13687454.85643 -10607148.91342  22947030.5104   22947025.7864
        50.0004         44.0004
  20994478.7184   -7156690.11344  -5566467.59342  20994480.4014   20994474.3594
        57.0004         50.0004
  20838043.1164    5541462.82243   4318274.61642  20838044.7794   20838039.8014
        56.0004         49.0004
  20174694.9294   -6146938.93144  -4784405.56642  20174695.1954   20174689.6824
        58.0004         51.0004
  23931686.6804   -8749700.60143  -6807024.29942  23931688.9694   23931685.0854
        46.0004         39.0004
  22422246.7364  -14812636.82343 -11300731.41242  22422247.9834   22422245.0514
        52.0004         45.0004
  23898085.1234   15058259.94143  11727126.84542  23898088.2254   23898083.9614
        46.0004         39.0004
 03 12 18 18  3 30.0000000  0  9G26G31G29G28G27G 8G11G 7G13
  23766554.8634   -4642291.63443  -3357672.07642  23766556.9734   23766552.5994
        48.0004         40.0004
  22884335.7664     487297.50043    338767.75842  22884338.2834   22884332.7854
        50.0004         42.0004
  22933252.0494  -13759852.37043 -10663562.54542  22933254.5284   22933248.9784
        50.0004         44.0004
  20990626.3034   -7176935.22044  -5582243.01042  20990627.8564   20990621.8654
        57.0004         50.0004
  20843442.3544    5569837.55743   4340384.76442  20843444.6054   20843439.6014
        56.0004         49.0004
  20171422.2504   -6164136.61344  -4797806.36042  20171422.6154   20171417.2594
        58.0004         51.0004
  23922637.5274   -8797256.78143  -6844081.03542  23922638.3704   23922634.6664
        47.0004         39.0004
  22404844.5794  -14904083.66543 -11371988.70342  22404846.4044   22404842.5824
        52.0004         45.0004
  23919408.9364   15170312.84043  11814440.69542  23919412.3864   23919408.1514
        46.0004         40.0004
 03 12 18 18  4  0.0000000  0  9G26G31G29G28G27G 8G11G 7G13
  23749932.8264   -4729630.99443  -3425728.68742  23749935.2314   23749932.0154
        47.0004         40.0004
  22901822.4764     579189.72243    410372.02442  22901824.2224   22901818.8754
        50.0004         42.0004
  22919549.6084  -13831859.19843 -10719671.75642  22919550.4984   22919546.7464
        51.0004         44.0004
  20986822.8484   -7196921.91744  -5597817.06042  20986824.4464   20986818.3764
        57.0004         50.0004
  20848906.0524    5598548.25743   4362756.69942  20848907.4554   20848903.3664
        56.0004         49.0004
  20168210.5604   -6181013.98544  -4810957.56742  20168210.8014   20168205.6064
        58.0004         51.0004
  23913641.7864   -8844521.47543  -6880910.63642  23913645.0254   23913638.9154
        46.0004         38.0004
  22387491.9094  -14995273.61743 -11443045.81142  22387493.6064   22387489.6324
        52.0004         45.0004
  23940750.8064   15282464.95243  11901831.83842  23940753.5154   23940749.5854
        46.0004         39.0004
 03 12 18 18  4 30.0000000  0  9G26G31G29G28G27G 8G11G 7G13
  23733376.8894   -4816644.58543  -3493531.47342  23733377.3604   23733373.1214
        46.0004         40.0004
  22919372.7564     671424.19843    482242.96142  22919376.2374   22919369.6964
        49.0004         42.0004
  22905922.4364  -13903471.65243 -10775473.66142  22905924.9124   22905919.8244
        51.0004         44.0004
  20983068.9024   -7216649.47144  -5613189.17742  20983070.3894   20983064.2904
        57.0004         50.0004
  20854434.1744    5627597.00343   4385392.05242  20854435.4634   20854430.7774
        56.0004         49.0004
  20165060.5034   -6197567.83744  -4823856.68542  20165060.7284   20165055.3994
        57.0004         51.0004
  23904706.9654   -8891491.21143  -6917510.44442  23904707.3404   23904704.3274
        47.0004         39.0004
  22370188.7324  -15086203.15043 -11513900.00542  22370190.0054   22370187.3194
        52.0004         45.0004
  23962111.1944   15394715.04243  11989299.33242  23962114.4414   23962109.7754
        46.0004         39.0004
 03 12 18 18  5  0.0000000  0  9G26G31G29G28G27G 8G11G 7G13
  23716881.7104   -4903328.53843  -3561077.39142  23716883.0434   23716879.4524
        47.0004         40.0004
  22936989.6254     763999.31243    554379.32842  22936992.3104   22936984.7244
        49.0004         42.0004
  22892370.3014  -13974686.03543 -10830965.37942  22892372.7694   22892367.9154
        51.0004         44.0004
  20979364.0704   -7236117.43044  -5628359.00142  20979365.8424   20979359.6884
        57.0004         50.0004
  20860026.5504    5656985.96343   4408292.50142  20860028.3264   20860023.3594
        56.0004         49.0004
  20161972.3314   -6213795.72544  -4836501.80542  20161972.6834   20161967.4624
        58.0004         51.0004
  23895824.2014   -8938162.02843  -6953877.30242  23895825.8974   23895822.0344
        47.0004         39.0004
  22352935.6434  -15176868.89243 -11584548.64042  22352937.2414   22352933.0964
        52.0004         45.0004
  23983490.5014   15507062.19243  12076842.48242  23983492.1714   23983488.3224
        47.0004         39.0004
 03 12 18 18  5 30.0000000  0  9G26G31G29G28G27G 8G11G 7G13
  23700447.7704   -4989686.69643  -3628369.42742  23700450.8474   23700447.2604
        47.0004         40.0004
  22954668.0384     856905.88643    626773.97942  22954670.0344   22954667.3654
        48.0004         42.0004
  22878893.9764  -14045506.59543 -10886150.23042  22878896.6874   22878891.6264
        51.0004         44.0004
  20975707.6224   -7255332.80744  -5643332.01142  20975709.3484   20975703.2424
        57.0004         50.0004
  20865682.0724    5686709.43843   4431453.61342  20865684.1794   20865679.5774
        56.0004         49.0004
  20158945.4294   -6229702.82744  -4848896.96842  20158945.5554   20158940.4354
        58.0004         51.0004
  23886999.4964   -8984537.40843  -6990013.98842  23887001.2394   23886995.2284
        47.0004         39.0004
  22335731.7234  -15267275.00443 -11654994.95942  22335732.6674   22335729.6694
        52.0004         45.0004
  24004886.5824   15619497.26843  12164454.13842  24004889.6854   24004884.9864
        48.0004         40.0004
 03 12 18 18  6  0.0000000  0  9G26G31G29G28G27G 8G11G 7G13
  23684076.9174   -5075710.54043  -3695400.94442  23684079.9694   23684074.9914
        46.0004         40.0004
  22972412.8624     950146.74643    699429.06142  22972414.8164   22972412.1084
        49.0004         42.0004
  22865493.7244  -14115925.37843 -10941021.99442  22865495.3434   22865491.0004
        51.0004         44.0004
  20972100.0394   -7274290.55444  -5658104.26442  20972101.9474   20972095.4964
        57.0004         51.0004
  20871403.3504    5716773.89143   4454880.42642  20871405.2684   20871400.8104
        56.0004         49.0004
  20155980.8704   -6245281.80444  -4861036.44842  20155981.0774   20155975.7714
        58.0004         51.0004
  23878232.1234   -9030609.39643  -7025914.25342  23878234.8604   23878229.5284
        46.0004         39.0004
  22318578.7994  -15357413.59743 -11725232.83042  22318580.7244   22318577.6604
        52.0004         45.0004
  24026299.2874   15732023.39343  12252136.73142  24026301.9664   24026298.4834
        47.0004         39.0004
 03 12 18 18  6 30.0000000  0  9G26G31G29G28G27G 8G11G 7G13
  23667769.7574   -5161400.41143  -3762172.26842  23667770.8454   23667769.8494
        45.0004         39.0004
  22990218.9994    1043716.29643    772340.32642  22990220.5394   22990216.1644
        49.0004         42.0004
  22852169.7384  -14185942.52343 -10995580.80842  22852171.5794   22852167.6924
        51.0004         44.0004
  20968540.7064   -7292994.09744  -5672678.43242  20968542.4354   20968536.5064
        57.0004         51.0004
  20877189.0014    5747177.34843   4478571.39242  20877191.3954   20877186.2684
        56.0004         49.0004
  20153078.7154   -6260534.24344  -4872921.48442  20153078.5814   20153073.5394
        58.0004         51.0004
  23869521.5354   -9076378.05543  -7061578.16542  23869523.6284   23869521.9014
        48.0004         39.0004
  22301476.9674  -15447285.17243 -11795262.63042  22301477.9274   22301475.4384
        52.0004         45.0004
  24047729.0184   15844635.32843  12339886.20442  24047731.7924   24047727.2924
        47.0004         39.0004
 03 12 18 18  7  0.0000000  0  9G26G31G29G28G27G 8G11G 7G13
  23651530.6314   -5246752.22043  -3828680.14842  23651530.8594   23651527.4034
        45.0004         39.0004
  23008087.1834    1137612.96643    845506.45742  23008087.3024   23008085.7764
        49.0004         42.0004
  22838922.9544  -14255554.49943 -11049823.90442  22838925.2234   22838920.4144
        51.0004         44.0004
  20965030.2374   -7311442.90544  -5687054.10042  20965031.8694   20965025.6474
        57.0004         51.0004
  20883039.7134    5777921.75143   4502528.03242  20883041.8464   20883036.6464
        56.0004         49.0004
  20150238.7284   -6275457.12644  -4884549.72242  20150238.7504   20150233.6264
        58.0004         51.0004
  23860871.5444   -9121839.68543  -7097002.85342  23860873.9424   23860869.3784
        47.0004         39.0004
  22284426.2584  -15536886.46343 -11865081.81842  22284427.3104   22284424.1064
        52.0004         45.0004
  24069174.2104   15957331.62343  12427701.40242  24069176.6224   24069172.4554
        48.0004         39.0004
 03 12 18 18  7 30.0000000  0  9G26G31G29G28G27G 8G11G 7G13
  23635351.5524   -5331763.29043  -3894922.49142  23635353.3244   23635351.1304
        45.0004         39.0004
  23026016.0274    1231834.12443    918925.42542  23026017.5984   23026012.4974
        48.0004         42.0004
  22825753.5754  -14324758.90143 -11103749.41342  22825755.5934   22825751.3444
        50.0004         44.0004
  20961567.8184   -7329637.55144  -5701231.72042  20961569.5854   20961563.3854
        57.0004         51.0004
  20888955.2384    5809008.04743   4526751.08242  20888957.2684   20888952.3844
        56.0004         49.0004
  20147462.0654   -6290049.12644  -4895920.13442  20147462.3254   20147457.0184
        58.0004         51.0004
  23852277.9234   -9166991.55343  -7132186.15642  23852282.8374   23852276.2344
        46.0004         39.0004
  22267427.8624  -15626215.00943 -11934688.47642  22267429.3644   22267425.8784
        52.0004         45.0004
  24090635.4214   16070109.79543  12515580.40942  24090638.1434   24090633.4594
        47.0004         39.0004
 03 12 18 18  8  0.0000000  0  9G26G31G29G28G27G 8G11G 7G13
  23619240.2904   -5416432.87443  -3960898.76442  23619242.4844   23619238.3064
        46.0004         39.0004
  23044008.1274    1326374.79943    992593.37842  23044008.7964   23044004.5224
        50.0004         42.0004
  22812662.2764  -14393555.39243 -11157357.06242  22812663.9244   22812659.8034
        51.0004         44.0004
  20958153.1344   -7347581.02944  -5715213.63142  20958154.9954   20958149.1574
        57.0004         51.0004
  20894935.5364    5840434.89543   4551239.50142  20894937.3754   20894932.6794
        55.0004         49.0004
  20144748.1094   -6304310.75144  -4907033.11142  20144748.4524   20144743.2514
        58.0004         51.0004
  23843747.8024   -9211833.05243  -7167127.62142  23843749.1924   23843744.7624
        48.0004         40.0004
  22250481.1664  -15715270.66743 -12004082.48142  22250482.2384   22250479.0454
        52.0004         45.0004
  24112111.2164   16182965.56143  12603519.90442  24112111.8194   24112108.5384
        47.0004         39.0004
 03 12 18 18  8 30.0000000  0  9G26G31G29G28G27G 8G11G 7G13
  23603193.3224   -5500755.71443  -4026604.86442  23603195.5644   23603191.0014
        46.0004         39.0004
  23062057.7714    1421235.04043   1066510.33842  23062058.9064   23062057.6254
        49.0004         42.0004
  22799649.4744  -14461938.98743 -11210642.98142  22799650.8924   22799646.7234
        50.0004         44.0004
  20954786.9954   -7365270.77544  -5728997.83342  20954788.8074   20954782.5044
        57.0004         51.0004
  20900982.2634    5872205.89543   4575996.08442  20900983.4864   20900978.7224
        56.0004         49.0004
  20142097.8394   -6318237.97644  -4917885.51742  20142097.8764   20142092.8324
        58.0004         51.0004
  23835273.9814   -9256358.82443  -7201823.03542  23835276.3804   23835272.2134
        48.0004         40.0004
  22233587.2994  -15804048.53243 -12073260.03142  22233588.0274   22233585.1274
        53.0004         45.0004
  24133601.6344   16295898.96043  12691519.84842  24133603.6584   24133598.5864
        46.0004         39.0004
 03 12 18 18  9  0.0000000  0  9G26G31G29G28G27G 8G11G 7G13
  23587214.9814   -5584730.21943  -4092039.50942  23587219.0224   23587211.3704
        47.0004         39.0004
  23080169.7264    1516410.76043   1140673.14542  23080172.2884   23080166.8464
        50.0004         42.0004
  22786714.4884  -14529908.40843 -11263606.15542  22786716.8184   22786712.4984
        51.0004         44.0004
  20951468.5114   -7382708.84344  -5742585.93042  20951470.3424   20951464.4904
        57.0004         51.0004
  20907092.8574    5904320.35343   4601020.29642  20907094.6264   20907090.1594
        56.0004         49.0004
  20139511.3254   -6331830.36444  -4928477.01242  20139511.5174   20139506.2984
        58.0004         51.0004
  23826860.7254   -9300567.65543  -7236271.48642  23826864.0844   23826858.7014
        47.0004         40.0004
  22216746.6034  -15892547.64443 -12142220.37042  22216747.4724   22216744.6494
        52.0004         45.0004
  24155106.3694   16408906.31443  12779577.43042  24155107.4814   24155103.8834
        46.0004         39.0004
 03 12 18 18  9 30.0000000  0  9G26G31G29G28G27G 8G11G 7G13
  23571300.8194   -5668356.57743  -4157202.89042  23571303.2594   23571299.3274
        47.0004         40.0004
  23098340.6394    1611896.40643   1215077.42442  23098342.0464   23098337.4824
        50.0004         42.0004
  22773859.7814  -14597464.23043 -11316247.05942  22773861.8424   22773856.9584
        51.0004         44.0004
  20948197.5894   -7399898.65044  -5755980.57742  20948199.2764   20948193.1134
        57.0004         51.0004
  20913269.0054    5936776.41243   4626310.70042  20913270.8434   20913266.0644
        56.0004         49.0004
  20136988.3004   -6345089.41744  -4938808.76642  20136988.3244   20136983.2374
        58.0004         51.0004
  23818508.3644   -9344459.65343  -7270473.06442  23818511.6304   23818506.3204
        49.0004         40.0004
  22199958.3104  -15980768.68643 -12210964.01642  22199959.2004   22199956.6564
        52.0004         46.0004
  24176623.4594   16521982.38443  12867688.56542  24176625.0644   24176621.7454
        46.0004         39.0004
 03 12 18 18 10  0.0000000  0  9G26G31G29G28G27G 8G11G 7G13
  23555455.7304   -5751625.39443  -4222087.63742  23555458.4134   23555453.0224
        47.0004         40.0004
  23116569.0184    1707695.92843   1289726.30242  23116572.6334   23116571.7504
        48.0004         41.0004
  22761084.9274  -14664597.31643 -11368558.55242  22761086.6354   22761081.9134
        51.0004         44.0004
  20944974.8954   -7416834.17244  -5769177.08742  20944976.6194   20944970.3374
        57.0004         51.0004
  20919511.3314    5969581.53043   4651873.08642  20919513.3184   20919508.4944
        56.0004         49.0004
  20134530.3044   -6358006.78444  -4948874.27142  20134530.3904   20134525.3854
        58.0004         51.0004
  23810217.9344   -9388025.51543  -7304420.48342  23810220.8964   23810215.8034
        47.0004         40.0004
  22183225.1824  -16068702.40843 -12279483.78542  22183226.7304   22183222.3264
        52.0004         46.0004
  24198155.5464   16635131.35943  12955856.50942  24198158.7834   24198153.0324
        46.0004         39.0004
 03 12 18 18 10 30.0000000  0  9G26G31G29G28G27G 8G11G 7G13
  23539677.2484   -5834540.51143  -4286696.80042  23539678.8674   23539674.7304
        47.0004         41.0004
  23134857.6084    1803799.94943   1364612.45642  23134858.7404   23134856.3124
        48.0004         41.0004
  22748389.6334  -14731312.00643 -11420544.02742  22748391.6264   22748385.9954
        51.0004         44.0004
  20941799.1684   -7433522.43444  -5782180.93342  20941801.0244   20941794.9364
        57.0004         51.0004
  20925819.2454    6002729.80843   4677702.87542  20925821.2194   20925816.7264
        56.0004         49.0004
  20132136.2604   -6370587.81244  -4958677.69542  20132136.4054   20132130.9764
        58.0004         51.0004
  23801989.4684   -9431269.23643  -7338116.89142  23801992.4754   23801985.9034
        47.0004         40.0004
  22166545.6484  -16156353.52743 -12347783.33442  22166547.2814   22166543.7654
        53.0004         46.0004
  24219698.7194   16748344.27443  13044074.25642  24219701.6344   24219696.4984
        45.0004         38.0004
 03 12 18 18 11  0.0000000  0  9G26G31G29G28G27G 8G11G 7G13
  23523967.0614   -5917096.83843  -4351026.36442  23523969.8034   23523966.9314
        47.0004         41.0004
  23153202.3804    1900208.13243   1439735.60142  23153205.5204   23153201.8214
        47.0004         41.0004
  22735774.3704  -14797603.40343 -11472199.64842  22735776.1684   22735771.4524
        51.0004         44.0004
  20938670.9874   -7449961.83644  -5794990.86942  20938672.6134   20938666.4634
        57.0004         51.0004
  20932194.0404    6036224.34843   4703802.48242  20932195.3484   20932190.1864
        56.0004         49.0004
  20129806.9654   -6382828.42944  -4968215.86142  20129807.0594   20129801.8034
        58.0004         51.0004
  23793821.3844   -9474186.01443  -7371558.50742  23793824.2324   23793818.9114
        47.0004         40.0004
  22149921.1644  -16243717.27243 -12415858.95442  22149922.8504   22149918.8114
        53.0004         46.0004
  24241255.1134   16861620.86843  13132341.61642  24241258.5664   24241253.9094
        45.0004         39.0004
 03 12 18 18 11 30.0000000  0  8G26G31G29G28G27G 8G11G 7
  23508325.6724   -5999293.65743  -4415075.79742  23508328.4584   23508322.6964
        49.0004         41.0004
  23171605.5654    1996915.86543   1515092.18242  23171608.3984   23171607.2644
        47.0004         41.0004
  22723239.9994  -14863471.14843 -11523525.16242  22723243.0314   22723237.4374
        51.0004         44.0004
  20935589.6984   -7466154.83644  -5807608.80942  20935591.1674   20935585.1964
        57.0004         51.0004
  20938633.3284    6070064.22343   4730171.18342  20938634.8684   20938630.1584
        56.0004         49.0004
  20127542.3564   -6394729.10144  -4977489.13442  20127542.2414   20127537.2074
        58.0004         51.0004
  23785718.2394   -9516774.87343  -7404744.61242  23785721.3894   23785717.1424
        48.0004         41.0004
  22133351.0944  -16330793.37843 -12483710.43942  22133352.7634   22133349.1254
        53.0004         46.0004
 03 12 18 18 12  0.0000000  0  8G26G31G29G28G27G 8G11G 7
  23492753.0504   -6081126.58843  -4478841.69142  23492755.4644   23492750.3024
        48.0004         41.0004
  23190067.5294    2093921.94143   1590681.22342  23190068.3024   23190065.7834
        48.0004         41.0004
  22710787.1614  -14928911.34543 -11574517.52742  22710789.5004   22710784.3134
        51.0004         44.0004
  20932555.2664   -7482100.35944  -5820033.91042  20932556.9024   20932550.6884
        57.0004         51.0004
  20945138.9564    6104251.55743   4756810.62142  20945140.2764   20945135.6174
        56.0004         49.0004
  20125342.9644   -6406286.75744  -4986495.12242  20125343.1754   20125338.0784
        58.0004         51.0004
  23777676.3984   -9559031.79043  -7437672.04642  23777677.9304   23777676.0424
        48.0004         41.0004
  22116836.2734  -16417578.01743 -12551334.80642  22116838.0224   22116833.6904
        53.0004         46.0004
 03 12 18 18 12 30.0000000  0  8G26G31G29G28G27G 8G11G 7
  23477250.5664   -6162592.35443  -4542321.47242  23477252.3284   23477249.0064
        47.0004         41.0004
  23208584.1854    2191224.34343   1666501.16642  23208585.0654   23208582.4814
        49.0004         42.0004
  22698416.1864  -14993921.12743 -11625174.50342  22698418.5564   22698412.9754
        51.0004         44.0004
  20929568.0204   -7497798.38244  -5832266.15942  20929569.7624   20929563.3524
        57.0004         51.0004
  20951710.6524    6138787.83843   4783721.97042  20951712.3854   20951707.4654
        55.0004         49.0004
  20123209.0614   -6417499.41344  -4995232.27942  20123209.2694   20123204.2554
        58.0004         51.0004
  23769698.2334   -9600953.68743  -7470338.41342  23769700.6634   23769697.6614
        48.0004         41.0004
  22100377.6054  -16504068.44143 -12618729.90942  22100378.8254   22100375.7664
        53.0004         46.0004
 03 12 18 18 13  0.0000000  0  8G26G31G29G28G27G 8G11G 7
  23461817.8624   -6243689.70343  -4605514.16742  23461819.0694   23461816.6314
        48.0004         41.0004
  23227154.0374    2288818.80343   1742548.67442  23227155.8414   23227153.4304
        48.0004         41.0004
  22686127.5354  -15058499.50243 -11675495.32042  22686129.5764   22686124.1194
        51.0004         45.0004
  20926627.4974   -7513251.08244  -5844307.25542  20926629.1844   20926623.0484
        57.0004         51.0004
  20958348.6544    6173672.26643   4810904.59542  20958350.7074   20958346.1684
        55.0004         49.0004
  20121141.2134   -6428366.87744  -5003700.45742  20121141.3274   20121136.3564
        58.0004         51.0004
  23761784.7844   -9642539.44643  -7502742.83442  23761787.4194   23761782.6304
        48.0004         40.0004
  22083975.4134  -16590263.79243 -12685895.07742  22083976.7624   22083973.5324
        53.0004         46.0004
 03 12 18 18 13 30.0000000  0  8G26G31G29G28G27G 8G11G 7
  23446457.2174   -6324416.32743  -4668418.00142  23446460.3644   23446453.8314
        47.0004         41.0004
  23245780.4924    2386702.21743   1818821.35242  23245784.9374   23245780.2934
        48.0004         42.0004
  22673921.2264  -15122644.41843 -11725478.37042  22673921.9144   22673918.4174
        51.0004         45.0004
  20923733.3854   -7528459.42144  -5856157.94042  20923735.2164   20923729.1174
        57.0004         51.0004
  20965053.7944    6208905.33843   4838358.89042  20965055.5684   20965050.8134
        56.0004         49.0004
  20119139.1554   -6438888.11044  -5011898.84242  20119139.2554   20119134.0274
        58.0004         51.0004
  23753936.6174   -9683786.77943  -7534883.56542  23753939.1944   23753934.4424
        48.0004         41.0004
  22067629.1424  -16676162.35743 -12752828.98542  22067631.2584   22067627.0684
        53.0004         46.0004
 03 12 18 18 14  0.0000000  0  8G26G31G29G28G27G 8G11G 7
  23431166.9504   -6404769.15543  -4731030.56542  23431169.8354   23431163.7904
        48.0004         42.0004
  23264464.0284    2484872.34243   1895317.48442  23264463.3654   23264461.6484
        48.0004         42.0004
  22661797.5894  -15186353.21043 -11775121.58942  22661799.7904   22661794.5444
        52.0004         45.0004
  20920886.1124   -7543423.33744  -5867818.17342  20920887.7474   20920881.6664
        57.0004         51.0004
  20971825.1744    6244488.24743   4866085.78942  20971826.7744   20971821.9114
        55.0004         49.0004
  20117203.3834   -6449061.05344  -5019825.83042  20117203.6044   20117198.4094
        58.0004         51.0004
  23746152.2574   -9724692.76643  -7566758.30042  23746151.4674   23746149.8874
        48.0004         41.0004
  22051340.4704  -16761761.51243 -12819529.57842  22051341.4354   22051338.2054
        53.0004         46.0004
 03 12 18 18 14 30.0000000  0  8G26G31G29G28G27G 8G11G 7
  23415946.8204   -6484746.14543  -4793350.25342  23415947.1104   23415945.3784
        48.0004         42.0004
  23283197.5144    2583325.68443   1972034.25542  23283199.0204   23283197.2524
        48.0004         41.0004
  22649757.7304  -15249624.48643 -11824423.88542  22649760.2524   22649754.8664
        52.0004         45.0004
  20918084.5894   -7558144.26944  -5879289.06642  20918086.3294   20918080.3374
        57.0004         51.0004
  20978662.9754    6280420.79443   4894085.13942  20978664.4544   20978660.0314
        55.0004         49.0004
  20115333.9434   -6458884.92744  -5027480.81242  20115334.0514   20115328.7994
        58.0004         51.0004
  23738433.6894   -9765255.54243  -7598365.59442  23738435.1674   23738431.6274
        48.0004         41.0004
  22035108.3064  -16847059.75143 -12885995.68742  22035110.3394   22035106.5704
        53.0004         46.0004
 03 12 18 18 15  0.0000000  0  8G26G31G29G28G27G 8G11G 7
  23400799.9714   -6564343.76443  -4855374.35042  23400801.6824   23400797.4614
        48.0004         42.0004
  23301985.8464    2682060.56043   2048970.42542  23301987.2724   23301983.8254
        47.0004         41.0004
  22637802.0534  -15312454.69143 -11873382.49542  22637804.4374   22637798.8864
        52.0004         45.0004
  20915329.5764   -7572621.88844  -5890570.36142  20915331.4504   20915325.3754
        57.0004         51.0004
  20985567.2934    6316704.74543   4922358.30142  20985568.8994   20985564.5134
        55.0004         49.0004
  20113531.1634   -6468357.57844  -5034862.11342  20113531.5724   20113526.4924
        58.0004         51.0004
  23730780.5704   -9805471.82143  -7629702.88442  23730783.9444   23730779.8654
        49.0004         41.0004
  22018934.5504  -16932053.96843 -12952224.89142  22018936.3594   22018932.7614
        53.0004         46.0004
 03 12 18 18 15 30.0000000  0  8G26G31G29G28G27G 8G11G 7
  23385725.3984   -6643560.31543  -4917101.51142  23385728.6324   23385721.7654
        47.0004         41.0004
  23320829.2024    2781073.15243   2126122.98842  23320830.6674   23320827.1994
        49.0004         41.0004
  22625929.5654  -15374842.92243 -11921996.70942  22625931.4184   22625927.2794
        52.0004         45.0004
  20912620.7854   -7586857.68544  -5901663.22042  20912622.4364   20912616.2244
        57.0004         51.0004
  20992538.6714    6353339.71043   4950904.97042  20992540.8714   20992535.7194
        55.0004         49.0004
  20111795.8074   -6477478.22644  -5041969.12642  20111795.8844   20111790.9164
        58.0004         51.0004
  23723194.7564   -9845340.07943  -7660768.98742  23723197.8584   23723191.3234
        49.0004         41.0004
  22002818.7594  -17016743.07443 -13018216.34042  22002820.1354   22002816.5194
        53.0004         46.0004
 03 12 18 18 16  0.0000000  0  8G26G31G29G28G27G 8G11G 7
  23370723.4364   -6722393.37243  -4978529.84642  23370725.5824   23370721.7484
        46.0004         41.0004
  23339722.1954    2880360.52543   2203489.69942  23339724.1114   23339719.1594
        47.0004         40.0004
  22614142.1104  -15436786.90543 -11970264.74942  22614144.1384   22614138.7384
        52.0004         45.0004
  20909957.5434   -7600852.48744  -5912568.29542  20909959.3484   20909952.9744
        57.0004         51.0004
  20999577.2324    6390326.10143   4979725.47742  20999578.9574   20999574.0984
        55.0004         49.0004
  20110127.3604   -6486245.76244  -5048800.98342  20110127.6494   20110122.5394
        58.0004         51.0004
  23715672.6114   -9884857.78043  -7691561.93842  23715675.5104   23715672.7944
        48.0004         41.0004
  21986761.0264  -17101125.02243 -13083968.44142  21986762.7274   21986758.8614
        53.0004         46.0004
 03 12 18 18 16 30.0000000  0  8G26G31G29G28G27G 8G11G 7
  23355794.8314   -6800838.68243  -5039656.03542  23355798.8704   23355794.4794
        47.0004         41.0004
  23358666.5184    2979921.59943   2281069.63342  23358670.3474   23358665.1184
        46.0004         40.0004
  22602439.6384  -15498282.81143 -12018183.63842  22602441.3314   22602437.4924
        52.0004         45.0004
  20907340.5954   -7614605.42744  -5923284.90442  20907342.5114   20907336.0924
        57.0004         51.0004
  21006682.7964    6427666.26743   5008821.66042  21006684.5094   21006680.2524
        55.0004         49.0004
  20108526.6424   -6494657.15944  -5055355.32842  20108526.6494   20108521.6564
        58.0004         51.0004
  23708221.3424   -9924021.11343  -7722078.75142  23708222.0374   23708219.6444
        48.0004         41.0004
  21970762.9074  -17185196.21143 -13149478.38542  21970764.7864   21970760.4174
        53.0004         46.0004
 03 12 18 18 17  0.0000000  0  8G26G31G29G28G27G 8G11G 7
  23340942.3994   -6878897.69743  -5100481.24042  23340945.6974   23340940.4934
        47.0004         41.0004
  23377663.1924    3079749.41043   2358857.46342  23377664.9134   23377662.5174
        46.0004         40.0004
  22590822.3664  -15559332.69743 -12065754.97142  22590824.3234   22590819.8544
        52.0004         45.0004
  20904768.6674   -7628121.14944  -5933816.66142  20904770.4834   20904764.3044
        57.0004         51.0004
  21013855.4134    6465356.79543   5038190.85442  21013856.8184   21013852.1294
        55.0004         49.0004
  20106993.5124   -6502715.14144  -5061634.29042  20106993.4734   20106988.4174
        58.0004         51.0004
  23700834.0494   -9962831.58243  -7752320.61242  23700835.2394   23700836.0364
        47.0004         41.0004
  21954823.6234  -17268958.61043 -13214747.70942  21954825.4054   21954821.6264
        53.0004         46.0004
 03 12 18 18 17 30.0000000  0  8G26G31G29G28G27G 8G11G 7
  23326162.3674   -6956563.62943  -5161000.12542  23326165.1264   23326160.9114
        47.0004         41.0004
  23396711.8964    3179845.67443   2436854.44142  23396712.8234   23396708.4174
        47.0004         40.0004
  22579290.7434  -15619929.87343 -12112973.54142  22579293.4904   22579287.8644
        52.0004         45.0004
  20902242.4634   -7641395.93944  -5944160.67942  20902244.3254   20902238.1704
        57.0004         51.0004
  21021095.4074    6503402.55043   5067836.85342  21021096.8994   21021091.8474
        55.0004         49.0004
  20105528.4374   -6510413.90544  -5067633.33542  20105528.6224   20105523.2784
        58.0004         51.0004
  23693519.0804  -10001282.58443  -7782282.39142  23693519.9784   23693517.4674
        48.0004         40.0004
  21938943.9034  -17352405.81243 -13279771.41842  21938945.1024   21938942.3664
        53.0004         47.0004
 03 12 18 18 18  0.0000000  0  8G26G31G29G28G27G 8G11G 7
  23311457.6204   -7033836.58743  -5221212.78942  23311460.4924   23311456.9024
        48.0004         41.0004
  23415810.2114    3280204.62943   2515056.14642  23415810.2904   23415807.7784
        48.0004         41.0004
  22567845.5494  -15680075.24743 -12159840.06742  22567847.7514   22567842.4554
        52.0004         45.0004
  20899761.4704   -7654433.41544  -5954319.76742  20899763.4084   20899757.0774
        57.0004         51.0004
  21028402.2634    6541801.24943   5097757.86442  21028403.5694   21028399.0834
        55.0004         49.0004
  20104131.4174   -6517754.92844  -5073353.62542  20104131.5204   20104126.4974
        58.0004         51.0004
  23686269.5764  -10039374.41843  -7811964.25842  23686273.3094   23686269.1924
        48.0004         40.0004
  21923124.3124  -17435538.61543 -13344550.14842  21923125.4444   21923122.1924
        53.0004         47.0004
 03 12 18 18 18 30.0000000  0  8G26G31G29G28G27G 8G11G 7
  23296828.0304   -7110712.52843  -5281116.10642  23296828.5184   23296827.3474
        47.0004         41.0004
  23434957.6014    3380825.20243   2593461.70242  23434960.8034   23434957.0054
        48.0004         41.0004
  22556487.3774  -15739765.00643 -12206351.55942  22556489.4674   22556483.7294
        52.0004         45.0004
  20897325.9234   -7667232.42044  -5964293.03042  20897327.6634   20897321.4014
        57.0004         51.0004
  21035776.7524    6580555.17243   5127955.67442  21035778.4974   21035773.6644
        55.0004         49.0004
  20102803.1514   -6524735.24944  -5078792.85142  20102803.2224   20102797.9914
        58.0004         51.0004
  23679091.2124  -10077103.14843  -7841363.22342  23679092.1754   23679090.0514
        47.0004         40.0004
  21907365.1514  -17518353.33843 -13409081.01342  21907366.6664   21907362.9754
        54.0004         47.0004
 03 12 18 18 19  0.0000000  0  8G26G31G29G28G27G 8G11G 7
  23282275.3304   -7187191.56243  -5340710.14042  23282277.2854   23282273.3154
        47.0004         41.0004
  23454154.6724    3481701.80243   2672066.74942  23454156.3394   23454153.1804
        49.0004         41.0004
  22545215.1174  -15798999.71943 -12252508.47642  22545217.1924   22545212.3944
        51.0004         45.0004
  20894935.0974   -7679796.42644  -5974083.17742  20894937.1104   20894930.7624
        57.0004         51.0004
  21043218.8814    6619662.08143   5158428.53142  21043220.2454   21043215.8834
        55.0004         48.0004
  20101543.1444   -6531356.11344  -5083951.97942  20101543.4824   20101538.2554
        58.0004         51.0004
  23671978.3014  -10114469.01143  -7870479.41942  23671981.9924   23671978.1094
        47.0004         40.0004
  21891666.3284  -17600850.75943 -13473364.63742  21891667.8834   21891665.0964
        54.0004         47.0004
 03 12 18 18 19 30.0000000  0  8G26G31G29G28G27G 8G11G 7
  23267797.7134   -7263267.83243  -5399990.34042  23267800.8794   23267796.1784
        47.0004         41.0004
  23473398.7294    3582835.06543   2750871.80542  23473401.0914   23473397.6414
        48.0004         41.0004
  22534030.7724  -15857773.98643 -12298306.60342  22534032.3454   22534027.4944
        52.0004         45.0004
  20892589.5614   -7692122.91544  -5983688.23742  20892591.1444   20892585.1094
        57.0004         51.0004
  21050728.3344    6659125.86443   5189179.47942  21050729.8834   21050725.4404
        55.0004         48.0004
  20100352.6774   -6537612.89744  -5088827.41242  20100352.7474   20100347.8014
        58.0004         51.0004
  23664938.4684  -10151466.59843  -7899308.66642  23664943.1844   23664937.6874
        46.0004         40.0004
  21876028.9094  -17683025.50743 -13537396.82242  21876030.4174   21876027.7004
        54.0004         47.0004
 03 12 18 18 20  0.0000000  0  8G26G31G29G28G27G 8G11G 7
  23253398.6834   -7338942.15543  -5458957.33742  23253400.9404   23253396.5714
        49.0004         41.0004
  23492691.4014    3684218.92443   2829872.12842  23492692.2504   23492688.3684
        48.0004         41.0004
  22522933.6324  -15916088.96843 -12343746.84242  22522935.6484   22522930.9314
        52.0004         45.0004
  20890288.2484   -7704215.65744  -5993111.15442  20890289.9764   20890283.8664
        57.0004         51.0004
  21058305.1514    6698943.76643   5220206.36542  21058307.2424   21058302.2054
        55.0004         48.0004
  20099230.9324   -6543507.45044  -5093420.58942  20099231.0784   20099225.9914
        58.0004         51.0004
  23657967.7754  -10188096.81343  -7927851.64542  23657971.1594   23657964.6234
        47.0004         40.0004
  21860452.7384  -17764878.80443 -13601178.53242  21860454.1514   21860450.7164
        54.0004         47.0004
 03 12 18 18 20 30.0000000  0  8G26G31G29G28G27G 8G11G 7
  23239075.5064   -7414208.96343  -5517606.79342  23239077.6834   23239073.7784
        49.0004         42.0004
  23512031.7374    3785853.74043   2909067.98442  23512033.8844   23512030.3384
        46.0004         40.0004
  22511925.4524  -15973939.48043 -12388825.16542  22511927.5454   22511923.1114
        52.0004         45.0004
  20888032.1814   -7716072.24144  -6002350.05842  20888033.8294   20888027.6844
        57.0004         51.0004
  21065950.0504    6739119.29543   5251511.91542  21065952.6244   21065947.9074
        55.0004         48.0004
  20098179.1064   -6549035.33444  -5097728.04842  20098179.2774   20098174.1394
        58.0004         51.0004
  23651068.7134  -10224354.21443  -7956104.11742  23651069.8114   23651066.3284
        45.0004         40.0004
  21844938.8104  -17846405.59043 -13664705.82142  21844940.2734   21844936.0674
        54.0004         47.0004
 03 12 18 18 21  0.0000000  0  8G26G31G29G28G27G 8G11G 7
  23224830.8074   -7489068.18843  -5575938.65442  23224832.6954   23224828.7504
        49.0004         42.0004
  23531418.0994    3887734.16043   2988455.18542  23531421.7164   23531417.1824
        47.0004         40.0004
  22501004.9054  -16031325.90943 -12433541.86842  22501007.1734   22501002.0824
        52.0004         45.0004
  20885820.2064   -7727695.68144  -6011407.28342  20885822.1114   20885815.8174
        57.0004         51.0004
  21073663.5844    6779650.61343   5283094.71942  21073665.3104   21073660.7944
        55.0004         48.0004
  20097196.5864   -6554197.60444  -5101750.61342  20097196.8344   20097191.7054
        58.0004         51.0004
  23644241.1574  -10260238.93543  -7984066.20142  23644242.9064   23644239.5974
        47.0004         40.0004
  21829486.7024  -17927606.30243 -13727979.02842  21829488.4004   21829484.5314
        54.0004         47.0004
 03 12 18 18 21 30.0000000  0  8G26G31G29G28G27G 8G11G 7
  23210662.4644   -7563519.00843  -5633952.23442  23210664.7974   23210660.7684
        48.0004         42.0004
  23550852.2254    3989855.79443   3068030.41042  23550851.1714   23550848.3184
        46.0004         39.0004
  22490172.8194  -16088247.98743 -12477896.72942  22490175.2904   22490169.6384
        52.0004         45.0004
  20883652.1744   -7739088.52644  -6020284.82842  20883654.2474   20883647.9584
        57.0004         51.0004
  21081443.9274    6820536.62943   5314953.90142  21081445.7354   21081441.3234
        55.0004         48.0004
  20096283.7424   -6558994.71244  -5105488.64242  20096283.9044   20096278.8524
        58.0004         51.0004
  23637481.9314  -10295750.50943  -8011737.52542  23637484.6144   23637480.8264
        47.0004         39.0004
  21814096.7504  -18008480.76443 -13790998.02742  21814098.3624   21814094.0994
        54.0004         47.0004
 03 12 18 18 22  0.0000000  0  8G26G31G29G28G27G 8G11G 7
  23196574.0394   -7637552.82143  -5691640.89042  23196576.5964   23196572.1544
        48.0004         42.0004
  23570333.3364    4092221.95143   3147796.16142  23570333.2944   23570327.3304
        47.0004         39.0004
  22479430.8524  -16144697.59743 -12521883.44242  22479432.4444   22479427.9074
        52.0004         45.0004
  20881529.2394   -7750245.45044  -6028978.53942  20881531.0314   20881524.8004
        57.0004         51.0004
  21089292.7684    6861783.67943   5347094.40842  21089294.6574   21089289.8824
        55.0004         48.0004
  20095441.8884   -6563419.32544  -5108936.41242  20095442.2834   20095436.9964
        58.0004         51.0004
  23630797.8504  -10330880.24943  -8039111.27942  23630799.4544   23630795.8724
        48.0004         40.0004
  21798770.3404  -18089020.99543 -13853756.59142  21798772.0974   21798767.9154
        54.0004         47.0004
 03 12 18 18 22 30.0000000  0  8G26G31G29G28G27G 8G11G 7
  23182564.3124   -7711173.34043  -5749007.49942  23182567.2944   23182563.5274
        49.0004         42.0004
  23589856.4274    4194823.78943   3227745.50342  23589858.7584   23589854.9374
        47.0004         39.0004
  22468778.1024  -16200678.84643 -12565505.19542  22468779.7884   22468774.7424
        52.0004         45.0004
  20879449.6714   -7761173.09044  -6037493.58942  20879451.4484   20879445.2614
        57.0004         51.0004
  21097209.0584    6903386.16543   5379511.87942  21097211.3174   21097207.0364
        55.0004         48.0004
  20094669.6864   -6567476.24544  -5112097.66542  20094669.9804   20094665.2174
        58.0004         51.0004
  23624183.6254  -10365632.40243  -8066190.84542  23624186.0894   23624181.7224
        46.0004         40.0004
  21783506.8294  -18169231.05843 -13916257.89442  21783508.6314   21783504.7804
        54.0004         47.0004
 03 12 18 18 23  0.0000000  0  8G26G31G29G28G27G 8G11G 7
  23168635.6354   -7784374.82943  -5806047.60842  23168638.7744   23168632.5254
        49.0004         42.0004
  23609425.5174    4297661.72343   3307878.87442  23609427.4724   23609422.4044
        45.0004         39.0004
  22458215.6004  -16256186.44443 -12608757.86542  22458217.4844   22458212.9324
        52.0004         45.0004
  20877414.6744   -7771868.75544  -6045827.88242  20877416.2284   20877410.0094
        57.0004         51.0004
  21105195.4074    6945347.87343   5412209.26242  21105196.5474   21105192.1024
        55.0004         48.0004
  20093968.8364   -6571160.54444  -5114968.57142  20093968.7654   20093963.9534
        58.0004         51.0004
  23617644.2454  -10400001.10043  -8092971.59542  23617645.6204   23617642.6524
        47.0004         40.0004
  21768307.3164  -18249105.82243 -13978497.92842  21768308.7114   21768304.9694
        54.0004         47.0004
 03 12 18 18 23 30.0000000  0  8G26G31G29G28G27G 8G11G 7
  23154785.8294   -7857150.59943  -5862755.97842  23154787.8874   23154785.2714
        49.0004         42.0004
  23629042.0424    4400737.21143   3388197.33942  23629041.5914   23629038.5004
        47.0004         39.0004
  22447744.2384  -16311214.20843 -12651636.63842  22447745.2114   22447740.9124
        52.0004         45.0004
  20875423.8924   -7782329.06844  -6053978.78442  20875425.7094   20875419.4594
        57.0004         51.0004
  21113249.6574    6987673.46643   5445190.19042  21113250.8294   21113246.4714
        55.0004         48.0004
  20093339.6274   -6574466.79644  -5117544.89242  20093339.7644   20093334.8014
        58.0004         51.0004
  23611179.1144  -10433979.91743  -8119448.54642  23611180.1114   23611178.2864
        47.0004         40.0004
  21753172.2894  -18328639.08943 -14040471.86742  21753174.1214   21753169.7314
        54.0004         47.0004
 03 12 18 18 24  0.0000000  0  8G26G31G29G28G27G 8G11G 7
  23141016.0994   -7929512.46943  -5919141.82542  23141017.6604   23141013.2924
        48.0004         42.0004
  23648696.9374    4504033.38243   3468687.76342  23648700.2884   23648698.9174
        46.0004         39.0004
  22437361.4414  -16365774.50043 -12694151.15142  22437364.0064   22437357.7914
        52.0004         45.0004
  20873475.4214   -7792568.81344  -6061957.81242  20873477.2134   20873470.7194
        57.0004         51.0004
  21121369.8904    7030349.04743   5478443.83242  21121372.0514   21121367.3174
        55.0004         48.0004
  20092779.8944   -6577408.34544  -5119837.03042  20092780.0414   20092774.9714
        58.0004         51.0004
  23604783.9624  -10467581.21543  -8145631.32642  23604786.2424   23604782.9014
        47.0004         40.0004
  21738100.6354  -18407843.19643 -14102189.32942  21738102.4544   21738098.1374
        54.0004         47.0004
 03 12 18 18 24 30.0000000  0  8G26G31G29G28G27G 8G11G 7
  23127327.8724   -8001443.85943  -5975192.22742  23127330.8794   23127324.8144
        49.0004         42.0004
  23668400.0744    4607561.61243   3549359.01542  23668399.8474   23668396.3824
        46.0004         40.0004
  22427070.9394  -16419851.07743 -12736288.73842  22427072.9004   22427068.3094
        52.0004         46.0004
  20871571.4404   -7802574.40044  -6069754.38742  20871573.1604   20871566.9164
        57.0004         51.0004
  21129560.0114    7073389.25143   5511981.61742  21129562.0424   21129557.5434
        55.0004         48.0004
  20092292.3734   -6579969.20144  -5121832.51642  20092292.5964   20092287.7504
        58.0004         51.0004
  23598463.8564  -10500788.39643  -8171506.99242  23598466.1804   23598462.5604
        47.0004         40.0004
  21723094.1504  -18486702.08243 -14163637.79542  21723095.7044   21723091.8034
        55.0004         47.0004
 03 12 18 18 25  0.0000000  0  8G26G31G29G28G27G 8G11G 7
  23113721.0204   -8072952.47343  -6030913.21042  23113722.6584   23113717.7244
        49.0004         42.0004
  23688140.4874    4711309.03343   3630201.03842  23688143.0864   23688137.8874
        46.0004         40.0004
  22416871.0404  -16473452.17343 -12778055.83442  22416873.2154   22416868.3724
        52.0004         46.0004
  20869709.8904   -7812356.88944  -6077377.12042  20869711.5834   20869705.4984
        57.0004         51.0004
  21137819.2314    7116784.48243   5545796.03442  21137819.7524   21137815.2464
        55.0004         48.0004
  20091876.0434   -6582158.56844  -5123538.53142  20091876.0894   20091871.2224
        58.0004         51.0004
  23592219.3634  -10533609.78443  -8197082.05942  23592222.3594   23592218.4084
        48.0004         40.0004
  21708151.9284  -18565224.05943 -14224823.73942  21708153.3014   21708149.2614
        54.0004         47.0004
 03 12 18 18 25 30.0000000  0  7G26G29G28G27G 8G11G 7
  23100195.4134   -8144028.44343  -6086297.05742  23100197.5944   23100193.2504
        49.0004         42.0004
  22406763.3314  -16526568.51243 -12819445.18842  22406765.3574   22406760.3254
        52.0004         46.0004
  20867892.2544   -7821909.37544  -6084820.63142  20867893.8404   20867887.8414
        57.0004         51.0004
  21146145.4334    7160542.40443   5579893.07142  21146147.0334   21146142.1964
        55.0004         48.0004
  20091531.7944   -6583967.34044  -5124947.97442  20091532.0184   20091526.8874
        58.0004         51.0004
  23586048.2744  -10566035.19343  -8222348.57342  23586050.8704   23586046.3064
        48.0004         40.0004
  21693275.6924  -18643399.71643 -14285739.83242  21693276.9154   21693273.7124
        54.0004         47.0004
 03 12 18 18 26  0.0000000  0  8G26G31G29G28G27G 8G11G 7
  23086751.9234   -8214673.09343  -6141344.80242  23086752.5314   23086749.6884
        49.0004         42.0004
  23858953.165
        46.000
  22396747.5344  -16579201.77743 -12860458.12842  22396749.6674   22396745.3274
        52.0004         46.0004
  20866117.2334   -7831236.20444  -6092088.31042  20866119.1964   20866112.7684
        57.0004         51.0004
  21154540.5034    7204659.83743   5614270.24242  21154542.3264   21154537.8814
        55.0004         48.0004
  20091259.5834   -6585398.18744  -5126062.93242  20091259.6964   20091254.8174
        58.0004         51.0004
  23579954.1974  -10598066.26643  -8247307.81842  23579955.5034   23579952.2654
        48.0004         41.0004
  21678464.9784  -18721230.95343 -14346387.54942  21678465.9574   21678462.3424
        54.0004         47.0004
 03 12 18 18 26 30.0000000  0  8G26G31G29G28G27G 8G11G 7
  23073390.6454   -8284883.62843  -6196054.28442  23073391.7904   23073388.2764
        49.0004         42.0004
  23878819.0614    -954185.64753   -749616.42452  23878819.5604   23878819.0624
        45.0004         39.0004
  22386824.0064  -16631349.76343 -12901092.91642  22386826.4834   22386821.2704
        52.0004         46.0004
  20864385.3364   -7840337.68444  -6099180.39142  20864386.9944   20864380.8944
        57.0004         51.0004
  21163004.1094    7249137.41043   5648928.04742  21163005.7964   21163001.4584
        55.0004         48.0004
  20091059.4674   -6586449.55244  -5126882.18942  20091059.7104   20091054.7164
        58.0004         51.0004
  23573934.8324  -10629700.52843  -8271957.85942  23573937.8754   23573932.3954
        49.0004         41.0004
  21663720.1384  -18798715.50143 -14406765.12542  21663721.1264   21663717.7294
        55.0004         47.0004
 03 12 18 18 27  0.0000000  0  8G26G31G29G28G27G 8G11G 7
  23060113.3384   -8354659.73243  -6250425.26042  23060115.5994   23060111.3004
        48.0004         42.0004
  23898727.3434    -849571.66243   -668099.16942  23898728.7144   23898726.8724
        46.0004         40.0004
  22376992.7834  -16683012.53043 -12941349.61742  22376994.8094   22376990.6984
        52.0004         46.0004
  20862695.5704   -7849216.38844  -6106098.88242  20862697.5704   20862691.1204
        57.0004         51.0004
  21171536.5524    7293973.55643   5683865.25542  21171538.2384   21171533.8174
        54.0004         48.0004
  20090931.5004   -6587121.71544  -5127405.97042  20090931.8434   20090926.7254
        57.0004         51.0004
  23567990.3344  -10660937.73643  -8296298.51842  23567990.4844   23567987.3374
        48.0004         41.0004
  21649041.0154  -18875853.43943 -14466872.62042  21649042.2114   21649038.9774
        54.0004         48.0004
 03 12 18 18 27 30.0000000  0  8G26G31G29G28G27G 8G11G 7
  23046919.1314   -8423994.79543  -6304452.55642  23046921.2184   23046915.8394
        48.0004         42.0004
  23918675.4044    -744745.99043   -586416.92842  23918676.5304   23918673.7284
        46.0004         40.0004
  22367255.3444  -16734184.14443 -12981223.60342  22367257.0864   22367252.7844
        53.0004         46.0004
  20861049.2324   -7857868.82444  -6112841.06642  20861051.0574   20861044.7244
        57.0004         51.0004
  21180137.2634    7339172.72743   5719085.33542  21180139.3594   21180134.8304
        55.0004         48.0004
  20090876.7384   -6587409.80144  -5127630.47142  20090877.0064   20090872.1004
        57.0004         51.0004
  23562123.3984  -10691772.02543  -8320325.20542  23562125.2664   23562119.6314
        49.0004         41.0004
  21634429.3624  -18952638.89343 -14526705.45342  21634430.4874   21634427.1664
        55.0004         48.0004
 03 12 18 18 28  0.0000000  0  7G26G29G28G27G 8G11G 7
  23033809.5454   -8492887.53743  -6358135.20342  23033811.3674   23033808.6434
        48.0004         42.0004
  22357611.2634  -16784863.59143 -13020714.08142  22357613.4684   22357608.4894
        52.0004         46.0004
  20859445.5484   -7866296.47944  -6119408.09142  20859447.3184   20859441.2534
        57.0004         51.0004
  21188808.1274    7384734.54643   5754588.00742  21188809.2064   21188805.1244
        55.0004         48.0004
  20090895.2584   -6587313.04744  -5127555.09342  20090895.2964   20090890.2644
        58.0004         51.0004
  23556330.8994  -10722201.81043  -8344036.70542  23556332.8614   23556328.9284
        48.0004         41.0004
  21619885.0374  -19029070.75243 -14586262.75642  21619885.8954   21619882.2614
        55.0004         48.0004
 03 12 18 18 28 30.0000000  0  7G26G29G28G27G 8G11G 7
  23020783.3284   -8561339.75943  -6411474.56642  23020785.8704   23020783.0914
        49.0004         42.0004
  22348060.7764  -16835053.36043 -13059823.00042  22348062.7324   22348057.9664
        52.0004         46.0004
  20857883.5404   -7874504.57144  -6125804.02742  20857885.1824   20857879.2074
        57.0004         51.0004
  21197546.7004    7430655.03443   5790370.15542  21197547.7684   21197543.3544
        55.0004         48.0004
  20090986.2694   -6586834.63544  -5127182.32342  20090986.3314   20090981.4424
        57.0004         51.0004
  23550617.1874  -10752229.39243  -8367434.77542  23550618.8784   23550616.2554
        48.0004         41.0004
  21605407.1124  -19105151.62343 -14645546.56342  21605408.3784   21605404.9184
        55.0004         48.0004
 03 12 18 18 29  0.0000000  0  7G26G29G28G27G 8G11G 7
  23007842.7854   -8629344.43443  -6464465.19542  23007845.2064   23007840.2544
        49.0004         42.0004
  22338604.0664  -16884747.10243 -13098545.40342  22338606.3814   22338601.6104
        52.0004         46.0004
  20856364.1964   -7882488.86144  -6132025.57442  20856365.8294   20856359.9114
        57.0004         51.0004
  21206353.8844    7476939.02843   5826435.55642  21206355.0714   21206351.3724
        55.0004         48.0004
  20091151.1154   -6585968.43844  -5126507.38742  20091151.1264   20091146.2194
        58.0004         51.0004
  23544981.0054  -10781848.15543  -8390514.32842  23544983.7794   23544979.1844
        48.0004         41.0004
  21590997.4424  -19180875.12343 -14704551.89842  21590998.6184   21590995.1374
        55.0004         48.0004
 03 12 18 18 29 30.0000000  0  7G26G29G28G27G 8G11G 7
  22994986.6764   -8696902.66143  -6517107.93342  22994988.5814   22994985.2604
        49.0004         42.0004
  22329242.2414  -16933946.15043 -13136882.32842  22329244.8504   22329239.4754
        53.0004         46.0004
  20854886.7394   -7890253.39944  -6138075.87842  20854888.2614   20854882.3514
        57.0004         51.0004
  21215229.8984    7523583.53043   5862781.86942  21215231.6114   21215227.1164
        54.0004         48.0004
  20091389.2354   -6584716.74344  -5125532.05742  20091389.5074   20091384.4034
        57.0004         51.0004
  23539422.2434  -10811059.06843  -8413276.05742  23539424.9584   23539420.0724
        49.0004         41.0004
  21576655.6544  -19256242.56643 -14763279.78142  21576656.8824   21576652.9624
        55.0004         48.0004
 03 12 18 18 30  0.0000000  0  7G26G29G28G27G 8G11G 7
  22982217.0784   -8764008.36743  -6569398.07842  22982218.6654   22982214.1574
        49.0004         42.0004
  22319974.6514  -16982645.06743 -13174829.54042  22319977.5294   22319972.1764
        53.0004         46.0004
  20853451.7374   -7897794.96844  -6143952.44342  20853453.4684   20853447.4714
        57.0004         51.0004
  21224175.2174    7570592.62243   5899412.27442  21224177.0824   21224172.6634
        54.0004         48.0004
  20091701.6374   -6583074.74844  -5124252.60442  20091701.8624   20091696.8044
        57.0004         51.0004
  23533942.2874  -10839856.57843  -8435715.64642  23533942.7674   23533940.5454
        48.0004         41.0004
  21562382.4404  -19331248.59243 -14821726.03942  21562383.7854   21562379.6084
        55.0004         48.0004
 03 12 18 18 30 30.0000000  0  7G26G29G28G27G 8G11G 7
  22969532.0934   -8830665.58243  -6621338.74242  22969534.4464   22969531.3934
        49.0004         43.0004
  22310801.8254  -17030848.39743 -13212390.58842  22310804.2014   22310799.6744
        53.0004         46.0004
  20852057.6904   -7905120.68544  -6149660.80742  20852059.1344   20852053.5144
        57.0004         51.0004
  21233189.7794    7617960.23543   5936322.04942  21233190.8884   21233186.5934
        55.0004         48.0004
  20092087.5324   -6581047.35944  -5122672.84442  20092087.8894   20092083.0264
        57.0004         51.0004
  23528541.6554  -10868244.81443  -8457836.34442  23528541.9044   23528538.8814
        48.0004         41.0004
  21548177.0414  -19405897.74243 -14879894.20642  21548178.5984   21548174.5884
        55.0004         48.0004
 03 12 18 18 31  0.0000000  0  7G26G29G28G27G 8G11G 7
  22956935.3534   -8896866.43443  -6672923.81042  22956935.6024   22956932.1954
        50.0004         43.0004
  22301724.9524  -17078548.71943 -13249559.67242  22301726.7244   22301723.1824
        53.0004         46.0004
  20850705.6874   -7912225.44244  -6155196.99442  20850707.5204   20850701.2934
        57.0004         51.0004
  21242272.2424    7665692.22943   5973515.75942  21242274.2324   21242270.0474
        54.0004         48.0004
  20092548.0014   -6578627.55844  -5120787.30642  20092548.4234   20092543.3294
        57.0004         51.0004
  23523218.3214  -10896216.40643  -8479632.38342  23523219.7074   23523215.4084
        49.0004         41.0004
  21534041.0744  -19480182.56843 -14937778.48242  21534042.5434   21534038.6334
        55.0004         48.0004
 03 12 18 18 31 30.0000000  0  7G26G29G28G27G 8G11G 7
  22944424.5724   -8962609.12943  -6724151.86242  22944426.5694   22944421.8954
        50.0004         43.0004
  22292743.7534  -17125744.97943 -13286335.98442  22292745.6034   22292741.2784
        52.0004         46.0004
  20849395.5424   -7919110.60444  -6160562.06842  20849397.1064   20849391.2134
        57.0004         51.0004
  21251424.8024    7713788.40643   6010993.24642  21251426.2994   21251422.8144
        54.0004         48.0004
  20093083.3324   -6575815.02044  -5118595.73542  20093083.4444   20093078.5334
        57.0004         51.0004
  23517974.1934  -10923769.56543  -8501102.35242  23517975.9224   23517971.4614
        48.0004         41.0004
  21519974.7694  -19554101.87843 -14995377.93842  21519976.3424   21519972.4084
        55.0004         48.0004
 03 12 18 18 32  0.0000000  0  7G26G29G28G27G 8G11G 7
  22932001.7004   -9027894.94443  -6775023.92442  22932004.2854   22931998.9784
        49.0004         43.0004
  22283858.3074  -17172438.80443 -13322720.79142  22283860.1224   22283855.8704
        53.0004         46.0004
  20848126.2044   -7925780.26744  -6165759.22142  20848127.9494   20848122.0584
        57.0004         51.0004
  21260645.9174    7762245.58343   6048752.04242  21260647.4404   21260643.2904
        54.0004         48.0004
  20093692.9504   -6572611.79444  -5116099.73942  20093693.0144   20093688.1804
        57.0004         51.0004
  23512809.9304  -10950905.68343  -8522247.37042  23512813.0874   23512810.9864
        48.0004         41.0004
  21505977.7824  -19627657.45443 -15052693.95542  21505978.8354   21505975.3574
        55.0004         48.0004
 03 12 18 18 32 30.0000000  0  7G26G29G28G27G 8G11G 7
  22919665.5384   -9092717.90043  -6825535.29142  22919668.4164   22919663.2914
        50.0004         43.0004
  22275069.5554  -17218624.96743 -13358710.02442  22275071.4104   22275066.8124
        53.0004         46.0004
  20846898.7444   -7932231.15644  -6170785.89642  20846900.5634   20846894.3004
        57.0004         51.0004
  21269936.9054    7811067.63243   6086795.14742  21269938.2244   21269933.9114
        54.0004         48.0004
  20094377.6224   -6569013.06544  -5113295.56242  20094377.7284   20094373.0014
        57.0004         51.0004
  23507727.0574  -10977619.37543  -8543063.23242  23507728.5874   23507724.9114
        48.0004         40.0004
  21492050.6884  -19700843.92343 -15109722.36342  21492051.8264   21492048.4334
        55.0004         48.0004
 03 12 18 18 33  0.0000000  0  7G26G29G28G27G 8G11G 7
  22907417.7184   -9157080.92443  -6875688.28542  22907419.6964   22907415.6184
        50.0004         43.0004
  22266376.3464  -17264306.92843 -13394306.36042  22266378.4604   22266373.6394
        53.0004         46.0004
  20845711.4864   -7938469.30744  -6175646.79942  20845713.3064   20845707.2584
        57.0004         51.0004
  21279295.5184    7860249.51543   6125118.65442  21279297.0304   21279293.6144
        54.0004         48.0004
  20095137.0924   -6565022.80044  -5110186.29842  20095137.4124   20095132.1914
        58.0004         51.0004
  23502723.7624  -11003913.99243  -8563552.52942  23502725.7664   23502721.9584
        49.0004         41.0004
  21478193.5184  -19773664.68343 -15166465.79442  21478194.4484   21478191.0754
        55.0004         48.0004
 03 12 18 18 33 30.0000000  0  7G26G29G28G27G 8G11G 7
  22895258.6834   -9220976.84143  -6925477.30442  22895261.4814   22895257.4454
        50.0004         43.0004
  22257780.6794  -17309477.75343 -13429504.41042  22257783.0264   22257777.5604
        53.0004         46.0004
  20844565.8614   -7944490.14244  -6180338.37342  20844567.7174   20844561.6344
        57.0004         51.0004
  21288723.5124    7909796.71743   6163726.81142  21288725.6084   21288721.3714
        54.0004         48.0004
  20095972.2004   -6560634.71344  -5106767.04642  20095972.3874   20095967.3904
        58.0004         51.0004
  23497800.2824  -11029782.56043  -8583709.84242  23497801.7424   23497799.8594
        49.0004         41.0004
  21464406.9354  -19846112.93743 -15222918.96342  21464408.8504   21464404.4224
        56.0004         48.0004
 03 12 18 18 34  0.0000000  0  7G26G29G28G27G 8G11G 7
  22883189.3254   -9284403.06443  -6974900.32542  22883192.7034   22883187.6204
        50.0004         43.0004
  22249282.8104  -17354135.63043 -13464302.77642  22249284.9264   22249279.6994
        53.0004         46.0004
  20843461.5634   -7950294.04444  -6184860.89842  20843463.3754   20843457.2934
        57.0004         51.0004
  21298222.7814    7959709.64043   6202619.94742  21298224.0764   21298219.9354
        54.0004         48.0004
  20096883.1864   -6555847.20444  -5103036.55042  20096883.2944   20096878.5034
        57.0004         51.0004
  23492959.9264  -11055222.37043  -8603533.08742  23492962.1754   23492955.6474
        48.0004         41.0004
  21450691.7484  -19918186.74043 -15279080.34742  21450692.8364   21450689.0124
        56.0004         48.0004
 03 12 18 18 34 30.0000000  0  7G26G29G28G27G 8G11G 7
  22871208.8954   -9347361.21443  -7023958.62742  22871211.3414   22871206.4824
        50.0004         43.0004
  22240881.6954  -17398282.78443 -13498703.16342  22240883.8404   22240879.0154
        53.0004         46.0004
  20842397.5324   -7955885.40744  -6189217.80842  20842399.1954   20842393.4194
        57.0004         51.0004
  21307789.8354    8009984.62243   6241795.20342  21307790.8714   21307786.9444
        54.0004         47.0004
  20097869.4154   -6550663.20544  -5098997.10242  20097869.8904   20097864.8794
        57.0004         51.0004
  23488201.2064  -11080235.48243  -8623023.79642  23488202.3274   23488197.2884
        49.0004         41.0004
  21437047.4074  -19989888.26643 -15334951.64842  21437048.6684   21437045.0834
        56.0004         48.0004
 03 12 18 18 35  0.0000000  0  7G26G29G28G27G 8G11G 7
  22859316.9284   -9409850.24543  -7072651.36442  22859318.4854   22859314.2294
        50.0004         43.0004
  22232578.2944  -17441918.67943 -13532705.16942  22232580.1524   22232575.7044
        53.0004         46.0004
  20841373.5934   -7961265.95744  -6193410.45242  20841375.3354   20841369.2924
        57.0004         51.0004
  21317425.3424    8060620.81243   6281251.92842  21317427.2434   21317422.7314
        54.0004         47.0004
  20098931.8224   -6545082.41744  -5094648.46742  20098932.0064   20098926.8864
        57.0004         51.0004
  23483520.8194  -11104821.21543  -8642181.51542  23483522.3744   23483519.7564
        48.0004         41.0004
  21423473.9314  -20061216.98943 -15390532.44842  21423475.2184   21423471.6374
        55.0004         49.0004
 03 12 18 18 35 30.0000000  0  7G26G29G28G27G 8G11G 7
  22847516.0484   -9471864.85343  -7120974.42642  22847517.7484   22847514.1084
        50.0004         43.0004
  22224372.6594  -17485038.68043 -13566305.17842  22224374.9814   22224369.9054
        53.0004         46.0004
  20840390.3374   -7966433.16044  -6197436.85642  20840392.1514   20840385.9484
        57.0004         51.0004
  21327130.1504    8111621.50343   6320992.68242  21327131.5584   21327128.0764
        54.0004         47.0004
  20100069.9324   -6539100.68444  -5089987.40042  20100070.0694   20100065.3324
        57.0004         51.0004
  23478925.2594  -11128974.51443  -8661002.24742  23478924.9624   23478923.2194
        48.0004         41.0004
  21409972.4284  -20132168.06843 -15445818.99142  21409973.6554   21409969.9604
        55.0004         48.0004
 03 12 18 18 36  0.0000000  0  7G26G29G28G27G 8G11G 7
  22835805.8004   -9533402.77043  -7168926.04142  22835808.8104   22835804.1144
        50.0004         43.0004
  22216265.4344  -17527641.03443 -13599501.82942  22216267.6934   22216262.8744
        53.0004         46.0004
  20839447.5884   -7971387.51544  -6201297.40842  20839449.1564   20839443.2734
        57.0004         51.0004
  21336905.1754    8162986.88843   6361017.60842  21336906.5834   21336902.0764
        54.0004         47.0004
  20101284.8244   -6532716.73244  -5085012.92542  20101285.0014   20101280.1394
        57.0004         51.0004
  23474412.0014  -11152693.43443  -8679484.51642  23474413.4694   23474409.0914
        49.0004         41.0004
  21396543.0684  -20202739.64743 -15500809.81442  21396544.1264   21396540.6504
        55.0004         48.0004
 03 12 18 18 36 30.0000000  0  7G26G29G28G27G 8G11G 7
  22824186.6664   -9594461.96543  -7216504.62542  22824188.9124   22824184.5854
        50.0004         43.0004
  22208257.4724  -17569724.23343 -13632293.94142  22208259.8934   22208255.1094
        53.0004         46.0004
  20838545.0694   -7976130.02144  -6204992.87742  20838546.6484   20838540.7194
        57.0004         51.0004
  21346748.9314    8214717.13643   6401326.84342  21346750.5374   21346746.6734
        54.0004         47.0004
  20102576.4734   -6525929.51144  -5079724.21142  20102576.6514   20102571.7034
        57.0004         51.0004
  23469980.6484  -11175976.10043  -8697626.87542  23469982.5184   23469978.4444
        49.0004         40.0004
  21383186.1544  -20272930.34043 -15555503.84342  21383187.3634   21383183.7794
        56.0004         49.0004
 03 12 18 18 37  0.0000000  0  7G26G29G28G27G 8G11G 7
  22812658.6244   -9655044.55243  -7263711.82742  22812661.7074   22812657.2034
        50.0004         43.0004
  22200347.8554  -17611291.05243 -13664683.68342  22200349.9574   22200345.2344
        53.0004         46.0004
  20837682.0704   -7980665.37444  -6208526.93542  20837683.6074   20837677.7274
        57.0004         51.0004
  21356661.9004    8266807.92643   6441917.02042  21356662.6444   21356658.9914
        54.0004         47.0004
  20103944.2734   -6518742.21244  -5074123.74742  20103944.3914   20103939.4004
        57.0004         51.0004
  23465632.9654  -11198825.27443  -8715431.42342  23465636.4924   23465632.0934
        48.0004         40.0004
  21369901.2634  -20342742.81243 -15609903.15842  21369902.7764   21369899.1434
        56.0004         49.0004
 03 12 18 18 37 30.0000000  0  7G26G29G28G27G 8G11G 7
  22801222.3914   -9715142.06343  -7310541.03942  22801224.5384   22801218.9014
        50.0004         43.0004
  22192537.3044  -17652333.63543 -13696664.93242  22192539.7424   22192534.9674
        53.0004         46.0004
  20836859.5734   -7984987.74444  -6211895.02942  20836861.1804   20836855.1674
        57.0004         51.0004
  21366643.7084    8319265.89643   6482793.30442  21366645.6334   21366641.5054
        54.0004         47.0004
  20105389.4304   -6511147.17844  -5068205.56842  20105389.7134   20105384.7114
        57.0004         51.0004
  23461368.5344  -11221232.66243  -8732891.71942  23461372.5984   23461366.3664
        48.0004         40.0004
  21356689.9454  -20412169.13543 -15664001.57842  21356691.2124   21356687.5324
        56.0004         49.0004
 03 12 18 18 38  0.0000000  0  7G26G29G28G27G 8G11G 7
  22789877.4194   -9774759.06143  -7356995.82242  22789880.0004   22789875.5684
        50.0004         43.0004
  22184826.1524  -17692857.14243 -13728241.70542  22184828.3004   22184823.8994
        53.0004         46.0004
  20836076.1904   -7989104.42344  -6215102.84142  20836078.0624   20836071.8854
        57.0004         51.0004
  21376695.2654    8372084.41143   6523950.53542  21376696.7094   21376692.8564
        54.0004         47.0004
  20106911.1954   -6503150.21144  -5061974.19442  20106911.3984   20106906.5004
        57.0004         51.0004
  23457187.9664  -11243203.27743  -8750011.68042  23457189.3864   23457185.8114
        48.0004         41.0004
  21343550.9814  -20481214.32243 -15717803.01442  21343552.3854   21343548.3724
        56.0004         49.0004
 03 12 18 18 38 30.0000000  0  7G26G29G28G27G 8G11G 7
  22778624.9824   -9833889.71143  -7403071.64642  22778626.8564   22778622.9074
        50.0004         43.0004
  22177214.5114  -17732856.32243 -13759409.91042  22177216.6474   22177211.8884
        53.0004         46.0004
  20835332.6664   -7993012.14444  -6218147.82842  20835334.2694   20835328.4394
        57.0004         51.0004
  21386815.9584    8425267.47543   6565391.82642  21386817.4224   21386812.8394
        54.0004         47.0004
  20108510.5564   -6494746.26344  -5055425.69442  20108510.7584   20108505.8214
        57.0004         51.0004
  23453092.8044  -11264731.06743  -8766786.59642  23453095.2374   23453088.3404
        49.0004         40.0004
  21330485.7704  -20549872.95443 -15771303.23742  21330486.8544   21330483.2814
        56.0004         49.0004
 03 12 18 18 39  0.0000000  0  7G26G29G28G27G 8G11G 7
  22767465.9654   -9892532.13843  -7448767.02542  22767467.8234   22767463.1664
        50.0004         43.0004
  22169703.0714  -17772329.91743 -13790168.57542  22169705.2864   22169700.5234
        53.0004         46.0004
  20834628.6124   -7996711.74644  -6221030.65142  20834630.5054   20834624.4604
        57.0004         51.0004
  21397005.3224    8478814.87943   6607117.01442  21397006.9054   21397002.8654
        54.0004         47.0004
  20110187.3314   -6485934.51744  -5048559.43042  20110187.5764   20110182.6834
        58.0004         51.0004
  23449079.7494  -11285814.67743  -8783215.38642  23449080.4744   23449075.9164
        49.0004         40.0004
  21317494.2974  -20618143.69343 -15824501.21142  21317495.4094   21317491.8474
        56.0004         49.0004
 03 12 18 18 39 30.0000000  0  7G26G29G28G27G 8G11G 7
  22756400.2334   -9950683.20543  -7494079.52842  22756403.1824   22756397.2444
        50.0004         43.0004
  22162292.0494  -17811275.51043 -13820515.80242  22162294.2624   22162288.5784
        53.0004         46.0004
  20833964.3544   -8000202.82944  -6223750.98742  20833966.0694   20833959.8664
        57.0004         51.0004
  21407264.2174    8532727.75743   6649126.98342  21407266.4434   21407262.0054
        54.0004         47.0004
  20111942.0434   -6476712.72844  -5041373.65142  20111942.4684   20111937.5144
        57.0004         51.0004
  23445153.5404  -11306451.23143  -8799295.83242  23445154.7674   23445149.6854
        49.0004         40.0004
  21304577.1554  -20686023.97543 -15877394.93242  21304578.5024   21304574.4304
        56.0004         49.0004
 03 12 18 18 40  0.0000000  0  7G26G29G28G27G 8G11G 7
  22745428.0024  -10008342.22543  -7539008.61042  22745429.9244   22745425.8464
        50.0004         43.0004
  22154981.4684  -17849692.70043 -13850451.28542  22154983.1964   22154979.1544
        53.0004         46.0004
  20833339.2874   -8003487.21744  -6226310.25842  20833341.2144   20833334.9574
        57.0004         51.0004
  21417593.0014    8587004.82643   6691420.74142  21417594.7834   21417590.7584
        54.0004         47.0004
  20113775.1884   -6467081.13944  -5033868.54742  20113775.2294   20113770.6444
        57.0004         51.0004
  23441310.4284  -11326640.40643  -8815027.64942  23441312.6244   23441309.2484
        49.0004         41.0004
  21291734.2114  -20753513.51643 -15929984.17942  21291735.6864   21291731.6694
        56.0004         49.0004
 03 12 18 18 40 30.0000000  0  7G26G29G28G27G 8G11G 7
  22734549.0884  -10065511.05443  -7583555.73142  22734550.9714   22734547.2574
        50.0004         43.0004
  22147770.9514  -17887584.05543 -13879977.03142  22147773.1764   22147767.8964
        53.0004         46.0004
  20832752.8884   -8006569.40944  -6228711.97242  20832754.6354   20832748.2984
        57.0004         51.0004
  21427990.6414    8641642.39643   6733995.41242  21427992.0274   21427988.5864
        53.0004         47.0004
  20115685.3394   -6457042.63944  -5026046.37042  20115685.4354   20115680.9744
        57.0004         51.0004
  23437553.1814  -11346384.36943  -8830412.56342  23437554.8044   23437551.3934
        48.0004         40.0004
  21278965.1614  -20820614.71243 -15982270.81842  21278966.4534   21278962.9884
        56.0004         49.0004
 03 12 18 18 41  0.0000000  0  7G26G29G28G27G 8G11G 7
  22723764.3594  -10122181.39543  -7627714.41342  22723767.5264   22723761.7544
        50.0004         43.0004
  22140661.8714  -17924942.08543 -13909087.19542  22140664.1114   22140659.4614
        53.0004         46.0004
  20832205.7864   -8009443.77344  -6230951.74842  20832207.4074   20832201.4654
        57.0004         51.0004
  21438457.5074    8696646.59543   6776855.76942  21438458.5194   21438454.7864
        53.0004         47.0004
  20117674.3364   -6446589.68844  -5017901.24042  20117674.6444   20117669.7134
        57.0004         51.0004
  23433882.4744  -11365675.22543  -8845444.40642  23433883.5814   23433882.4874
        48.0004         41.0004
  21266271.7324  -20887319.78743 -16034248.79042  21266272.9064   21266269.3344
        56.0004         49.0004
 03 12 18 18 41 30.0000000  0  7G26G29G28G27G 8G11G 7
  22713074.8664  -10178358.20743  -7671488.54242  22713077.2934   22713074.5414
        50.0004         43.0004
  22133653.5654  -17961772.20843 -13937786.00342  22133655.1094   22133651.2634
        53.0004         46.0004
  20831696.9794   -8012117.68044  -6233035.32042  20831698.7134   20831692.9284
        57.0004         51.0004
  21448992.8744    8752010.79443   6819996.64342  21448994.1654   21448990.5074
        53.0004         47.0004
  20119741.3664   -6435728.31944  -5009437.86442  20119741.5124   20119736.9114
        57.0004         51.0004
  23430297.8414  -11384518.33843  -8860127.35542  23430300.3854   23430295.1514
        50.0004         41.0004
  21253652.6934  -20953634.17543 -16085922.33242  21253653.9114   21253650.4384
        56.0004         49.0004
 03 12 18 18 42  0.0000000  0  7G26G29G28G27G 8G11G 7
  22702480.1544  -10234032.60043  -7714871.17142  22702482.8104   22702478.3434
        50.0004         43.0004
  22126746.8854  -17998066.19743 -13966067.04242  22126749.1424   22126744.3434
        53.0004         46.0004
  20831227.5764   -8014584.73544  -6234957.71042  20831229.3044   20831223.4044
        57.0004         51.0004
  21459597.9934    8807741.63943   6863423.21942  21459599.3234   21459595.8394
        53.0004         47.0004
  20121887.3924   -6424450.82144  -5000650.22442  20121887.7644   20121882.8094
        57.0004         51.0004
  23426798.1144  -11402904.82343  -8874454.47242  23426799.5434   23426794.7694
        49.0004         41.0004
  21241109.1804  -21019549.54743 -16137284.95442  21241110.4614   21241106.7174
        56.0004         49.0004
 03 12 18 18 42 30.0000000  0  7G26G29G28G27G 8G11G 7
  22691980.8354  -10289206.82843  -7757864.06142  22691982.5244   22691979.2654
        50.0004         43.0004
  22119941.9244  -18033826.87543 -13993932.52142  22119944.6254   22119939.1394
        53.0004         46.0004
  20830796.6314   -8016849.86144  -6236722.75842  20830798.2214   20830791.9754
        57.0004         51.0004
  21470273.3194    8863835.11343   6907132.35842  21470273.6944   21470269.8824
        53.0004         47.0004
  20124112.2634   -6412759.87944  -4991540.42042  20124112.4434   20124107.5294
        57.0004         51.0004
  23423387.4254  -11420837.13143  -8888427.71542  23423388.0924   23423382.7964
        50.0004         41.0004
  21228641.4904  -21085068.38943 -16188338.59442  21228642.9524   21228639.2384
        56.0004         49.0004
 03 12 18 18 43  0.0000000  0  7G26G29G28G27G 8G11G 7
  22681577.0324  -10343879.24843  -7800465.93742  22681578.6534   22681574.6104
        50.0004         44.0004
  22113238.7024  -18069053.27243 -14021381.67342  22113240.7774   22113235.5334
        53.0004         46.0004
  20830403.7664   -8018914.18544  -6238331.33242  20830405.2744   20830399.3954
        57.0004         51.0004
  21481015.1744    8920290.68243   6951123.65142  21481017.3194   21481013.5074
        53.0004         47.0004
  20126415.6514   -6400655.26944  -4982108.26742  20126415.7224   20126410.9174
        58.0004         51.0004
  23420060.1394  -11438314.40043  -8902046.38342  23420061.9444   23420057.7184
        49.0004         40.0004
  21216249.1954  -21150189.93743 -16239082.65742  21216250.5564   21216246.7764
        56.0004         49.0004
 03 12 18 18 43 30.0000000  0  7G26G29G28G27G 8G11G 7
  22671269.2874  -10398046.58043  -7842674.23942  22671271.7804   22671267.2844
        51.0004         44.0004
  22106637.2744  -18103742.83943 -14048412.51742  22106639.6034   22106634.7164
        53.0004         46.0004
  20830049.3464   -8020776.56544  -6239782.55142  20830051.0754   20830045.0754
        57.0004         51.0004
  21491827.6774    8977109.90243   6995398.31142  21491829.8804   21491825.5514
        53.0004         47.0004
  20128798.2134   -6388134.27944  -4972351.66342  20128798.4824   20128793.6134
        57.0004         51.0004
  23416821.0884  -11455333.44643  -8915307.94642  23416821.7154   23416820.1324
        49.0004         41.0004
  21203933.2814  -21214911.08543 -16289514.71642  21203934.5034   21203930.5964
        56.0004         49.0004
 03 12 18 18 44  0.0000000  0  7G26G29G28G27G 8G11G 7
  22661058.4284  -10451706.60243  -7884487.23842  22661060.6644   22661056.6414
        50.0004         44.0004
  22100138.3934  -18137893.90143 -14075023.74342  22100140.8114   22100135.7144
        53.0004         46.0004
  20829733.1624   -8022437.24344  -6241076.59742  20829735.0934   20829729.0004
        57.0004         51.0004
  21502709.9874    9034292.95143   7039956.47342  21502711.1214   21502707.2524
        54.0004         47.0004
  20131260.4924   -6375195.64244  -4962269.62442  20131260.7394   20131256.0174
        57.0004         51.0004
  23413670.6454  -11471892.21343  -8928210.88742  23413672.2354   23413668.4684
        49.0004         41.0004
  21191693.5794  -21279230.12143 -16339633.44142  21191694.9604   21191691.2594
        56.0004         49.0004
 03 12 18 18 44 30.0000000  0  7G26G29G28G27G 8G11G 7
  22650944.3404  -10504857.88443  -7925903.80642  22650945.5834   22650942.2144
        50.0004         44.0004
  22093742.2774  -18171505.79643 -14101214.84042  22093744.6814   22093739.8854
        53.0004         46.0004
  20829455.3814   -8023897.41244  -6242214.40942  20829457.0894   20829450.9254
        57.0004         51.0004
  21513660.1894    9091839.27843   7084797.70542  21513662.4974   21513657.8534
        53.0004         47.0004
  20133802.1294   -6361839.04644  -4951861.91142  20133802.4804   20133797.5724
        57.0004         51.0004
  23410606.6204  -11487989.91843  -8940754.56042  23410609.4234   23410602.5094
        49.0004         41.0004
  21179531.0014  -21343146.25344 -16389438.21542  21179532.0824   21179528.3544
        57.0004         49.0004
 03 12 18 18 45  0.0000000  0  7G26G29G28G27G 8G11G 7
  22640926.0414  -10557502.52243  -7966925.58942  22640928.7534   22640924.5804
        51.0004         44.0004
  22087448.3664  -18204581.13343 -14126987.84242  22087450.6294   22087446.1244
        53.0004         46.0004
  20829214.9434   -8025161.48044  -6243199.41242  20829216.7174   20829210.6514
        57.0004         51.0004
  21524679.7194    9149744.91943   7129918.93142  21524681.2394   21524677.6094
        53.0004         47.0004
  20136422.8434   -6348067.24044  -4941130.65342  20136422.9744   20136418.0854
        58.0004         51.0004
  23407630.2404  -11503628.63943  -8952940.55342  23407633.6244   23407628.4954
        49.0004         41.0004
  21167444.4254  -21406661.81843 -16438930.85742  21167445.2974   21167441.8394
        56.0004         49.0004
 03 12 18 18 45 30.0000000  0  7G26G29G28G27G 8G11G 7
  22631006.1214  -10609632.83243  -8007546.60342  22631008.4324   22631003.8734
        51.0004         44.0004
  22081258.0854  -18237113.07243 -14152337.41342  22081260.4824   22081255.4354
        53.0004         46.0004
  20829012.8034   -8026224.18144  -6244027.50742  20829014.4974   20829008.3494
        57.0004         51.0004
  21535768.1074    9208015.59843   7175324.58842  21535769.5424   21535765.8964
        53.0004         46.0004
  20139123.5334   -6333873.61944  -4930070.70442  20139124.1404   20139119.2904
        58.0004         51.0004
  23404743.7144  -11518801.32443  -8964763.39342  23404744.8494   23404741.5874
        50.0004         41.0004
  21155435.1444  -21469769.86144 -16488105.94942  21155436.4644   21155432.7544
        57.0004         50.0004
 03 12 18 18 46  0.0000000  0  7G26G29G28G27G 8G11G 7
  22621183.0974  -10661251.13243  -8047768.62842  22621185.2694   22621181.1594
        50.0004         44.0004
  22075170.0474  -18269104.37743 -14177265.71142  22075172.0554   22075166.7274
        54.0004         46.0004
  20828847.9174   -8027090.22244  -6244702.36242  20828849.5664   20828843.5134
        57.0004         51.0004
  21546924.8074    9266647.09843   7221011.40642  21546926.9654   21546923.4744
        53.0004         46.0004
  20141904.3764   -6319261.24944  -4918684.46342  20141904.6644   20141899.7914
        57.0004         51.0004
  23401945.8834  -11533510.42843  -8976225.00642  23401948.3044   23401941.9374
        50.0004         41.0004
  21143503.2914  -21532473.03444 -16536965.56242  21143504.3914   21143500.7494
        57.0004         50.0004
 03 12 18 18 46 30.0000000  0  7G26G29G28G27G 8G11G 7
  22611459.1074  -10712351.93743  -8087587.42842  22611462.4084   22611456.8014
        51.0004         44.0004
  22069186.4504  -18300550.44643 -14201769.15142  22069188.5204   22069183.2754
        53.0004         46.0004
  20828720.9854   -8027756.62444  -6245221.65342  20828722.8564   20828716.6564
        57.0004         51.0004
  21558152.0374    9325642.96343   7266982.14742  21558153.4994   21558149.7884
        53.0004         47.0004
  20144765.6274   -6304225.57744  -4906968.38442  20144766.1534   20144761.0634
        57.0004         51.0004
  23399234.3914  -11547750.90543  -8987321.45742  23399236.4834   23399233.0544
        49.0004         41.0004
  21131649.1724  -21594766.31344 -16585505.77542  21131650.1854   21131646.5034
        57.0004         50.0004
 03 12 18 18 47  0.0000000  0  7G26G29G28G27G 8G11G 7
  22601832.2034  -10762939.74043  -8127006.48142  22601834.8374   22601831.3564
        51.0004         44.0004
  22063304.9304  -18331456.24843 -14225851.60342  22063306.9334   22063302.8424
        54.0004         46.0004
  20828631.0244   -8028230.01944  -6245590.54842  20828632.7974   20828626.7944
        57.0004         51.0004
  21569445.5624    9384996.74243   7313231.77542  21569448.7764   21569444.1094
        53.0004         46.0004
  20147706.5544   -6288771.96044  -4894926.63042  20147706.8154   20147701.9434
        58.0004         51.0004
  23396612.5724  -11561527.26643  -8998056.24442  23396615.0474   23396610.5324
        50.0004         41.0004
  21119872.2424  -21656654.78044 -16633730.55342  21119873.4484   21119869.4874
        57.0004         49.0004
 03 12 18 18 47 30.0000000  0  7G26G29G28G27G 8G11G 7
  22592306.0644  -10813004.52143  -8166017.98442  22592307.6904   22592303.9714
        51.0004         44.0004
  22057528.1264  -18361812.42143 -14249505.77842  22057531.0744   22057526.1244
        54.0004         46.0004
  20828579.3104   -8028502.69844  -6245803.04142  20828580.9234   20828574.7504
        57.0004         51.0004
  21580811.3504    9444716.66743   7359766.71242  21580812.8394   21580808.8194
        53.0004         47.0004
  20150728.6864   -6272891.18944  -4882552.02942  20150728.7874   20150723.9784
        57.0004         51.0004
  23394081.9224  -11574829.94343  -9008421.94642  23394083.8834   23394079.7844
        50.0004         41.0004
  21108174.0464  -21718128.71443 -16681632.32042  21108175.1074   21108171.3914
        56.0004         50.0004
 03 12 18 18 48  0.0000000  0  7G26G29G28G27G 8G11G 7
  22582877.2804  -10862549.94643  -8204624.78742  22582879.6644   22582875.0814
        51.0004         44.0004
  22051855.7214  -18391623.46043 -14272735.16442  22051857.5374   22051853.1894
        54.0004         47.0004
  20828564.2714   -8028580.80944  -6245863.91542  20828565.9264   20828559.9434
        57.0004         51.0004
  21592243.6544    9504796.97143   7406582.46542  21592245.4314   21592242.0344
        53.0004         46.0004
  20153830.8974   -6256587.82344  -4869848.12642  20153831.0524   20153826.2694
        57.0004         51.0004
  23391639.6864  -11587662.88343  -9018421.60542  23391642.3964   23391637.8134
        49.0004         41.0004
  21096553.9984  -21779192.25844 -16729214.30842  21096555.3904   21096551.3644
        57.0004         50.0004
 03 12 18 18 48 30.0000000  0  7G26G29G28G27G 8G11G 7
  22573547.1804  -10911578.83843  -8242829.10242  22573548.3804   22573545.5104
        51.0004         44.0004
  22046285.4344  -18420892.38143 -14295542.12542  22046288.0484   22046282.9594
        53.0004         47.0004
  20828585.7024   -8028469.14544  -6245776.91342  20828587.5014   20828581.2384
        57.0004         51.0004
  21603745.1894    9565233.15143   7453675.51842  21603746.1354   21603742.9764
        53.0004         46.0004
  20157012.8464   -6239865.31544  -4856817.62242  20157013.4174   20157008.5504
        57.0004         51.0004
  23389286.2714  -11600029.55943  -9028057.94042  23389287.9064   23389283.9084
        50.0004         41.0004
  21085011.5814  -21839848.64444 -16776479.02742  21085012.5324   21085009.0624
        57.0004         50.0004
 03 12 18 18 49  0.0000000  0  7G26G29G28G27G 8G11G 7
  22564318.0014  -10960079.82243  -8280622.04742  22564320.3154   22564315.9804
        51.0004         44.0004
  22040821.3744  -18449609.12643 -14317918.81642  22040823.4284   22040818.4314
        54.0004         47.0004
  20828644.6814   -8028158.79044  -6245535.08442  20828646.4584   20828640.2594
        57.0004         51.0004
  21615314.3384    9626034.57243   7501053.18242  21615316.3564   21615313.3064
        53.0004         46.0004
  20160276.8854   -6222713.44244  -4843452.54242  20160277.1734   20160272.4244
        57.0004         51.0004
  23387023.7954  -11611918.77643  -9037322.22842  23387026.3574   23387020.6804
        50.0004         41.0004
  21073548.5884  -21900086.97944 -16823417.99242  21073549.8614   21073545.7914
        57.0004         50.0004
 03 12 18 18 49 30.0000000  0  7G26G29G28G27G 8G11G 7
  22555188.4684  -11008054.44643  -8318004.85542  22555191.5094   22555186.5634
        51.0004         44.0004
  22035461.6314  -18477775.71543 -14339866.81142  22035464.0194   22035458.5824
        54.0004         47.0004
  20828740.9194   -8027653.54544  -6245141.39442  20828742.7914   20828736.5944
        57.0004         51.0004
  21626954.0874    9687197.75843   7548712.74542  21626955.9114   21626951.6974
        53.0004         46.0004
  20163622.3084   -6205134.40144  -4829754.60142  20163622.5104   20163617.4844
        57.0004         51.0004
  23384852.1874  -11623332.37843  -9046215.91742  23384853.9704   23384851.1054
        50.0004         41.0004
  21062164.7814  -21959909.33444 -16870032.81042  21062166.0104   21062162.5524
        57.0004         50.0004
 03 12 18 18 50  0.0000000  0  7G26G29G28G27G 8G11G 7
  22546159.2444  -11055504.63943  -8354979.00942  22546162.1464   22546157.3714
        51.0004         44.0004
  22030205.6524  -18505394.57743 -14361388.00842  22030207.9384   22030202.7734
        54.0004         47.0004
  20828873.3104   -8026957.39244  -6244598.93842  20828875.2064   20828869.1204
        57.0004         51.0004
  21638660.8434    9748719.07443   7596651.35242  21638662.8754   21638659.0664
        53.0004         46.0004
  20167048.1234   -6187131.02244  -4815726.00642  20167048.3434   20167043.6574
        57.0004         51.0004
  23382770.5434  -11634272.74143  -9054740.85842  23382772.2614   23382768.4174
        49.0004         41.0004
  21050859.6794  -22019317.92644 -16916325.21342  21050860.7894   21050857.0794
        57.0004         50.0004
 03 12 18 18 50 30.0000000  0  7G26G29G28G27G 8G11G 7
  22537230.3284  -11102427.05043  -8391541.90842  22537232.5944   22537228.3514
        51.0004         44.0004
  22025054.5834  -18532463.12443 -14382480.38342  22025056.8124   22025052.1454
        54.0004         47.0004
  20829042.3304   -8026069.21844  -6243906.86142  20829044.2414   20829038.1254
        57.0004         51.0004
  21650437.0574    9810599.99843   7644870.18542  21650437.4894   21650434.2844
        53.0004         46.0004
  20170555.2184   -6168700.77844  -4801364.78642  20170555.4444   20170550.7084
        57.0004         51.0004
  23380779.3144  -11644736.92243  -9062894.74942  23380780.6714   23380776.0454
        49.0004         42.0004
  21039633.9374  -22078309.85944 -16962292.93842  21039634.9204   21039631.5574
        57.0004         50.0004
 03 12 18 18 51  0.0000000  0  7G26G29G28G27G 8G11G 7
  22528402.4974  -11148817.76443  -8427690.50042  22528404.0794   22528400.9144
        51.0004         44.0004
  22020008.9834  -18558978.15843 -14403141.45042  22020011.0034   22020006.1344
        53.0004         47.0004
  20829248.0624   -8024987.39544  -6243063.88842  20829249.9654   20829243.8834
        57.0004         51.0004
  21662280.7584    9872842.16743   7693370.50842  21662282.3444   21662278.6484
        53.0004         46.0004
  20174144.0074   -6149840.53044  -4786668.50242  20174144.5404   20174139.9814
        57.0004         51.0004
  23378878.3234  -11654721.06243  -9070674.60342  23378880.3464   23378877.6234
        49.0004         41.0004
  21028488.0114  -22136881.85944 -17007933.43742  21028488.9744   21028485.6464
        57.0004         50.0004
 03 12 18 18 51 30.0000000  0  7G26G29G28G27G 8G11G 7
  22519675.7964  -11194678.27043  -8463425.94342  22519677.7954   22519673.6964
        51.0004         44.0004
  22015068.4344  -18584941.81743 -14423372.87942  22015070.2104   22015065.9464
        54.0004         47.0004
  20829490.2004   -8023715.49744  -6242072.80542  20829492.0594   20829485.9444
        57.0004         51.0004
  21674192.9414    9935442.71043   7742150.07742  21674195.3934   21674191.8864
        52.0004         46.0004
  20177814.9094   -6130552.32844  -4771638.75242  20177814.9964   20177810.2044
        57.0004         51.0004
  23377070.2824  -11664227.10543  -9078081.90942  23377071.0114   23377067.7854
        49.0004         42.0004
  21017421.5434  -22195035.51944 -17053247.96042  21017423.0224   21017419.0864
        57.0004         50.0004
 03 12 18 18 52  0.0000000  0  7G26G29G28G27G 8G11G 7
  22511049.4354  -11240008.40543  -8498748.11342  22511051.7304   22511046.9004
        51.0004         44.0004
  22010232.2204  -18610354.73543 -14443175.15242  22010234.7734   22010229.8304
        53.0004         47.0004
  20829767.9814   -8022255.39244  -6240935.06542  20829769.7664   20829764.0184
        57.0004         51.0004
  21686174.6284    9998399.71243   7791207.41842  21686175.3154   21686172.3594
        53.0004         46.0004
  20181566.3904   -6110837.14044  -4756276.28242  20181566.7004   20181561.8844
        57.0004         51.0004
  23375351.9714  -11673255.11143  -9085116.72842  23375355.4814   23375348.7474
        50.0004         42.0004
  21006434.9524  -22252771.30944 -17098236.87842  21006436.2804   21006432.1124
        57.0004         50.0004
 03 12 18 18 52 30.0000000  0  7G26G29G28G27G 8G11G 7
  22502524.8524  -11284802.99543  -8533652.96342  22502527.6694   22502523.2924
        51.0004         44.0004
  22005502.1824  -18635212.54643 -14462544.87942  22005504.6604   22005499.3364
        53.0004         47.0004
  20830082.2214   -8020603.99744  -6239648.26642  20830084.0544   20830077.9864
        57.0004         51.0004
  21698222.8704   10061716.44043   7840545.05842  21698224.5494   21698221.1524
        52.0004         46.0004
  20185400.0564   -6090690.66044  -4740577.74542  20185400.2884   20185395.7104
        57.0004         51.0004
  23373724.8424  -11681800.32243  -9091775.34842  23373728.0724   23373722.2734
        49.0004         41.0004
  20995528.6434  -22310084.54444 -17142896.52742  20995529.9194   20995525.8094
        57.0004         50.0004
 03 12 18 18 53  0.0000000  0  7G26G29G28G27G 8G11G 7
  22494102.8034  -11329060.54443  -8568139.34542  22494105.2684   22494101.1574
        51.0004         44.0004
  22000877.7144  -18659514.17143 -14481481.20942  22000879.7974   22000875.0474
        54.0004         47.0004
  20830432.8824   -8018761.76044  -6238212.76142  20830434.5924   20830428.7074
        57.0004         51.0004
  21710340.5664   10125392.80343   7890162.94242  21710341.5864   21710338.1524
        53.0004         46.0004
  20189316.2994   -6070111.77244  -4724542.26742  20189316.4394   20189311.6664
        57.0004         51.0004
  23372192.2184  -11689861.41343  -9098056.72942  23372194.6294   23372189.6934
        50.0004         42.0004
  20984702.8574  -22366973.81544 -17187225.81842  20984704.0294   20984700.3334
        57.0004         50.0004
 03 12 18 18 53 30.0000000  0  7G26G29G28G27G 8G11G 7
  22485782.2674  -11372785.43743  -8602210.67142  22485785.0124   22485780.2634
        51.0004         44.0004
  21996358.1784  -18683264.76743 -14499988.17542  21996360.6514   21996355.5234
        54.0004         47.0004
  20830818.5324   -8016735.24944  -6236633.66842  20830820.4904   20830814.2414
        57.0004         51.0004
  21722523.6644   10189422.41643   7940056.07042  21722525.9484   21722522.7024
        52.0004         46.0004
  20193313.6894   -6049105.72944  -4708173.94642  20193313.8294   20193308.9024
        57.0004         51.0004
  23370749.9454  -11697443.21643  -9103964.64442  23370752.8044   23370747.0524
        49.0004         42.0004
  20973956.8254  -22423444.18744 -17231228.69642  20973958.3394   20973954.0714
        57.0004         50.0004
 03 12 18 18 54  0.0000000  0  7G26G29G28G27G 8G11G 7
  22477565.4914  -11415965.70943  -8635857.61842  22477567.8654   22477563.4854
        51.0004         44.0004
  21991945.4584  -18706453.28843 -14518057.15542  21991947.7394   21991942.9614
        54.0004         47.0004
  20831241.0914   -8014514.70244  -6234903.38142  20831242.8284   20831236.6864
        57.0004         51.0004
  21734778.0714   10253815.17743   7990232.17642  21734779.7284   21734776.5154
        52.0004         46.0004
  20197394.1644   -6027661.69544  -4691464.33842  20197394.5234   20197389.9304
        57.0004         51.0004
  23369399.5444  -11704534.23443  -9109490.13442  23369401.8574   23369398.0794
        49.0004         41.0004
  20963292.8204  -22479484.13544 -17274896.17542  20963294.0744   20963290.2694
        57.0004         50.0004
 03 12 18 18 54 30.0000000  0  7G26G29G28G27G 8G11G 7
  22469450.6774  -11458608.47743  -8669085.73542  22469453.5514   22469448.0334
        51.0004         44.0004
  21987638.3654  -18729087.30743 -14535694.06142  21987640.8274   21987635.9494
        54.0004         47.0004
  20831698.9824   -8012108.83544  -6233028.68842  20831700.5284   20831694.6274
        57.0004         51.0004
  21747099.3574   10318562.68543   8040684.70942  21747101.0164   21747097.2384
        53.0004         46.0004
  20201556.9204   -6005787.16144  -4674419.27042  20201557.0444   20201552.4644
        57.0004         51.0004
  23368143.1064  -11711141.75043  -9114638.86042  23368144.0294   23368140.6354
        50.0004         41.0004
  20952709.1424  -22535100.99044 -17318233.97242  20952710.5904   20952706.6944
        57.0004         50.0004
 03 12 18 18 55  0.0000000  0  7G26G29G28G27G 8G11G 7
  22461439.6824  -11500710.60643  -8701892.57242  22461441.8794   22461436.8194
        51.0004         44.0004
  21983436.9394  -18751164.47043 -14552897.05242  21983438.9804   21983434.6894
        54.0004         47.0004
  20832192.2804   -8009516.74044  -6231008.88142  20832193.9924   20832187.8294
        57.0004         51.0004
  21759488.3044   10383665.81543   8091414.36142  21759489.6174   21759485.4324
        53.0004         46.0004
  20205801.9184   -5983479.99144  -4657037.08242  20205801.7474   20205797.2184
        57.0004         51.0004
  23366976.0164  -11717263.13643  -9119408.78042  23366977.7114   23366975.5364
        49.0004         41.0004
  20942206.7864  -22590292.16044 -17361240.06942  20942208.3594   20942204.3984
        57.0004         50.0004
 03 12 18 18 55 30.0000000  0  7G26G29G28G27G 8G11G 7
  22453530.7044  -11542269.91443  -8734276.42842  22453533.5074   22453529.4644
        51.0004         44.0004
  21979342.0534  -18772683.35843 -14569665.02942  21979344.0224   21979339.4494
        54.0004         47.0004
  20832720.8004   -8006738.22944  -6228843.81242  20832722.7554   20832716.5754
        57.0004         51.0004
  21771944.5514   10449125.11243   8142421.54042  21771945.5424   21771942.1504
        52.0004         46.0004
  20210129.3244   -5960738.37544  -4639316.36242  20210129.3024   20210124.7864
        57.0004         51.0004
  23365905.0534  -11722896.33543  -9123798.29142  23365907.5244   23365903.0504
        49.0004         42.0004
  20931785.5894  -22645055.72644 -17403912.96442  20931786.9564   20931783.0864
        57.0004         50.0004
 03 12 18 18 56  0.0000000  0  7G26G29G28G27G 8G11G 7
  22445725.7824  -11583285.96143  -8766236.97142  22445727.8344   22445722.0854
        51.0004         44.0004
  21975353.5584  -18793644.27743 -14585998.22542  21975355.3264   21975351.2074
        54.0004         47.0004
  20833284.7784   -8003774.59944  -6226534.49542  20833286.8254   20833280.7674
        57.0004         51.0004
  21784469.1614   10514939.15743   8193705.15342  21784469.7844   21784467.1104
        52.0004         45.0004
  20214539.5854   -5937562.84944  -4621257.53142  20214539.7494   20214534.9114
        57.0004         51.0004
  23364926.5224  -11728041.32743  -9127807.39942  23364928.7384   23364923.5004
        49.0004         41.0004
  20921445.6244  -22699391.73944 -17446252.69842  20921447.2944   20921443.3464
        57.0004         50.0004
 03 12 18 18 56 30.0000000  0  7G26G29G28G27G 8G11G 7
  22438024.5724  -11623754.73943  -8797771.06142  22438027.2064   22438022.4724
        51.0004         44.0004
  21971471.4634  -18814043.95943 -14601894.09442  21971473.9604   21971469.5674
        54.0004         47.0004
  20833884.3434   -8000623.78144  -6224079.32142  20833886.2944   20833880.3194
        57.0004         51.0004
  21797060.2484   10581110.25043   8245266.96642  21797062.1204   21797058.1774
        53.0004         45.0004
  20219032.7034   -5913950.17844  -4602858.07142  20219033.2404   20219028.5734
        57.0004         51.0004
  23364041.0784  -11732694.43143  -9131433.18842  23364042.5564   23364038.9934
        50.0004         42.0004
  20911188.0344  -22753296.49044 -17488256.38542  20911189.2384   20911185.7394
        57.0004         50.0004
 03 12 18 18 57  0.0000000  0  7G26G29G28G27G 8G11G 7
  22430427.1994  -11663679.65243  -8828881.37142  22430429.6784   22430424.6874
        51.0004         44.0004
  21967695.9464  -18833886.28243 -14617355.65642  21967698.3844   21967693.1534
        54.0004         47.0004
  20834518.9064   -7997291.00644  -6221482.36342  20834520.4144   20834514.5864
        57.0004         51.0004
  21809719.3604   10647633.17643   8297102.94942  21809721.0084   21809717.2974
        52.0004         45.0004
  20223608.6374   -5889904.36344  -4584121.09342  20223608.9344   20223604.2484
        57.0004         51.0004
  23363248.0294  -11736859.42043  -9134678.64342  23363250.4764   23363246.4834
        49.0004         42.0004
  20901011.5884  -22806773.72244 -17529926.93842  20901012.8344   20901009.2484
        57.0004         50.0004
 03 12 18 18 57 30.0000000  0  7G26G29G28G27G 8G11G 7
  22422934.5254  -11703055.42543  -8859563.77542  22422935.9654   22422932.3124
        51.0004         44.0004
  21964026.8554  -18853166.97643 -14632379.57842  21964029.3024   21964024.1244
        54.0004         47.0004
  20835188.1744   -7993772.71744  -6218740.84842  20835190.0394   20835183.9264
        57.0004         51.0004
  21822446.0454   10714511.44543   8349215.81042  21822447.8994   21822443.5754
        52.0004         45.0004
  20228267.5244   -5865420.86044  -4565043.06642  20228268.0334   20228263.2444
        57.0004         51.0004
  23362550.8374  -11740531.41043  -9137539.92442  23362552.8384   23362548.7334
        49.0004         42.0004
  20890917.4394  -22859818.61744 -17571260.60542  20890918.7984   20890915.0474
        57.0004         50.0004
 03 12 18 18 58  0.0000000  0  7G26G29G28G27G 8G11G 7
  22415545.5364  -11741880.55043  -8889817.10742  22415547.8544   22415544.3564
        51.0004         44.0004
  21960464.7914  -18871884.95843 -14646965.02842  21960467.6984   21960462.5084
        54.0004         47.0004
  20835892.9544   -7990069.38344  -6215855.14242  20835894.7064   20835888.6044
        57.0004         51.0004
  21835240.0444   10781744.77943   8401605.34142  21835241.3784   21835239.0254
        52.0004         45.0004
  20233010.2184   -5840498.74944  -4545623.26142  20233010.5164   20233005.8954
        57.0004         51.0004
  23361944.6224  -11743709.09743  -9140016.03642  23361946.8974   23361941.3984
        49.0004         41.0004
  20880905.8544  -22912429.94444 -17612256.42842  20880907.1574   20880903.3784
        57.0004         50.0004
 03 12 18 18 58 30.0000000  0  7G26G29G28G27G 8G11G 7
  22408261.9484  -11780158.26543  -8919643.88842  22408264.4784   22408259.9164
        51.0004         44.0004
  21957009.2084  -18890044.61743 -14661115.41742  21957011.4704   21957006.9554
        54.0004         47.0004
  20836631.9014   -7986186.11644  -6212829.22842  20836633.5694   20836627.6344
        57.0004         51.0004
  21848100.9254   10849328.09043   8454267.58942  21848102.8164   21848099.7224
        51.0004         45.0004
  20237835.3134   -5815142.17944  -4525864.91942  20237835.5124   20237830.9154
        57.0004         50.0004
  23361434.0594  -11746396.15543  -9142109.82042  23361435.1834   23361431.2294
        49.0004         41.0004
  20870976.2174  -22964611.43344 -17652917.31342  20870977.5684   20870973.5284
        57.0004         50.0004
 03 12 18 18 59  0.0000000  0  7G26G29G28G27G 8G11G 7
  22401083.3374  -11817883.02543  -8949039.80242  22401085.1624   22401081.4464
        51.0004         45.0004
  21953660.6324  -18907640.89443 -14674826.81142  21953663.1384   21953657.9674
        54.0004         47.0004
  20837405.9044   -7982119.07944  -6209660.12042  20837407.7334   20837401.4394
        57.0004         51.0004
  21861028.6954   10917265.21543   8507205.52742  21861030.5544   21861027.3204
        52.0004         45.0004
  20242744.4944   -5789346.25644  -4505764.22942  20242744.3414   20242739.8704
        57.0004         50.0004
  23361016.9654  -11748587.28843  -9143817.16442  23361018.5194   23361014.3884
        49.0004         42.0004
  20861129.0414  -23016357.76344 -17693239.11042  20861130.7184   20861126.4194
        57.0004         50.0004
 03 12 18 18 59 30.0000000  0  7G26G29G28G27G 8G11G 7
  22394009.4754  -11855055.30443  -8978005.20742  22394012.3244   22394007.3214
        52.0004         45.0004
  21950419.1034  -18924674.80843 -14688099.99542  21950421.4584   21950417.0594
        54.0004         47.0004
  20838214.3104   -7977870.24444  -6206349.34942  20838216.0914   20838210.3234
        57.0004         51.0004
  21874023.4164   10985554.12843   8560417.58742  21874025.0914   21874021.7654
        52.0004         45.0004
  20247736.4944   -5763111.69944  -4485321.73742  20247736.9214   20247732.0804
        57.0004         50.0004
  23360693.8444  -11750283.09143  -9145138.52342  23360696.0654   23360690.9744
        49.0004         41.0004
  20851364.6004  -23067669.69844 -17733222.42342  20851366.0824   20851361.9304
        57.0004         50.0004
 03 12 18 19  0  0.0000000  0  7G26G29G28G27G 8G11G 7
  22387041.9374  -11891671.95043  -9006537.65642  22387044.1854   22387040.4944
        52.0004         45.0004
  21947285.6234  -18941144.28643 -14700933.36242  21947287.3834   21947282.6444
        54.0004         47.0004
  20839057.7064   -7973438.41744  -6202895.98942  20839059.6244   20839053.3884
        57.0004         51.0004
  21887085.6304   11054195.94043   8613904.63942  21887087.7384   21887084.4374
        52.0004         45.0004
  20252812.9554   -5736436.52844  -4464535.90942  20252812.8274   20252808.2464
        57.0004         50.0004
  23360465.9164  -11751481.24743  -9146072.12742  23360468.6684   23360463.5124
        49.0004         41.0004
  20841683.6984  -23118544.62944 -17772865.20742  20841684.8334   20841680.9764
        57.0004         50.0004
 03 12 18 19  0 30.0000000  0  7G26G29G28G27G 8G11G 7
  22380178.6384  -11927736.46343  -9034639.86342  22380181.4344   22380176.0244
        52.0004         45.0004
  21944258.1494  -18957053.30743 -14713330.00642  21944259.7314   21944254.9594
        54.0004         47.0004
  20839935.0304   -7968828.56944  -6199303.91142  20839936.8194   20839930.7434
        57.0004         51.0004
  21900214.8764   11123185.68943   8667662.80742  21900216.6954   21900212.3684
        52.0004         45.0004
  20257971.9044   -5709324.64144  -4443409.78742  20257972.0944   20257967.3734
        57.0004         50.0004
  23360332.8534  -11752185.11243  -9146620.53042  23360335.4644   23360328.5934
        50.0004         42.0004
  20832084.8494  -23168986.26744 -17812170.36642  20832085.8504   20832082.1214
        57.0004         50.0004
 03 12 18 19  1  0.0000000  0  7G26G29G28G27G 8G11G 7
  22373421.8554  -11963243.27243  -9062307.49742  22373424.2704   22373420.4904
        52.0004         45.0004
  21941338.0654  -18972397.24143 -14725286.32442  21941340.3384   21941335.3914
        54.0004         47.0004
  20840846.8464   -7964036.85544  -6195570.11642  20840848.5594   20840842.7804
        57.0004         51.0004
  21913410.1024   11192527.18543   8721695.06642  21913412.1024   21913408.6714
        52.0004         45.0004
  20263215.2254   -5681771.18544  -4421939.58142  20263215.5454   20263210.8754
        57.0004         50.0004
  23360293.2864  -11752389.56443  -9146779.81342  23360295.2214   23360289.5494
        50.0004         42.0004
  20822569.4984  -23218989.53944 -17851133.93842  20822570.6834   20822566.7574
        57.0004         50.0004
 03 12 18 19  1 30.0000000  0  7G26G29G28G27G 8G11G 7
  22366771.3334  -11998193.02343  -9089541.06442  22366772.9734   22366768.8794
        51.0004         45.0004
  21938525.2554  -18987177.36643 -14736803.30942  21938528.2614   21938522.7524
        54.0004         47.0004
  20841792.7284   -7959065.68944  -6191696.48542  20841794.5754   20841788.6334
        57.0004         51.0004
  21926672.0514   11262217.85943   8775999.41942  21926672.5774   21926669.5624
        52.0004         45.0004
  20268542.2844   -5653777.57744  -4400126.40742  20268542.5894   20268537.8794
        57.0004         50.0004
  23360348.6774  -11752095.76143  -9146550.84442  23360350.0094   23360345.6774
        49.0004         42.0004
  20813137.4084  -23268555.21844 -17889756.53542  20813138.7724   20813134.7224
        57.0004         50.0004
 03 12 18 19  2  0.0000000  0  7G26G29G28G27G 8G11G 7
  22360226.4654  -12032585.36743  -9116340.28142  22360228.7444   22360224.7414
        52.0004         45.0004
  21935820.1384  -19001394.18243 -14747881.35442  21935821.7824   21935817.7124
        54.0004         47.0004
  20842772.8724   -7953916.23044  -6187683.92442  20842774.4614   20842768.4504
        57.0004         51.0004
  21939999.9644   11332256.66843   8830575.04342  21940002.2374   21939998.1204
        51.0004         45.0004
  20273953.0054   -5625344.00244  -4377970.40942  20273953.0654   20273948.6894
        57.0004         50.0004
  23360499.4254  -11751303.68943  -9145933.58942  23360501.9094   23360495.5344
        49.0004         42.0004
  20803788.7204  -23317683.26344 -17928038.11442  20803789.8694   20803786.0244
        57.0004         50.0004
 03 12 18 19  2 30.0000000  0  7G26G29G28G27G 8G11G 7
  22353788.7574  -12066417.23543  -9142702.77542  22353790.0584   22353787.4114
        52.0004         45.0004
  21933222.7364  -19015045.07243 -14758518.41942  21933224.5574   21933219.9294
        54.0004         47.0004
  20843786.8444   -7948586.69644  -6183531.04542  20843788.5434   20843782.4594
        57.0004         51.0004
  21953394.5484   11402644.79343   8885422.85042  21953395.0494   21953391.9414
        52.0004         45.0004
  20279448.2174   -5596467.92044  -4355469.59742  20279448.0904   20279443.6194
        57.0004         50.0004
  23360745.0764  -11750010.37943  -9144925.76742  23360748.2144   23360743.2274
        48.0004         41.0004
  20794523.6924  -23366370.94744 -17965976.55342  20794525.0084   20794521.2114
        57.0004         50.0004
 03 12 18 19  3  0.0000000  0  7G26G29G28G27G 8G11G 7
  22347456.8904  -12099689.73143  -9168629.38742  22347459.8634   22347454.2884
        52.0004         45.0004
  21930732.0334  -19028132.31643 -14768716.28442  21930734.4944   21930729.3974
        54.0004         47.0004
  20844834.7334   -7943080.23244  -6179240.29742  20844836.6944   20844830.4824
        57.0004         51.0004
  21966854.1444   11473379.44543   8940540.67442  21966855.3214   21966853.3574
        51.0004         45.0004
  20285026.9214   -5567151.11044  -4332625.35542  20285027.3464   20285022.2494
        57.0004         50.0004
  23361087.0284  -11748217.42043  -9143528.60542  23361088.6804   23361082.4894
        49.0004         42.0004
  20785342.3424  -23414619.96844 -18003573.18442  20785343.4864   20785339.8894
        57.0004         51.0004
 03 12 18 19  3 30.0000000  0  7G26G29G28G27G 8G11G 7
  22341232.4874  -12132400.25643  -9194118.10242  22341234.1054   22341230.6214
        52.0004         45.0004
  21928349.2894  -19040653.82943 -14778473.31242  21928351.2994   21928346.9964
        54.0004         47.0004
  20845916.5184   -7937395.46044  -6174810.60242  20845918.1794   20845912.3264
        57.0004         51.0004
  21980380.4674   11544461.60943   8995929.28842  21980383.1274   21980378.3634
        51.0004         45.0004
  20290689.3284   -5537391.67544  -4309436.20642  20290690.0834   20290685.5874
        57.0004         50.0004
  23361523.4334  -11745922.58343  -9141740.39342  23361525.6084   23361522.4954
        49.0004         42.0004
  20776244.8624  -23462427.61844 -18040825.88842  20776246.0864   20776242.1324
        57.0004         51.0004
 03 12 18 19  4  0.0000000  0  7G26G29G28G27G 8G11G 7
  22335114.5444  -12164549.52043  -9219169.47842  22335116.9154   22335112.1264
        52.0004         45.0004
  21926074.2804  -19052610.91843 -14787790.54242  21926076.2984   21926071.4264
        54.0004         47.0004
  20847031.8314   -7931534.45644  -6170243.58442  20847033.7574   20847027.4814
        57.0004         51.0004
  21993972.7274   11615889.12943   9051587.01242  21993975.3544   21993970.9394
        51.0004         45.0004
  20296436.8294   -5507190.55344  -4285902.89042  20296437.0654   20296432.4424
        57.0004         50.0004
  23362055.2454  -11743126.42943  -9139561.55442  23362057.1794   23362053.7244
        49.0004         42.0004
  20767231.0224  -23509794.97444 -18077735.50342  20767232.2524   20767228.1674
        57.0004         50.0004
 03 12 18 19  4 30.0000000  0  7G26G29G28G27G 8G11G 7
  22329104.5144  -12196133.01643  -9243779.99142  22329106.6354   22329102.7024
        52.0004         45.0004
  21923906.5044  -19064000.01343 -14796665.17142  21923909.1524   21923904.0244
        54.0004         47.0004
  20848180.9574   -7925494.47444  -6165537.10242  20848182.7454   20848176.8834
        57.0004         51.0004
  22007630.8534   11687664.46743   9107515.77942  22007633.1164   22007630.6954
        51.0004         45.0004
  20302268.7724   -5476544.00044  -4262022.47542  20302268.9504   20302264.5914
        57.0004         50.0004
  23362683.5374  -11739825.24243  -9136989.16642  23362684.6774   23362681.1944
        49.0004         42.0004
  20758301.8644  -23556717.84844 -18114298.76442  20758302.9124   20758299.3994
        57.0004         51.0004
 03 12 18 19  5  0.0000000  0  7G26G29G28G27G 8G11G 7
  22323201.4344  -12227154.48543  -9267952.56542  22323203.5664   22323199.7064
        52.0004         45.0004
  21921846.5564  -19074825.72943 -14805100.81442  21921848.5744   21921844.3904
        54.0004         47.0004
  20849363.5634   -7919280.53044  -6160695.06742  20849365.4984   20849359.4964
        57.0004         50.0004
  22021355.4734   11759782.42943   9163711.51442  22021356.7484   22021353.7674
        51.0004         45.0004
  20308184.2334   -5445456.61844  -4237798.56542  20308184.7994   20308180.0674
        57.0004         50.0004
  23363407.6174  -11736023.18743  -9134026.49342  23363409.0534   23363405.0254
        49.0004         42.0004
  20749456.5234  -23603200.42344 -18150518.92942  20749457.6884   20749454.0944
        57.0004         51.0004
 03 12 18 19  5 30.0000000  0  7G26G29G28G27G 8G11G 7
  22317405.4804  -12257610.36243  -9291684.40842  22317407.9744   22317403.7784
        52.0004         45.0004
  21919894.3164  -19085085.01943 -14813095.08342  21919896.3884   21919892.0084
        54.0004         47.0004
  20850579.7784   -7912890.43444  -6155715.77442  20850581.4354   20850575.5144
        57.0004         51.0004
  22035144.0514   11832245.08443   9220175.84142  22035146.4664   22035143.4384
        51.0004         45.0004
  20314184.6914   -5413925.03644  -4213228.52342  20314185.0114   20314180.2004
        57.0004         50.0004
  23364226.4834  -11731716.87443  -9130670.91742  23364228.0094   23364224.4924
        49.0004         41.0004
  20740695.5444  -23649239.25544 -18186393.31742  20740696.9414   20740692.7764
        57.0004         51.0004
 03 12 18 19  6  0.0000000  0  7G26G29G28G27G 8G11G 7
  22311717.8794  -12287501.24143  -9314976.00342  22311719.6904   22311715.7034
        52.0004         45.0004
  21918049.7284  -19094779.38143 -14820649.14542  21918051.6524   21918047.2394
        54.0004         47.0004
  20851828.8434   -7906326.29944  -6150600.86842  20851830.5464   20851824.6554
        57.0004         51.0004
  22048998.5994   11905049.95243   9276906.82842  22048999.3594   22048997.8114
        50.0004         45.0004
  20320269.0264   -5381950.80444  -4188313.56942  20320269.4654   20320264.8094
        57.0004         50.0004
  23365142.3544  -11726907.21643  -9126923.10742  23365142.9144   23365139.8544
        49.0004         42.0004
  20732018.8604  -23694835.26344 -18221922.64842  20732020.3844   20732016.2244
        58.0004         51.0004
 03 12 18 19  6 30.0000000  0  7G26G29G28G27G 8G11G 7
  22306137.5744  -12316823.98943  -9337824.88142  22306140.1434   22306136.3954
        52.0004         45.0004
  21916312.7894  -19103906.28643 -14827761.03342  21916315.0654   21916310.4614
        54.0004         47.0004
  20853111.4464   -7899586.01444  -6145348.69942  20853113.1944   20853107.0764
        57.0004         51.0004
  22062919.3454   11978198.88343   9333905.92742  22062920.4714   22062917.8014
        51.0004         45.0004
  20326438.6654   -5349530.88344  -4163051.32042  20326438.8304   20326434.3204
        57.0004         50.0004
  23366153.4964  -11721591.11243  -9122780.68242  23366156.2584   23366150.2454
        49.0004         42.0004
  20723427.0774  -23739985.47344 -18257104.61042  20723428.4374   20723424.5704
        57.0004         51.0004
 03 12 18 19  7  0.0000000  0  7G26G29G28G27G 8G11G 7
  22300665.9274  -12345579.57143  -9360231.82142  22300668.4184   22300664.0264
        52.0004         45.0004
  21914683.7624  -19112467.57243 -14834432.18342  21914685.7564   21914681.8794
        54.0004         47.0004
  20854426.8734   -7892672.18544  -6139961.30742  20854428.7594   20854422.9124
        57.0004         50.0004
  22076903.8684   12051689.10243   9391170.96042  22076904.0424   22076901.6244
        51.0004         44.0004
  20332692.2514   -5316667.06444  -4137443.17642  20332692.6044   20332688.1634
        57.0004         50.0004
  23367260.4684  -11715770.05043  -9118244.78342  23367261.6854   23367261.3984
        48.0004         41.0004
  20714919.8244  -23784691.17144 -18291940.19342  20714921.1374   20714917.3394
        57.0004         51.0004
 03 12 18 19  7 30.0000000  0  7G26G29G28G27G 8G11G 7
  22295301.8194  -12373768.73843  -9382197.39942  22295304.1384   22295299.3024
        52.0004         45.0004
  21913161.8464  -19120464.78143 -14840663.78942  21913164.1824   21913159.2294
        54.0004         47.0004
  20855775.5804   -7885586.76444  -6134440.20442  20855777.2094   20855771.0304
        57.0004         50.0004
  22090952.2204   12125518.14443   9448700.01342  22090954.2044   22090951.9864
        51.0004         45.0004
  20339030.5374   -5283360.57644  -4111490.08842  20339030.7824   20339026.1044
        57.0004         50.0004
  23368465.5344  -11709445.25843  -9113316.37442  23368467.9504   23368462.8544
        50.0004         42.0004
  20706496.9544  -23828953.39144 -18326430.20542  20706498.3594   20706494.2534
        57.0004         51.0004
 03 12 18 19  8  0.0000000  0  7G26G29G28G27G 8G11G 7
  22290046.7104  -12401383.72543  -9403715.57042  22290048.6784   22290044.0124
        52.0004         45.0004
  21911748.9204  -19127891.00843 -14846450.48042  21911750.8104   21911746.3784
        54.0004         47.0004
  20857157.5524   -7878323.18944  -6128780.28342  20857159.1884   20857153.4964
        57.0004         51.0004
  22105067.5984   12199692.43643   9506498.07742  22105068.7704   22105066.5144
        51.0004         44.0004
  20345453.9784   -5249604.14244  -4085186.38742  20345454.1574   20345449.6984
        57.0004         50.0004
  23369765.5954  -11702609.40043  -9107989.72842  23369767.5514   23369763.2194
        49.0004         42.0004
  20698159.8624  -23872764.67344 -18360568.84142  20698161.3074   20698157.4194
        57.0004         51.0004
 03 12 18 19  8 30.0000000  0  7G26G29G28G27G 8G11G 7
  22284898.7714  -12428433.97943  -9424793.68242  22284901.8644   22284897.1684
        52.0004         45.0004
  21910442.3434  -19134756.20243 -14851800.00642  21910444.5114   21910439.4134
        54.0004         47.0004
  20858571.6984   -7870891.96344  -6122989.72342  20858573.3024   20858567.5194
        57.0004         50.0004
  22119247.0864   12274200.92143   9564556.56642  22119248.1344   22119245.0554
        51.0004         44.0004
  20351961.3314   -5215407.75644  -4058539.86942  20351961.8004   20351957.1194
        57.0004         50.0004
  23371162.4364  -11695271.64243  -9102271.96242  23371161.9614   23371158.5414
        50.0004         42.0004
  20689906.8944  -23916134.59044 -18394363.55542  20689908.4114   20689904.3494
        58.0004         51.0004
 03 12 18 19  9  0.0000000  0  7G26G29G28G27G 8G11G 7
  22279861.1514  -12454910.34743  -9445424.61842  22279863.1474   22279858.6874
        52.0004         45.0004
  21909244.4364  -19141052.03043 -14856705.86642  21909246.2564   21909242.2144
        54.0004         47.0004
  20860019.1024   -7863285.39644  -6117062.53142  20860021.1054   20860014.9104
        57.0004         50.0004
  22133489.9934   12349051.23943   9622881.40342  22133491.2604   22133489.1844
        50.0004         44.0004
  20358554.1934   -5180762.54644  -4031543.62442  20358554.5854   20358550.0484
        57.0004         50.0004
  23372655.3264  -11687423.43043  -9096156.48042  23372657.1224   23372654.5154
        49.0004         42.0004
  20681739.6724  -23959054.18344 -18427807.37242  20681740.9274   20681737.3034
        58.0004         51.0004
 03 12 18 19  9 30.0000000  0  7G26G29G28G27G 8G11G 7
  22274930.9744  -12480816.05443  -9465610.88042  22274933.3424   22274928.2504
        52.0004         45.0004
  21908153.9234  -19146782.41443 -14861171.12142  21908155.9824   21908151.4574
        54.0004         47.0004
  20861499.1754   -7855507.88144  -6111002.13742  20861501.0904   20861495.0174
        57.0004         51.0004
  22147797.1054   12424238.55343   9681468.84042  22147799.0294   22147796.0624
        50.0004         44.0004
  20365231.8424   -5145672.42144  -4004200.69242  20365231.9694   20365227.5234
        57.0004         50.0004
  23374245.1064  -11679068.31543  -9089645.98542  23374247.4254   23374243.0274
        49.0004         41.0004
  20673657.3754  -24001526.90444 -18460902.97942  20673658.6354   20673654.6964
        58.0004         51.0004
 03 12 18 19 10  0.0000000  0  7G26G29G28G27G 8G11G 7
  22270110.7144  -12506147.58843  -9485349.73542  22270112.3484   22270108.3964
        52.0004         45.0004
  21907171.5014  -19151944.83443 -14865193.80842  21907173.8444   21907169.3624
        54.0004         47.0004
  20863012.2684   -7847556.92544  -6104806.59942  20863013.9154   20863007.9034
        57.0004         50.0004
  22162169.8394   12499764.81543   9740320.38642  22162171.4664   22162169.0574
        50.0004         44.0004
  20371994.3894   -5110134.41144  -3976508.76742  20371994.4184   20371989.9134
        57.0004         50.0004
  23375932.2684  -11670203.10843  -9082738.02242  23375933.9984   23375929.9154
        49.0004         41.0004
  20665660.7554  -24043549.49544 -18493647.83642  20665662.0244   20665658.0514
        58.0004         51.0004
 03 12 18 19 10 30.0000000  0  7G26G29G28G27G 8G11G 7
  22265398.9314  -12530909.10543  -9504644.43242  22265401.0874   22265396.9184
        52.0004         45.0004
  21906296.3294  -19156544.19543 -14868777.74742  21906298.3364   21906294.0964
        54.0004         47.0004
  20864557.3194   -7839437.87544  -6098480.07542  20864559.1214   20864553.1714
        57.0004         51.0004
  22176605.7604   12575624.35243   9799431.62042  22176606.5794   22176604.7144
        50.0004         44.0004
  20378841.6964   -5074153.12344  -3948471.42242  20378841.8844   20378837.2914
        57.0004         50.0004
  23377715.6194  -11660832.21043  -9075435.99342  23377717.6244   23377713.0574
        49.0004         41.0004
  20657748.7474  -24085126.36544 -18526045.37642  20657750.0854   20657746.2334
        58.0004         51.0004
 03 12 18 19 11  0.0000000  0  7G26G29G28G27G 8G11G 7
  22260796.2474  -12555094.78943  -9523490.42442  22260798.4854   22260794.6464
        52.0004         45.0004
  21905529.2304  -19160575.47543 -14871919.02642  21905531.6284   21905526.8874
        54.0004         47.0004
  20866135.0664   -7831145.83544  -6092018.75742  20866136.8104   20866130.9144
        57.0004         50.0004
  22191105.5274   12651821.48643   9858805.91742  22191107.1224   22191103.0754
        50.0004         44.0004
  20385774.0144   -5037723.20344  -3920084.49942  20385773.9754   20385769.5824
        57.0004         50.0004
  23379596.2164  -11650950.30943  -9067735.78742  23379597.0604   23379593.0504
        50.0004         41.0004
  20649922.9234  -24126251.86044 -18558091.19442  20649924.2334   20649920.2834
        58.0004         51.0004
 03 12 18 19 11 30.0000000  0  7G26G29G28G27G 8G11G 7
  22256302.6454  -12578709.25343  -9541891.31242  22256305.2094   22256300.3554
        52.0004         45.0004
  21904869.1384  -19164043.78843 -14874621.62942  21904871.1044   21904866.9324
        54.0004         47.0004
  20867744.8674   -7822686.47544  -6085427.05642  20867746.6404   20867740.7884
        57.0004         50.0004
  22205668.4754   12728350.12343   9918438.53942  22205669.8504   22205667.6264
        50.0004         44.0004
  20392790.8134   -5000849.44044  -3891351.71942  20392790.7304   20392786.1944
        57.0004         50.0004
  23381573.1524  -11640561.97143  -9059640.95942  23381575.4474   23381570.1204
        49.0004         42.0004
  20642181.9944  -24166930.68244 -18589788.95842  20642183.3784   20642179.1844
        58.0004         51.0004
 03 12 18 19 12  0.0000000  0  7G26G29G28G27G 8G11G 7
  22251918.7554  -12601746.64443  -9559842.53142  22251921.2564   22251916.3924
        52.0004         45.0004
  21904317.2994  -19166944.13143 -14876881.65842  21904319.4114   21904314.7814
        54.0004         47.0004
  20869387.6464   -7814055.00844  -6078701.24742  20869389.3624   20869383.4234
        57.0004         50.0004
  22220294.8824   12805214.64043   9978332.86742  22220298.3214   22220293.4124
        50.0004         44.0004
  20399893.5784   -4963526.71644  -3862269.10542  20399893.2464   20399888.9764
        57.0004         50.0004
  23383646.2444  -11629661.82843  -9051147.31342  23383649.4854   23383644.9984
        49.0004         41.0004
  20634527.1784  -24207157.31244 -18621134.37342  20634528.5584   20634524.1614
        58.0004         51.0004
 03 12 18 19 12 30.0000000  0  7G26G29G28G27G 8G11G 7
  22247644.6474  -12624206.57343  -9577343.77242  22247647.1904   22247643.1024
        52.0004         45.0004
  21903873.5354  -19169277.08843 -14878699.57142  21903875.7604   21903870.7214
        54.0004         47.0004
  20871062.7094   -7805252.36644  -6071842.05542  20871064.5944   20871058.4284
        57.0004         50.0004
  22234985.7564   12882413.86043  10038488.02042  22234986.4504   22234984.9404
        50.0004         43.0004
  20407080.6564   -4925755.21844  -3832836.79842  20407081.0394   20407076.5044
        57.0004         50.0004
  23385818.4124  -11618249.98643  -9042254.93642  23385819.7584   23385817.9494
        49.0004         41.0004
  20626958.2574  -24246931.62144 -18652127.32542  20626959.3874   20626955.4724
        58.0004         51.0004
 03 12 18 19 13  0.0000000  0  7G26G29G28G27G 8G11G 7
  22243479.4684  -12646095.82243  -9594400.33042  22243482.0884   22243477.3314
        52.0004         45.0004
  21903536.2604  -19171050.08443 -14880081.14742  21903538.5684   21903533.5774
        54.0004         47.0004
  20872768.8484   -7796285.94544  -6064855.23742  20872770.5684   20872764.9804
        57.0004         50.0004
  22249738.3284   12959939.63243  10098897.60842  22249739.9824   22249736.6404
        50.0004         44.0004
  20414352.3944   -4887541.97244  -3803060.26642  20414352.8364   20414347.7904
        57.0004         50.0004
  23388085.9354  -11606333.33043  -9032969.21642  23388089.1254   23388084.9234
        49.0004         41.0004
  20619474.2964  -24286260.33144 -18682773.05742  20619475.5304   20619471.5984
        58.0004         51.0004
 03 12 18 19 13 30.0000000  0  7G26G29G28G27G 8G11G 7
  22239424.4954  -12667405.00843  -9611004.89042  22239426.8414   22239422.4734
        52.0004         45.0004
  21903306.6644  -19172254.42843 -14881019.61642  21903308.9924   21903304.5064
        54.0004         47.0004
  20874507.8174   -7787147.38444  -6057734.28442  20874509.7664   20874503.8034
        57.0004         50.0004
  22264555.6224   13037799.74943  10159567.75342  22264556.0264   22264554.0184
        50.0004         43.0004
  20421710.0264   -4848877.99844  -3772932.51942  20421710.0784   20421705.8954
        57.0004         50.0004
  23390450.8534  -11593902.63343  -9023282.93342  23390454.2734   23390451.0524
        49.0004         41.0004
  20612076.9214  -24325134.19644 -18713064.36042  20612078.2204   20612073.9814
        58.0004         51.0004
 03 12 18 19 14  0.0000000  0  7G26G29G28G27G 8G11G 7
  22235479.2534  -12688137.17243  -9627159.82742  22235481.8214   22235476.1374
        52.0004         45.0004
  21903185.3204  -19172893.91243 -14881517.93742  21903187.3614   21903182.7304
        54.0004         47.0004
  20876278.9784   -7777840.49744  -6050482.16542  20876280.7284   20876274.6664
        57.0004         51.0004
  22279433.8004   13115989.93743  10220495.07142  22279435.3304   22279433.5984
        50.0004         43.0004
  20429152.5154   -4809766.48744  -3742456.03642  20429152.9334   20429148.3914
        57.0004         50.0004
  23392914.0434  -11580961.18743  -9013198.68442  23392915.8004   23392912.4924
        49.0004         41.0004
  20604765.2344  -24363556.53344 -18743003.82242  20604766.6634   20604762.6424
        58.0004         51.0004
 03 12 18 19 14 30.0000000  0  7G26G29G28G27G 8G11G 7
  22231644.2594  -12708292.56043  -9642865.32742  22231646.2414   22231641.0914
        52.0004         45.0004
  21903170.7694  -19172969.55543 -14881576.90342  21903172.7154   21903167.9954
        54.0004         47.0004
  20878081.8404   -7768366.41944  -6043099.77242  20878083.8044   20878077.7594
        57.0004         50.0004
  22294376.1144   13194508.46643  10281678.24342  22294378.9314   22294374.4984
        50.0004         43.0004
  20436680.4914   -4770208.31544  -3711631.51742  20436680.7764   20436676.3234
        57.0004         50.0004
  23395474.0664  -11567509.69543  -9002716.99242  23395477.7414   23395471.3614
        50.0004         41.0004
  20597539.6214  -24401527.60544 -18772591.64942  20597541.0034   20597536.9994
        58.0004         51.0004
 03 12 18 19 15  0.0000000  0  7G26G29G28G27G 8G11G 7
  22227918.0124  -12727871.05843  -9658121.29942  22227919.6974   22227915.7584
        52.0004         45.0004
  21903263.9504  -19172482.12343 -14881197.11042  21903266.0574   21903261.0104
        54.0004         47.0004
  20879916.5224   -7758725.84644  -6035587.63942  20879918.1754   20879912.2024
        57.0004         50.0004
  22309379.2144   13273354.09243  10343116.28242  22309381.0164   22309378.3924
        50.0004         43.0004
  20444293.3954   -4730203.77244  -3680459.17242  20444293.4344   20444288.4274
        57.0004         50.0004
  23398130.6874  -11553548.29743  -8991837.96442  23398131.0024   23398128.0954
        49.0004         41.0004
  20590399.7514  -24439047.57544 -18801827.96442  20590401.1564   20590397.0394
        58.0004         51.0004
 03 12 18 19 15 30.0000000  0  7G26G29G28G27G 8G11G 7
  22224302.3034  -12746872.85943  -9672927.89742  22224304.9144   22224300.2214
        53.0004         45.0004
  21903463.5094  -19171432.56443 -14880379.29342  21903465.4054   21903460.9004
        54.0004         47.0004
  20881782.3334   -7748920.03044  -6027946.74242  20881784.2114   20881778.0454
        57.0004         50.0004
  22324445.8994   13352525.13943  10404807.90142  22324447.1144   22324442.8074
        50.0004         43.0004
  20451990.3254   -4689753.59044  -3648939.57242  20451990.9044   20451986.1894
        57.0004         50.0004
  23400883.6494  -11539077.47243  -8980561.98742  23400885.1344   23400879.5064
        49.0004         41.0004
  20583345.7304  -24476116.81544 -18830713.06042  20583347.0214   20583343.0024
        58.0004         51.0004
 03 12 18 19 16  0.0000000  0  7G26G29G28G27G 8G11G 7
  22220797.1674  -12765292.86043  -9687281.14442  22220799.1994   22220794.7524
        52.0004         45.0004
  21903770.7964  -19169816.59143 -14879120.11642  21903773.0074   21903768.1444
        54.0004         47.0004
  20883680.5304   -7738944.50944  -6020173.61342  20883682.2864   20883676.1684
        57.0004         50.0004
  22339574.2644   13432025.24543  10466755.94242  22339575.0684   22339572.2894
        50.0004         43.0004
  20459773.8164   -4648852.75444  -3617068.81642  20459774.1264   20459769.3494
        57.0004         50.0004
  23403736.2584  -11524092.42943  -8968885.34142  23403736.9304   23403732.4944
        49.0004         41.0004
  20576378.5004  -24512730.26644 -18859242.99642  20576379.8124   20576375.5034
        58.0004         51.0004
 03 12 18 19 16 30.0000000  0  7G26G29G28G27G 8G11G 7
  22217401.7584  -12783135.25443  -9701184.31242  22217403.9524   22217399.6634
        52.0004         45.0004
  21904185.1664  -19167639.07843 -14877423.37742  21904187.7444   21904183.1504
        54.0004         47.0004
  20885610.1144   -7728804.06944  -6012271.97542  20885611.9504   20885606.0344
        57.0004         50.0004
  22354763.7274   13511848.95143  10528956.12242  22354766.3974   22354762.5774
        50.0004         43.0004
  20467641.7024   -4607505.97144  -3584850.56542  20467641.6864   20467637.5414
        57.0004         50.0004
  23406684.6454  -11508597.58343  -8956811.43542  23406686.1854   23406682.6084
        49.0004         41.0004
  20569496.9554  -24548892.13444 -18887421.04942  20569498.2684   20569494.1564
        58.0004         51.0004
 03 12 18 19 17  0.0000000  0  7G26G29G28G27G 8G11G 7
  22214116.8544  -12800398.01943  -9714635.81942  22214118.7724   22214114.7554
        53.0004         45.0004
  21904706.5674  -19164898.81443 -14875288.12942  21904708.8404   21904704.5524
        54.0004         47.0004
  20887571.3914   -7718497.65144  -6004241.00442  20887573.3884   20887567.2124
        57.0004         50.0004
  22370017.1404   13591996.88943  10591408.97042  22370018.9304   22370013.4294
        50.0004         43.0004
  20475594.8004   -4565711.52044  -3552283.48442  20475595.5144   20475590.5504
        57.0004         50.0004
  23409730.6874  -11492591.17943  -8944338.89342  23409734.8324   23409727.2484
        49.0004         41.0004
  20562702.0004  -24584600.66544 -18915245.85742  20562703.0734   20562699.3254
        58.0004         51.0004
 03 12 18 19 17 30.0000000  0  7G26G29G28G27G 8G11G 7
  22210942.0284  -12817081.90343  -9727636.25742  22210944.2904   22210939.4964
        53.0004         45.0004
  21905334.9874  -19161597.41243 -14872715.63042  21905337.6794   21905332.2074
        54.0004         47.0004
  20889564.0254   -7708026.52544  -5996081.68942  20889565.8864   20889559.8634
        57.0004         50.0004
  22385328.6374   13672466.91243  10654112.78442  22385330.6694   22385327.5734
        49.0004         43.0004
  20483633.3274   -4523470.62544  -3519368.52342  20483633.4324   20483628.5434
        57.0004         50.0004
  23412873.3624  -11476074.13043  -8931468.48642  23412876.1864   23412868.3954
        49.0004         41.0004
  20555992.9354  -24619856.73644 -18942718.09842  20555994.0924   20555989.9974
        58.0004         51.0004
 03 12 18 19 18  0.0000000  0  7G26G29G28G27G 8G11G 7
  22207877.6174  -12833186.49943  -9740185.29742  22207880.3054   22207875.1744
        52.0004         45.0004
  21906069.8054  -19157735.04443 -14869706.01242  21906071.9234   21906067.6084
        54.0004         47.0004
  20891588.0074   -7697391.11144  -5987794.35942  20891589.8014   20891583.5694
        57.0004         50.0004
  22400702.7294   13753258.28843  10717066.99442  22400704.6894   22400701.0884
        50.0004         43.0004
  20491756.4834   -4480783.02744  -3486105.48342  20491756.4664   20491751.8534
        57.0004         50.0004
  23416114.2104  -11459046.32043  -8918200.07342  23416114.8714   23416110.9014
        49.0004         41.0004
  20549370.0894  -24654659.68944 -18969837.25642  20549371.3164   20549367.1114
        58.0004         51.0004
 03 12 18 19 18 30.0000000  0  7G26G29G28G27G 8G11G 7
  22204923.3864  -12848708.40343  -9752280.29142  22204925.4504   22204920.9334
        52.0004         45.0004
  21906912.3354  -19153309.12643 -14866257.26442  21906914.1164   21906909.8254
        54.0004         47.0004
  20893643.5714   -7686588.44644  -5979376.70142  20893645.5274   20893639.2644
        57.0004         50.0004
  22416137.9944   13834372.79543  10780273.00242  22416140.9874   22416137.5674
        50.0004         43.0004
  20499965.0804   -4437645.67544  -3452491.98842  20499965.5744   20499960.8294
        57.0004         50.0004
  23419451.0764  -11441504.86543  -8904531.42242  23419453.2534   23419450.1934
        49.0004         41.0004
  20542834.1214  -24689006.55444 -18996601.02042  20542835.4484   20542831.2554
        58.0004         51.0004
 03 12 18 19 19  0.0000000  0  7G26G29G28G27G 8G11G 7
  22202080.2844  -12863650.61643  -9763923.57842  22202082.8504   22202078.4924
        53.0004         45.0004
  21907860.7204  -19148323.31943 -14862372.24142  21907863.1194   21907858.4404
        54.0004         47.0004
  20895730.3564   -7675622.17544  -5970831.55942  20895732.2804   20895726.3614
        57.0004         50.0004
  22431635.2084   13915806.33443  10843727.59842  22431636.6494   22431634.8064
        50.0004         43.0004
  20508258.8514   -4394061.82544  -3418530.56942  20508258.8774   20508254.8614
        57.0004         50.0004
  23422887.0794  -11423452.95043  -8890464.99442  23422887.6034   23422886.1134
        48.0004         41.0004
  20536384.2264  -24722900.29744 -19023011.70242  20536385.5504   20536381.5834
        58.0004         51.0004
 03 12 18 19 19 30.0000000  0  7G26G29G28G27G 8G11G 7
  22199347.0704  -12878013.25843  -9775115.24942  22199349.4104   22199344.6434
        53.0004         45.0004
  21908915.9264  -19142778.75543 -14858051.81842  21908918.2294   21908913.9984
        54.0004         47.0004
  20897848.1584   -7664492.91544  -5962159.41242  20897849.8564   20897844.1304
        57.0004         50.0004
  22447192.5284   13997557.39443  10907429.61642  22447193.7914   22447189.7174
        50.0004         43.0004
  20516637.5394   -4350031.92944  -3384221.58842  20516637.7184   20516633.2344
        57.0004         50.0004
  23426419.7174  -11404890.64343  -8876000.87242  23426422.3784   23426417.5324
        49.0004         41.0004
  20530020.7134  -24756341.08044 -19049069.42942  20530021.8444   20530017.7884
        58.0004         51.0004
 03 12 18 19 20  0.0000000  0  7G26G29G28G27G 8G11G 7
  22196725.0564  -12891793.74243  -9785853.28942  22196727.4564   22196723.2714
        53.0004         45.0004
  21910077.8174  -19136673.51143 -14853294.50742  21910080.5444   21910075.4474
        54.0004         47.0004
  20899997.5724   -7653198.76944  -5953358.77842  20899999.1144   20899993.1614
        57.0004         50.0004
  22462809.4434   14079627.34843  10971380.11242  22462810.0714   22462810.2104
        49.0004         43.0004
  20525101.5654   -4305553.84544  -3349563.37242  20525101.4914   20525097.1574
        57.0004         50.0004
  23430049.6584  -11385815.56143  -8861137.19342  23430053.2114   23430047.5344
        49.0004         41.0004
  20523743.7444  -24789326.36544 -19074772.22242  20523744.9584   20523740.9904
        58.0004         51.0004
 03 12 18 19 20 30.0000000  0  7G26G29G28G27G 8G11G 7
  22194212.4334  -12904994.83043  -9796139.85342  22194214.6134   22194210.5044
        53.0004         46.0004
  21911345.9424  -19130011.09843 -14848103.03642  21911348.3274   21911343.1424
        54.0004         47.0004
  20902177.5164   -7641742.69044  -5944431.96242  20902179.2534   20902173.2834
        57.0004         50.0004
  22478486.6664   14162012.22443  11035576.01042  22478487.2024   22478485.8204
        50.0004         43.0004
  20533650.0094   -4260630.22144  -3314557.97742  20533650.3534   20533645.7544
        57.0004         50.0004
  23433776.2124  -11366230.85543  -8845876.39842  23433778.8414   23433773.9504
        49.0004         41.0004
  20517553.0224  -24821858.95244 -19100122.26542  20517554.3764   20517550.2334
        58.0004         51.0004
 03 12 18 19 21  0.0000000  0  7G26G29G28G27G 8G11G 7
  22191811.7174  -12917611.93943  -9805971.37142  22191814.0384   22191809.8004
        53.0004         46.0004
  21912720.5124  -19122787.85643 -14842474.55342  21912722.6184   21912718.0634
        54.0004         47.0004
  20904389.1624   -7630120.69644  -5935375.86242  20904390.7614   20904384.7444
        57.0004         50.0004
  22494224.4244   14244715.28543  11100019.84042  22494227.4034   22494223.7134
        49.0004         43.0004
  20542284.4024   -4215257.06244  -3279202.29842  20542284.7374   20542280.0094
        57.0004         50.0004
  23437601.6714  -11346132.45543  -8830215.31542  23437602.0654   23437600.4054
        50.0004         41.0004
  20511449.4064  -24853934.36244 -19125116.06742  20511450.3964   20511446.4024
        58.0004         51.0004
 03 12 18 19 21 30.0000000  0  7G26G29G28G27G 8G11G 7
  22189520.9834  -12929648.97143  -9815350.88142  22189523.8334   22189518.5884
        53.0004         45.0004
  21914200.3744  -19115008.23243 -14836412.53242  21914203.2924   21914198.1754
        54.0004         47.0004
  20906631.5574   -7618337.39544  -5926194.06842  20906633.2374   20906627.1394
        57.0004         50.0004
  22510022.4614   14327731.22343  11164707.48042  22510023.3384   22510020.6324
        49.0004         43.0004
  20551003.1864   -4169438.63844  -3243499.65242  20551003.4354   20550999.1194
        57.0004         50.0004
  23441522.9234  -11325524.14343  -8814156.91042  23441524.3724   23441519.6624
        49.0004         41.0004
  20505431.7464  -24885556.51944 -19149756.68542  20505432.9384   20505428.7094
        58.0004         51.0004
 03 12 18 19 22  0.0000000  0  7G26G29G28G27G 8G11G 7
  22187340.7574  -12941105.74243  -9824278.23742  22187343.2994   22187338.3594
        53.0004         45.0004
  21915786.8324  -19106672.69443 -14829917.33042  21915789.1844   21915785.0524
        54.0004         47.0004
  20908904.2304   -7606392.56944  -5916886.41142  20908906.3234   20908899.9164
        57.0004         50.0004
  22525879.1224   14411059.26743  11229638.30042  22525880.5514   22525879.1664
        49.0004         43.0004
  20559807.1044   -4123174.63144  -3207449.79942  20559807.3684   20559803.1204
        57.0004         50.0004
  23445540.0834  -11304406.13043  -8797701.32742  23445543.5464   23445539.0234
        49.0004         41.0004
  20499500.5814  -24916725.00644 -19174043.78842  20499501.8144   20499497.8104
        58.0004         51.0004
 03 12 18 19 22 30.0000000  0  7G26G29G28G27G 8G11G 7
  22185271.6924  -12951979.58843  -9832751.36842  22185274.3244   22185269.9794
        53.0004         45.0004
  21917479.1414  -19097779.65743 -14822987.71242  21917481.8004   21917476.6704
        54.0004         47.0004
  20911208.5334   -7594284.21644  -5907451.33642  20911210.1934   20911204.3354
        57.0004         50.0004
  22541795.2294   14494700.74243  11294813.35542  22541795.3814   22541794.6454
        49.0004         43.0004
  20568695.6284   -4076463.05843  -3171051.19742  20568696.1304   20568691.4044
        56.0004         50.0004
  23449657.4614  -11282776.10743  -8780846.77142  23449658.2604   23449655.1264
        49.0004         41.0004
  20493656.1294  -24947437.50844 -19197975.57742  20493657.1894   20493653.2504
        58.0004         51.0004
 03 12 18 19 23  0.0000000  0  7G26G29G28G27G 8G11G 7
  22183313.1784  -12962271.69743  -9840771.20042  22183315.2084   22183310.8434
        52.0004         45.0004
  21919277.6814  -19088330.89343 -14815625.06342  21919279.5734   21919275.2314
        54.0004         47.0004
  20913543.3304   -7582013.91844  -5897890.06642  20913545.0794   20913539.4394
        57.0004         50.0004
  22557771.4584   14578653.12843  11360230.70442  22557772.7814   22557770.6364
        48.0004         42.0004
  20577669.8644   -4029305.10944  -3134304.76742  20577670.0724   20577665.7724
        57.0004         50.0004
  23453869.3514  -11260635.16443  -8763594.10842  23453871.9674   23453866.8734
        49.0004         41.0004
  20487898.3524  -24977695.11244 -19221552.90442  20487899.3464   20487895.5014
        58.0004         51.0004
 03 12 18 19 23 30.0000000  0  7G26G29G28G27G 8G11G 7
  22181465.6164  -12971982.39843  -9848337.98042  22181468.0554   22181463.1344
        53.0004         45.0004
  21921180.7924  -19078327.44643 -14807830.19242  21921183.1074   21921178.5174
        54.0004         47.0004
  20915909.2374   -7569582.13244  -5888202.96542  20915910.9884   20915905.1824
        57.0004         50.0004
  22573805.9004   14662915.12643  11425889.28942  22573805.9104   22573802.9864
        49.0004         42.0004
  20586728.5194   -3981701.28343  -3097210.90242  20586728.9974   20586724.4924
        56.0004         50.0004
  23458181.6964  -11237984.14543  -8745943.98042  23458183.7914   23458177.4864
        49.0004         41.0004
  20482226.8714  -25007498.10844 -19244775.99342  20482228.2634   20482223.9444
        58.0004         51.0004
 03 12 18 19 24  0.0000000  0  7G26G29G28G27G 8G11G 7
  22179728.3444  -12981110.62843  -9855450.89442  22179730.5254   22179725.8434
        53.0004         45.0004
  21923190.0474  -19067769.23143 -14799603.03642  21923192.2774   21923187.9294
        54.0004         47.0004
  20918305.7134   -7556988.34244  -5878389.62942  20918307.5304   20918301.5184
        57.0004         50.0004
  22589898.8964   14747486.32743  11491788.80042  22589900.7504   22589898.6784
        48.0004         42.0004
  20595872.5104   -3933650.78544  -3059768.97842  20595872.6474   20595868.2414
        57.0004         50.0004
  23462587.8814  -11214822.19143  -8727895.71542  23462591.2374   23462586.2244
        48.0004         41.0004
  20476642.4084  -25036845.53944 -19267644.09542  20476643.6074   20476639.1954
        58.0004         51.0004
 03 12 18 19 24 30.0000000  0  7G26G29G28G27G 8G11G 7
  22178101.7854  -12989657.77043  -9862111.00642  22178103.6844   22178099.8584
        53.0004         45.0004
  21925303.9934  -19056658.34143 -14790945.22442  21925306.7034   21925302.0934
        54.0004         47.0004
  20920732.5084   -7544233.89344  -5868451.10642  20920734.5604   20920728.7534
        57.0004         50.0004
  22606050.8594   14832364.41943  11557927.45442  22606052.3764   22606050.8734
        49.0004         42.0004
  20605100.9704   -3885155.26244  -3021980.28842  20605101.1774   20605096.7544
        57.0004         50.0004
  23467093.1324  -11191150.78943  -8709450.46542  23467093.0944   23467089.9184
        48.0004         41.0004
  20471144.0834  -25065738.71744 -19290158.23542  20471145.3924   20471140.8964
        58.0004         51.0004
 03 12 18 19 25  0.0000000  0  7G26G29G28G27G 8G11G 7
  22176585.8344  -12997624.14143  -9868318.56642  22176588.1084   22176583.1134
        53.0004         45.0004
  21927524.0614  -19044995.78343 -14781857.54042  21927525.4344   21927521.6744
        54.0004         47.0004
  20923190.1894   -7531319.28844  -5858387.78742  20923191.8814   20923186.3384
        57.0004         50.0004
  22622260.8384   14917547.82743  11624304.02542  22622262.7384   22622260.8504
        48.0004         42.0004
  20614413.7474   -3836215.14043  -2983845.15942  20614414.0874   20614409.5564
        56.0004         50.0004
  23471693.0954  -11166970.46943  -8690608.69142  23471695.8724   23471693.2014
        49.0004         40.0004
  20465732.3134  -25094177.79944 -19312318.53542  20465733.6144   20465729.1734
        58.0004         51.0004
 03 12 18 19 25 30.0000000  0  7G26G29G28G27G 8G11G 7
  22175180.3074  -13005010.58443  -9874074.24142  22175181.8494   22175178.2894
        53.0004         46.0004
  21929847.6844  -19032783.15743 -14772341.23242  21929850.0654   21929845.2074
        54.0004         47.0004
  20925677.9604   -7518245.83044  -5848200.68442  20925679.9704   20925674.0124
        57.0004         50.0004
  22638528.7954   15003034.49643  11690916.89142  22638528.8304   22638527.7914
        48.0004         42.0004
  20623811.0564   -3786831.62344  -2945364.52442  20623811.2754   20623806.9514
        57.0004         50.0004
  23476390.6384  -11142282.37443  -8671371.23142  23476393.9534   23476388.7814
        48.0004         41.0004
  20460406.5104  -25122163.88644 -19334125.85342  20460407.8244   20460403.8644
        58.0004         51.0004
 03 12 18 19 26  0.0000000  0  7G26G29G28G27G 8G11G 7
  22173885.9494  -13011812.54743  -9879374.47242  22173888.2424   22173883.3584
        53.0004         46.0004
  21932277.5304  -19020016.78143 -14762393.42742  21932278.7564   21932274.8714
        54.0004         47.0004
  20928197.3324   -7505008.93144  -5837886.22842  20928198.6084   20928192.8794
        57.0004         50.0004
  22654855.3154   15088828.15143  11757768.96142  22654857.1384   22654855.5814
        48.0004         42.0004
  20633293.6944   -3737000.18544  -2906534.86442  20633293.7494   20633289.4664
        57.0004         50.0004
  23481187.7554  -11117081.98243  -8651734.56442  23481190.4344   23481185.3254
        48.0004         41.0004
  20455168.2654  -25149692.11544 -19355576.40142  20455169.3854   20455165.3214
        58.0004         51.0004
 03 12 18 19 26 30.0000000  0  7G26G29G28G27G 8G11G 7
  22172701.7984  -13018035.93643  -9884223.87142  22172704.0264   22172699.6124
        53.0004         46.0004
  21934810.3844  -19006703.09043 -14752019.14142  21934813.2174   21934808.5984
        54.0004         47.0004
  20930745.9534   -7491614.46044  -5827448.98742  20930747.7244   20930741.8454
        57.0004         50.0004
  22671237.6324   15174921.67443  11824854.70042  22671239.0324   22671237.6014
        48.0004         42.0004
  20642860.7974   -3686726.83944  -2867360.86142  20642860.6224   20642856.3034
        57.0004         50.0004
  23486078.5834  -11091375.47043  -8631703.54142  23486080.6094   23486077.8874
        48.0004         41.0004
  20450015.7594  -25176768.23044 -19376674.64942  20450017.0944   20450012.9594
        58.0004         51.0004
 03 12 18 19 27  0.0000000  0  7G26G29G28G27G 8G11G 7
  22171628.4294  -13023676.81343  -9888619.36542  22171630.0484   22171625.9114
        53.0004         46.0004
  21937449.2094  -18992839.08143 -14741216.03442  21937451.0254   21937447.4204
        54.0004         47.0004
  20933325.6234   -7478058.72844  -5816886.09142  20933327.1774   20933321.4114
        57.0004         50.0004
  22687678.7574   15261317.84443  11892176.25942  22687680.7134   22687678.6844
        48.0004         41.0004
  20652512.1764   -3636007.86343  -2827839.60642  20652512.4164   20652508.0134
        56.0004         50.0004
  23491067.4674  -11065159.19843  -8611275.27242  23491069.3794   23491064.7974
        48.0004         41.0004
  20444950.1484  -25203388.39844 -19397417.61742  20444951.4424   20444947.3904
        58.0004         51.0004
 03 12 18 19 27 30.0000000  0  7G26G29G28G27G 8G11G 7
  22170665.1184  -13028738.00943  -9892563.16842  22170667.3434   22170662.6004
        53.0004         46.0004
  21940190.9944  -18978428.10443 -14729986.71742  21940193.5254   21940189.1994
        54.0004         47.0004
  20935935.4944   -7464344.64444  -5806199.80442  20935937.2284   20935930.9094
        57.0004         50.0004
  22704176.6034   15348012.79643  11959730.64742  22704177.4044   22704175.5164
        48.0004         42.0004
  20662247.9544   -3584845.98443  -2787973.23342  20662248.2464   20662243.6934
        56.0004         50.0004
  23496154.7204  -11038436.07543  -8590452.07542  23496154.9514   23496151.5204
        49.0004         41.0004
  20439970.6604  -25229555.35144 -19417807.43042  20439972.0484   20439967.6734
        58.0004         51.0004
 03 12 18 19 28  0.0000000  0  7G26G29G28G27G 8G11G 7
  22169812.3084  -13033219.93643  -9896055.58442  22169814.6074   22169810.6214
        53.0004         46.0004
  21943037.4684  -18963471.47943 -14718332.22142  21943039.5174   21943035.3184
        54.0004         47.0004
  20938574.8214   -7450472.65644  -5795390.47442  20938576.8024   20938570.6624
        57.0004         50.0004
  22720730.6194   15435005.15343  12027516.77942  22720733.7174   22720731.6884
        49.0004         42.0004
  20672067.5974   -3533242.04043  -2747762.39242  20672068.0234   20672063.4534
        56.0004         49.0004
  23501336.9204  -11011206.77443  -8569234.46842  23501337.6684   23501331.6074
        49.0004         41.0004
  20435077.5524  -25255269.32444 -19437844.27142  20435078.8754   20435074.5374
        58.0004         51.0004
 03 12 18 19 28 30.0000000  0  7G26G29G28G27G 8G11G 7
  22169070.5854  -13037119.08043  -9899093.88942  22169073.1644   22169067.8504
        53.0004         46.0004
  21945987.9924  -18947966.72743 -14706250.61242  21945989.8564   21945985.7574
        54.0004         47.0004
  20941245.4034   -7436439.27044  -5784455.38342  20941247.3954   20941241.2404
        57.0004         50.0004
  22737341.1634   15522297.12943  12095536.38042  22737345.1294   22737341.4334
        49.0004         41.0004
  20681972.1824   -3481192.67243  -2707204.47342  20681972.7064   20681968.5934
        56.0004         49.0004
  23506612.7494  -10983468.01843  -8547619.88442  23506616.7334   23506611.7934
        48.0004         41.0004
  20430271.0114  -25280527.09544 -19457525.63042  20430272.4144   20430268.0304
        58.0004         51.0004
 03 12 18 19 29  0.0000000  0  7G26G29G28G27G 8G11G 7
  22168438.8774  -13040437.97743  -9901680.05642  22168440.6174   22168436.7744
        53.0004         46.0004
  21949042.2914  -18931916.62843 -14693744.06042  21949044.5974   21949039.4964
        54.0004         47.0004
  20943946.1794   -7422246.92244  -5773396.42642  20943947.9034   20943941.9954
        57.0004         50.0004
  22754009.5274   15609885.27443  12163786.77642  22754010.0794   22754007.9204
        48.0004         42.0004
  20691961.4194   -3428700.39743  -2666301.43442  20691961.5564   20691957.0074
        56.0004         49.0004
  23511988.9444  -10955222.22743  -8525610.15942  23511991.1584   23511987.3264
        49.0004         41.0004
  20425551.1434  -25305330.70844 -19476853.10242  20425552.3774   20425547.9284
        58.0004         51.0004
 03 12 18 19 29 30.0000000  0  7G26G29G28G27G 8G11G 7
  22167917.2154  -13043178.83543  -9903815.79842  22167919.0854   22167914.7754
        53.0004         46.0004
  21952199.6744  -18915324.25243 -14680814.94842  21952201.7994   21952198.2674
        54.0004         47.0004
  20946676.5694   -7407897.71444  -5762215.23642  20946678.5104   20946672.4644
        57.0004         50.0004
  22770733.6414   15697766.68843  12232265.67842  22770733.9964   22770730.7284
        49.0004         41.0004
  20702034.6304   -3375767.40744  -2625054.98942  20702034.9374   20702030.0864
        57.0004         49.0004
  23517459.2754  -10926472.08343  -8503207.46642  23517462.9534   23517457.4554
        48.0004         41.0004
  20420917.0964  -25329682.38744 -19495828.41242  20420918.4314   20420914.2194
        58.0004         51.0004
 03 12 18 19 30  0.0000000  0  7G26G29G28G27G 8G11G 7
  22167505.9434  -13045339.21143  -9905499.22442  22167508.3604   22167504.0754
        53.0004         46.0004
  21955460.3584  -18898188.26243 -14667462.24842  21955462.6774   21955458.1224
        53.0004         47.0004
  20949437.4544   -7393389.34844  -5750910.02942  20949439.5884   20949433.5574
        57.0004         50.0004
  22787512.4404   15785942.18143  12300973.74642  22787512.4884   22787511.7104
        48.0004         41.0004
  20712191.3864   -3322391.65543  -2583463.52842  20712191.6814   20712187.4364
        56.0004         49.0004
  23523026.2364  -10897215.38343  -8480410.06842  23523027.4134   23523023.9814
        49.0004         41.0004
  20416369.6214  -25353579.55344 -19514449.56142  20416371.0054   20416366.8674
        58.0004         51.0004
 03 12 18 19 30 30.0000000  0  7G26G29G28G27G 8G11G 7
  22167205.0964  -13046920.95543  -9906731.75942  22167206.8574   22167202.9814
        53.0004         46.0004
  21958823.8614  -18880510.98443 -14653687.76342  21958826.4124   21958821.9174
        54.0004         47.0004
  20952228.7304   -7378723.29244  -5739481.95142  20952230.4064   20952224.6274
        57.0004         50.0004
  22804346.6454   15874409.32543  12369909.04642  22804348.8764   22804347.0964
        48.0004         42.0004
  20722432.3334   -3268574.86143  -2541528.40142  20722432.5014   20722428.1584
        56.0004         49.0004
  23528690.0874  -10867453.97743  -8457219.39442  23528692.9624   23528687.1864
        49.0004         41.0004
  20411908.3274  -25377023.92544 -19532717.88142  20411909.4834   20411905.2874
        58.0004         51.0004
 03 12 18 19 31  0.0000000  0  7G26G29G28G27G 8G11G 7
  22167014.2024  -13047924.48843  -9907513.74742  22167016.2344   22167012.1304
        53.0004         46.0004
  21962291.0854  -18862293.48743 -14639492.33542  21962293.0154   21962289.0724
        54.0004         47.0004
  20955049.3684   -7363899.79344  -5727931.19242  20955051.2214   20955045.0554
        57.0004         50.0004
  22821237.1334   15963166.56943  12439070.42142  22821238.3904   22821235.3244
        49.0004         42.0004
  20732757.2694   -3214317.55743  -2499250.01142  20732757.7144   20732753.3204
        56.0004         49.0004
  23534449.9174  -10837188.36643  -8433635.79942  23534452.9194   23534447.5594
        49.0004         41.0004
  20407533.0094  -25400015.74844 -19550633.56842  20407534.3264   20407529.9744
        58.0004         51.0004
 03 12 18 19 31 30.0000000  0  7G26G29G28G27G 8G11G 7
  22166933.7144  -13048348.03943  -9907843.79342  22166935.9154   22166931.7754
        53.0004         46.0004
  21965860.7074  -18843534.85343 -14624875.23642  21965862.6684   21965858.2324
        54.0004         47.0004
  20957900.5174   -7348916.91044  -5716256.23542  20957902.2354   20957896.1094
        57.0004         50.0004
  22838182.3084   16052214.90343  12508458.61242  22838182.7804   22838182.5254
        48.0004         42.0004
  20743166.2384   -3159617.97243  -2456626.98542  20743166.4444   20743162.5524
        56.0004         49.0004
  23540306.5974  -10806416.97343  -8409658.10242  23540308.0934   23540303.4204
        49.0004         41.0004
  20403244.4334  -25422553.12044 -19568195.13742  20403245.4614   20403241.4294
        58.0004         51.0004
 03 12 18 19 32  0.0000000  0  7G26G29G28G27G 8G11G 7
  22166963.1594  -13048193.00043  -9907722.99442  22166965.0604   22166961.2134
        53.0004         46.0004
  21969533.1884  -18824237.34743 -14609838.24342  21969534.6794   21969530.4494
        54.0004         47.0004
  20960781.7804   -7333775.93244  -5704458.07742  20960783.4954   20960777.5694
        57.0004         50.0004
  22855182.9294   16141551.74143  12578071.62342  22855184.1514   22855182.8604
        47.0004         42.0004
  20753659.1034   -3104477.84543  -2413660.68842  20753659.1014   20753655.2444
        56.0004         49.0004
  23546257.9644  -10775141.51943  -8385287.63442  23546258.4664   23546253.1494
        49.0004         41.0004
  20399041.9044  -25444637.38144 -19585403.63142  20399043.1534   20399038.7654
        58.0004         51.0004
 03 12 18 19 32 30.0000000  0  7G26G29G28G27G 8G11G 7
  22167102.2664  -13047462.61743  -9907153.86842  22167104.4504   22167100.1244
        53.0004         46.0004
  21973306.8994  -18804404.66543 -14594384.22742  21973309.3424   21973304.4334
        54.0004         47.0004
  20963692.4894   -7318479.66944  -5692538.91942  20963694.1294   20963688.3814
        57.0004         50.0004
  22872236.9384   16231173.16143  12647906.36742  22872239.1864   22872237.8284
        48.0004         41.0004
  20764235.1004   -3048899.84243  -2370353.18742  20764235.8184   20764231.2714
        56.0004         49.0004
  23552304.2614  -10743365.18843  -8360526.88642  23552306.0004   23552301.9674
        49.0004         41.0004
  20394924.9764  -25466271.43844 -19602261.31742  20394926.2144   20394922.1004
        58.0004         51.0004
 03 12 18 19 33  0.0000000  0  7G26G29G28G27G 8G11G 7
  22167350.9454  -13046154.37243  -9906134.46342  22167352.8544   22167349.1044
        53.0004         46.0004
  21977183.2484  -18784035.32843 -14578512.04342  21977184.1434   21977180.6124
        54.0004         47.0004
  20966633.3204   -7303025.46644  -5680496.68842  20966635.1794   20966629.1274
        57.0004         50.0004
  22889346.1714   16321080.47143  12717963.87742  22889347.2304   22889345.5494
        47.0004         41.0004
  20774895.3324   -2992882.19543  -2326703.10442  20774895.1534   20774891.2374
        56.0004         49.0004
  23558447.7194  -10711085.81143  -8335374.12642  23558449.0614   23558445.1724
        49.0004         41.0004
  20390894.1854  -25487452.74944 -19618766.21042  20390895.5324   20390891.2524
        58.0004         51.0004
 03 12 18 19 33 30.0000000  0  7G26G29G28G27G 8G11G 7
  22167709.4454  -13044270.30343  -9904666.35642  22167711.6414   22167706.9664
        53.0004         46.0004
  21981161.1874  -18763131.92443 -14562223.70342  21981162.8504   21981158.8504
        54.0004         47.0004
  20969603.9454   -7287415.12144  -5668332.78842  20969605.7814   20969599.7804
        57.0004         50.0004
  22906508.7244   16411270.88543  12788241.99842  22906510.8114   22906509.0204
        48.0004         41.0004
  20785638.3844   -2936426.74343  -2282711.87542  20785638.4234   20785634.4014
        56.0004         49.0004
  23564684.1274  -10678305.43943  -8309830.97642  23564687.3644   23564681.9184
        48.0004         41.0004
  20386949.3524  -25508183.15344 -19634919.74742  20386950.6104   20386946.4304
        58.0004         51.0004
 03 12 18 19 34  0.0000000  0  7G26G29G28G27G 8G11G 7
  22168178.3754  -13041806.94343  -9902746.86542  22168180.3154   22168175.7264
        53.0004         46.0004
  21985240.9714  -18741691.77943 -14545517.12442  21985243.4344   21985238.6354
        54.0004         47.0004
  20972605.0684   -7271644.48644  -5656043.98842  20972606.7234   20972600.8044
        57.0004         50.0004
  22923725.8684   16501747.12643  12858742.83842  22923727.9744   22923725.6054
        47.0004         41.0004
  20796465.7004   -2879529.67443  -2238376.53142  20796465.5494   20796461.7074
        56.0004         49.0004
  23571016.1364  -10645020.71343  -8283894.85442  23571018.1764   23571015.6164
        48.0004         41.0004
  20383091.0614  -25528458.93444 -19650719.03542  20383092.4284   20383087.9664
        58.0004         51.0004
 03 12 18 19 34 30.0000000  0  7G26G29G28G27G 8G11G 7
  22168755.7754  -13038772.22343  -9900382.16242  22168757.4934   22168753.7284
        53.0004         46.0004
  21989421.2634  -18719723.44043 -14528398.96242  21989423.8634   21989418.9424
        54.0004         47.0004
  20975634.9244   -7255721.33044  -5643636.34042  20975636.6464   20975630.9284
        57.0004         50.0004
  22940995.3854   16592500.24043  12929459.41442  22940995.4654   22940995.1134
        46.0004         41.0004
  20807374.9104   -2822199.26143  -2193703.52242  20807375.3934   20807371.3784
        56.0004         49.0004
  23577445.5694  -10611239.81543  -8257572.08542  23577448.4774   23577443.7684
        48.0004         41.0004
  20379317.7084  -25548287.76144 -19666170.04742  20379318.9384   20379314.6234
        58.0004         51.0004
 03 12 18 19 35  0.0000000  0  7G26G29G28G27G 8G11G 7
  22169443.3114  -13035158.78243  -9897566.49442  22169445.4004   22169441.2284
        53.0004         46.0004
  21993703.5164  -18697220.34543 -14510864.10642  21993705.9364   21993701.2314
        54.0004         47.0004
  20978695.7474   -7239637.73944  -5631103.67842  20978697.2664   20978691.5354
        57.0004         50.0004
  22958319.6994   16683536.71643  13000396.79742  22958319.5744   22958320.1994
        47.0004         41.0004
  20818368.8564   -2764428.07643  -2148687.05342  20818368.8694   20818364.6484
        56.0004         49.0004
  23583970.5944  -10576955.47343  -8230857.01142  23583972.8724   23583968.5864
        49.0004         41.0004
  20375630.9524  -25567662.15144 -19681266.95142  20375632.1244   20375627.8874
        58.0004         51.0004
 03 12 18 19 35 30.0000000  0  7G26G29G28G27G 8G11G 7
  22170239.5724  -13030975.48543  -9894306.79342  22170241.6994   22170237.9694
        53.0004         46.0004
  21998085.3134  -18674192.11543 -14492920.05642  21998087.8754   21998083.5784
        54.0004         47.0004
  20981785.4324   -7223402.38244  -5618452.75842  20981786.8064   20981780.9544
        57.0004         50.0004
  22975695.4274   16774846.91643  13071547.47042  22975696.2614   22975695.5324
        47.0004         41.0004
  20829444.2214   -2706224.93943  -2103334.00042  20829444.6354   20829440.5444
        56.0004         49.0004
  23590588.4564  -10542176.30543  -8203756.35842  23590590.9404   23590587.1094
        49.0004         41.0004
  20372028.9444  -25586590.62944 -19696016.39442  20372030.2824   20372025.9474
        58.0004         51.0004
 03 12 18 19 36  0.0000000  0  7G26G29G28G27G 8G11G 7
  22171145.2984  -13026215.24143  -9890597.51742  22171147.4664   22171143.5494
        53.0004         46.0004
  22002569.0674  -18650632.32743 -14474561.80342  22002570.7194   22002566.7064
        54.0004         47.0004
  20984904.9694   -7207007.54044  -5605677.56142  20984906.7314   20984900.8014
        57.0004         50.0004
  22993124.6084   16866437.00543  13142916.23742  22993126.5594   22993124.7194
        47.0004         41.0004
  20840603.6164   -2647582.75043  -2057638.82942  20840603.8584   20840599.6834
        56.0004         49.0004
  23597302.6244  -10506895.83943  -8176265.10342  23597305.0784   23597301.2594
        48.0004         41.0004
  20368513.0544  -25605066.05144 -19710412.80442  20368514.3764   20368510.0954
        58.0004         52.0004
 03 12 18 19 36 30.0000000  0  7G26G29G28G27G 8G11G 7
  22172159.6434  -13020883.07543  -9886442.58742  22172162.7774   22172157.3374
        53.0004         46.0004
  22007152.5894  -18626546.76643 -14455793.85542  22007154.7454   22007150.4184
        54.0004         47.0004
  20988054.3444   -7190457.86344  -5592781.71442  20988056.0914   20988050.2834
        57.0004         50.0004
  23010605.0994   16958301.23243  13214498.61342  23010605.5004   23010605.9384
        46.0004         41.0004
  20851845.2974   -2588506.61243  -2011605.51842  20851845.7674   20851841.5884
        56.0004         49.0004
  23604111.5564  -10471118.94343  -8148387.02042  23604113.5814   23604110.5264
        49.0004         41.0004
  20365082.6494  -25623093.16744 -19724459.88742  20365083.9734   20365079.5454
        58.0004         52.0004
 03 12 18 19 37  0.0000000  0  7G26G29G28G27G 8G11G 7
  22173283.5464  -13014978.59243  -9881841.70242  22173285.5114   22173281.5244
        53.0004         46.0004
  22011835.7154  -18601935.71743 -14436616.43242  22011838.1154   22011833.5324
        54.0004         47.0004
  20991233.4134   -7173752.05544  -5579764.20842  20991235.3444   20991229.1334
        57.0004         50.0004
  23028139.1134   17050439.06743  13286294.19242  23028142.7524   23028138.2854
        48.0004         41.0004
  20863169.7654   -2528995.97043  -1965233.63342  20863170.2694   20863165.7984
        56.0004         49.0004
  23611014.2214  -10434845.42543  -8120121.95142  23611014.9164   23611011.3364
        49.0004         41.0004
  20361737.5984  -25640671.31144 -19738157.12242  20361739.0024   20361734.3804
        58.0004         52.0004
 03 12 18 19 37 30.0000000  0  7G26G29G28G27G 8G11G 7
  22174515.6354  -13008501.92643  -9876794.96442  22174517.1124   22174513.8044
        53.0004         46.0004
  22016618.9514  -18576799.90243 -14417030.10642  22016621.4994   22016616.4704
        54.0004         47.0004
  20994442.1264   -7156889.69944  -5566624.71142  20994444.1684   20994437.9014
        57.0004         50.0004
  23045724.4054   17142849.77943  13358302.39642  23045725.7964   23045723.7144
        47.0004         41.0004
  20874577.2154   -2469050.76043  -1918523.12442  20874577.3894   20874573.1034
        56.0004         49.0004
  23618009.3804  -10398075.44543  -8091470.01942  23618013.1324   23618009.7524
        48.0004         41.0004
  20358478.1564  -25657800.30344 -19751504.37442  20358479.4304   20358474.9964
        58.0004         52.0004
 03 12 18 19 38  0.0000000  0  7G26G29G28G27G 8G11G 7
  22175856.6754  -13001455.05743  -9871303.90942  22175859.1834   22175854.8254
        53.0004         46.0004
  22021501.5194  -18551142.17643 -14397037.09042  22021503.4884   22021498.7904
        54.0004         47.0004
  20997680.5494   -7139872.31944  -5553364.42242  20997682.4454   20997676.4074
        57.0004         50.0004
  23063360.7244   17235530.63043  13430521.10542  23063363.0634   23063360.9994
        47.0004         40.0004
  20886066.8994   -2408672.97643  -1871475.54342  20886067.0014   20886063.0184
        56.0004         49.0004
  23625101.8644  -10360811.10743  -8062432.87042  23625103.4184   23625100.3054
        48.0004         41.0004
  20355303.6234  -25674481.73344 -19764502.87742  20355305.0934   20355300.5764
        58.0004         52.0004
